Date StartTime U_cm/s V_cm/s W_cm/s Ustd_cm/s Vstd_cm/s Wstd_cm/s Uvar_(cm/s)^2 Vvar_(cm/s)^2 Wvar_(cm/s)^2 KE_(m/s)^2 TurbulentKE_(m/s)^2 HorizWindSpeed_cm/s FrictionSpeec_cm/s DragCoef SpeedOfSound_m/s SonicTemperature_C Pressure_mb 
10/16/2013  00:00:00      -71.418       -8.557      -15.792       12.700       10.670       10.216      161.283      113.859      104.367        0.290        0.019       71.929        4.611        0.004      334.949        5.260      866.155
10/16/2013  00:01:00      -47.173      -38.959      -14.687       22.165       19.608       10.571      491.266      384.482      111.756        0.247        0.049       61.181        6.555        0.011      334.922        5.215      866.144
10/16/2013  00:02:00      -31.688       -7.246       -8.048       19.493       16.644       15.126      379.986      277.030      228.808        0.100        0.044       32.506       11.687        0.129      335.263        5.780      866.154
10/16/2013  00:03:00       -4.012       59.084      -14.311       23.287       50.504       14.138      542.291     2550.648      199.882        0.350        0.165       59.220       17.718        0.090      335.710        6.525      866.152
10/16/2013  00:04:00       12.896      106.249       -7.076       19.341       21.015       14.297      374.058      441.626      204.391        0.626        0.051      107.028       10.832        0.010      336.015        7.032      866.144
10/16/2013  00:05:00       13.779      104.508      -15.565       12.919       16.506        8.492      166.889      272.440       72.107        0.593        0.026      105.412        5.174        0.002      335.979        6.973      866.147
10/16/2013  00:06:00      -27.912       57.158       -6.447       26.785       58.919       16.111      717.434     3471.459      259.559        0.427        0.222       63.610       16.864        0.070      335.572        6.294      866.134
10/16/2013  00:07:00      -43.552      -18.734       -3.973       16.240       14.610       11.279      263.741      213.443      127.227        0.143        0.030       47.410        8.885        0.035      334.964        5.284      866.127
10/16/2013  00:08:00      -36.670      -20.854       -9.643       16.968       16.867        9.898      287.906      284.491       97.971        0.127        0.034       42.186        7.031        0.028      334.991        5.329      866.128
10/16/2013  00:09:00      -54.717      -24.129       -5.552       17.216       16.687       14.168      296.381      278.453      200.733        0.219        0.039       59.800       10.807        0.033      334.930        5.228      866.123
10/16/2013  00:10:00      -58.327      -16.941       -9.571       25.075       12.057       11.775      628.757      145.360      138.639        0.235        0.046       60.737       10.812        0.032      334.819        5.044      866.115
10/16/2013  00:11:00      -62.337      -21.676      -11.799       23.171       15.920       11.508      536.915      253.439      132.438        0.271        0.046       65.998        9.678        0.022      334.694        4.835      866.112
10/16/2013  00:12:00      -96.055      -27.687      -18.027       18.924       23.706       12.141      358.108      561.990      147.392        0.569        0.053       99.966        8.348        0.007      334.567        4.624      866.120
10/16/2013  00:13:00      -81.739      -23.804      -19.923       14.179       23.167       11.672      201.045      536.695      136.230        0.426        0.044       85.134       11.532        0.018      334.593        4.667      866.119
10/16/2013  00:14:00      -88.531      -42.460      -11.374       15.817       20.365       13.514      250.193      414.748      182.626        0.531        0.042       98.187        9.422        0.009      334.581        4.648      866.117
10/16/2013  00:15:00      -97.215      -30.546      -19.539       15.666       15.960       11.963      245.412      254.712      143.115        0.570        0.032      101.901        7.009        0.005      334.610        4.697      866.111
10/16/2013  00:16:00      -94.067      -25.993      -19.077       19.303       20.196       12.628      372.588      407.884      159.459        0.541        0.047       97.592       12.135        0.015      334.655        4.770      866.106
10/16/2013  00:17:00      -73.484      -27.971      -16.587       23.768       17.031       12.287      564.901      290.069      150.982        0.373        0.050       78.628        2.040        0.001      334.816        5.038      866.108
10/16/2013  00:18:00      -66.568      -25.502      -19.469       12.838       14.925       10.676      164.807      222.751      113.985        0.298        0.025       71.286        5.533        0.006      334.607        4.689      866.105
10/16/2013  00:19:00      -71.366      -12.644      -14.327       10.857       17.528       12.301      117.871      307.244      151.321        0.302        0.029       72.478        7.471        0.011      334.625        4.721      866.097
10/16/2013  00:20:00      -57.955      -12.351      -12.932       24.863       15.707       17.584      618.167      246.718      309.184        0.243        0.059       59.257       15.124        0.065      334.913        5.200      866.086
10/16/2013  00:21:00      -14.728       -1.029        0.918       27.988       18.321       21.353      783.311      335.670      455.971        0.090        0.079       14.764       13.798        0.873      335.109        5.524      866.085
10/16/2013  00:22:00      -32.149      -15.038       -6.578       25.657       19.024       15.725      658.288      361.897      247.275        0.128        0.063       35.492        7.423        0.044      334.873        5.134      866.095
10/16/2013  00:23:00      -38.359       18.589      -11.454       30.473       27.999       14.217      928.577      783.957      202.128        0.193        0.096       42.626       14.300        0.113      335.048        5.424      866.094
10/16/2013  00:24:00      -39.437        6.823       -6.886       19.988       39.515       15.076      399.528     1561.444      227.291        0.192        0.109       40.023       15.051        0.141      335.164        5.618      866.082
10/16/2013  00:25:00      -50.864      -34.753       -9.116       28.262       15.345       13.759      798.760      235.477      189.303        0.255        0.061       61.603        4.319        0.005      334.700        4.844      866.084
10/16/2013  00:26:00     -101.396      -39.779      -20.730       17.473       17.905       12.335      305.309      320.586      152.158        0.654        0.039      108.920        8.090        0.006      334.454        4.437      866.074
10/16/2013  00:27:00     -114.492      -27.408      -19.784       27.637       21.524       13.180      763.811      463.273      173.703        0.783        0.070      117.727       11.075        0.009      334.385        4.323      866.070
10/16/2013  00:28:00      -84.459      -17.625      -16.816       29.080       18.444       15.016      845.637      340.164      225.475        0.457        0.071       86.278        8.227        0.009      334.393        4.336      866.059
10/16/2013  00:29:00     -112.478      -13.250      -19.746       14.563       11.856       10.853      212.066      140.576      117.792        0.684        0.024      113.256        7.506        0.004      334.359        4.281      866.049
10/16/2013  00:30:00     -124.286       -8.037      -23.297       23.075       14.498       14.908      532.441      210.193      222.242        0.851        0.048      124.545        8.253        0.004      334.338        4.245      866.041
10/16/2013  00:31:00      -91.880      -19.222      -25.040       16.522       10.397        9.618      272.988      108.091       92.502        0.496        0.024       93.870        6.084        0.004      334.419        4.380      866.033
10/16/2013  00:32:00      -95.358      -16.839      -21.920       21.375       25.007       19.535      456.892      625.328      381.620        0.566        0.073       96.833       14.664        0.023      334.450        4.431      866.036
10/16/2013  00:33:00      -86.639       -4.393      -14.449       16.607       24.649       14.066      275.783      607.580      197.851        0.441        0.054       86.750       13.526        0.024      334.607        4.690      866.056
10/16/2013  00:34:00      -78.422      -11.811      -20.320       19.998       24.302       16.119      399.936      590.589      259.816        0.398        0.063       79.307       16.342        0.042      334.595        4.671      866.055
10/16/2013  00:35:00      -71.829      -23.792      -18.748       16.072       18.324       14.065      258.311      335.786      197.838        0.343        0.040       75.667       10.625        0.020      334.682        4.815      866.044
10/16/2013  00:36:00      -58.238      -23.216      -12.846       12.202       19.639        9.626      148.880      385.692       92.659        0.236        0.031       62.695        3.289        0.003      334.732        4.899      866.039
10/16/2013  00:37:00      -51.845      -39.406      -14.783       16.728       14.592       14.083      279.834      212.913      198.326        0.258        0.035       65.121        7.334        0.013      334.669        4.793      866.038
10/16/2013  00:38:00      -61.815      -25.578      -16.484       11.956       10.494        8.620      142.953      110.125       74.312        0.254        0.016       66.897        4.158        0.004      334.682        4.815      866.028
10/16/2013  00:39:00      -71.785       -5.796      -11.598       20.948       17.962        8.922      438.818      322.651       79.598        0.308        0.042       72.019        4.578        0.004      334.788        4.990      866.008
10/16/2013  00:40:00      -77.453       -7.435      -12.947        9.382       12.307        9.798       88.020      151.470       96.000        0.328        0.017       77.809        4.666        0.004      334.554        4.604      866.012
10/16/2013  00:41:00      -72.194      -26.047      -16.533       12.611       12.662       10.901      159.028      160.322      118.843        0.330        0.022       76.749        7.480        0.009      334.494        4.503      866.018
10/16/2013  00:42:00      -92.667      -21.152      -16.407       15.298       15.293        9.504      234.027      233.862       90.327        0.493        0.028       95.051        7.814        0.007      334.502        4.517      866.004
10/16/2013  00:43:00      -96.996      -35.704      -17.439       21.298       23.345       11.858      453.601      545.003      140.601        0.606        0.057      103.358        7.151        0.005      334.467        4.458      865.990
10/16/2013  00:44:00     -110.891       -5.800      -20.582       11.054       10.044        8.649      122.183      100.885       74.801        0.653        0.015      111.042        4.336        0.002      334.389        4.331      865.978
10/16/2013  00:45:00      -75.797       -8.254      -18.359       12.720       11.526        7.481      161.792      132.848       55.961        0.325        0.018       76.246        1.870        0.001      334.440        4.413      865.966
10/16/2013  00:46:00      -67.764      -23.745      -13.328       10.264       14.825       14.052      105.343      219.786      197.466        0.293        0.026       71.804        8.022        0.012      334.465        4.456      865.942
10/16/2013  00:47:00      -64.993      -18.573      -17.673       13.027       10.359        9.065      169.714      107.301       82.167        0.262        0.018       67.594        5.987        0.008      334.520        4.548      865.932
10/16/2013  00:48:00      -62.398      -17.288      -16.091        9.837       10.913        7.473       96.774      119.098       55.849        0.236        0.014       64.748        4.146        0.004      334.553        4.602      865.926
10/16/2013  00:49:00      -46.818        3.352      -10.099       12.329        8.529        6.829      152.004       72.739       46.629        0.129        0.014       46.938        5.809        0.015      334.878        5.142      865.913
10/16/2013  00:50:00      -23.421       19.870        1.518       16.275       16.265        9.452      264.879      264.547       89.334        0.078        0.031       30.714        4.713        0.024      335.139        5.575      865.910
10/16/2013  00:51:00      -10.757       -0.618        2.072       19.322       25.305       13.176      373.323      640.343      173.598        0.065        0.059       10.774       14.645        1.848      335.274        5.801      865.917
10/16/2013  00:52:00      -26.548      -26.371       -2.733       13.470       11.653       13.827      181.442      135.798      191.180        0.096        0.025       37.420        9.828        0.069      334.524        4.552      865.916
10/16/2013  00:53:00      -58.972      -19.683      -12.070       25.485       16.003        9.938      649.479      256.087       98.772        0.251        0.050       62.170        6.182        0.010      334.480        4.481      865.904
10/16/2013  00:54:00      -88.324      -13.123      -11.380       21.584       12.427       10.281      465.889      154.432      105.705        0.441        0.036       89.294       11.360        0.016      334.304        4.189      865.902
10/16/2013  00:55:00      -82.377      -13.146      -16.050       14.764       13.362        8.782      217.968      178.531       77.120        0.384        0.024       83.419        5.319        0.004      334.214        4.039      865.889
10/16/2013  00:56:00      -54.236      -20.903      -15.727       17.964       10.339        8.105      322.714      106.898       65.691        0.206        0.025       58.125        6.326        0.012      334.606        4.690      865.875
10/16/2013  00:57:00      -46.271      -34.505      -10.370       11.019       10.752        8.499      121.424      115.612       72.237        0.187        0.015       57.721        5.003        0.008      334.495        4.506      865.874
10/16/2013  00:58:00      -64.423      -21.599      -15.039        7.834        9.326        7.843       61.375       86.983       61.519        0.253        0.010       67.948        2.081        0.001      334.258        4.112      865.878
10/16/2013  00:59:00      -63.778      -41.343      -18.307       13.969       15.342        9.059      195.126      235.379       82.063        0.331        0.026       76.006        6.749        0.008      334.267        4.128      865.890
10/16/2013  01:00:00     -100.733      -43.717      -21.909       34.419       17.372       13.216     1184.685      301.778      174.667        0.710        0.083      109.810        8.223        0.006      334.153        3.937      865.899
10/16/2013  01:01:00     -124.050      -59.963      -18.534       22.438       23.275       20.767      503.477      541.713      431.251        1.040        0.074      137.782       12.052        0.008      334.061        3.784      865.915
10/16/2013  01:02:00     -123.034      -68.539       -6.776       22.006       27.440       18.698      484.277      752.980      349.598        1.073        0.079      140.837        9.578        0.005      334.119        3.881      865.931
10/16/2013  01:03:00     -141.301      -66.285      -14.740       23.888       26.070       19.789      570.652      679.632      391.605        1.311        0.082      156.076       18.247        0.014      334.085        3.824      865.934
10/16/2013  01:04:00     -124.488      -46.395      -11.550       24.836       27.197       17.390      616.808      739.676      302.398        0.972        0.083      132.853       15.049        0.013      334.103        3.855      865.946
10/16/2013  01:05:00     -105.496      -41.966       -9.753       14.995       18.868       12.780      224.855      355.993      163.335        0.686        0.037      113.536       10.050        0.008      334.155        3.940      865.944
10/16/2013  01:06:00      -97.422      -28.409      -10.216       13.259       13.515        8.476      175.799      182.667       71.848        0.542        0.022      101.479        5.408        0.003      334.207        4.028      865.941
10/16/2013  01:07:00     -111.209      -12.895      -15.496       17.028       11.077       12.479      289.942      122.702      155.722        0.667        0.028      111.954        9.006        0.006      334.194        4.006      865.947
10/16/2013  01:08:00     -116.725      -37.293      -13.751       23.458       22.500       17.501      550.292      506.248      306.290        0.828        0.068      122.537       13.403        0.012      334.136        3.911      865.954
10/16/2013  01:09:00     -113.814      -39.304      -15.219       51.777       26.924       14.439     2680.875      724.898      208.487        0.917        0.181      120.410       14.995        0.016      334.042        3.753      865.958
10/16/2013  01:10:00     -106.337      -35.542      -19.788       31.604       28.369       17.312      998.821      804.820      299.714        0.753        0.105      112.120       15.654        0.019      334.049        3.765      865.949
10/16/2013  01:11:00      -95.273      -36.188      -12.226       17.579       24.250       18.232      309.027      588.058      332.401        0.588        0.061      101.914       11.336        0.012      333.991        3.668      865.952
10/16/2013  01:12:00      -98.135      -42.113      -16.263       24.242       25.032       20.426      587.696      626.602      417.216        0.665        0.082      106.789       17.479        0.027      334.061        3.787      865.964
10/16/2013  01:13:00     -112.807      -44.214      -14.047       21.256       28.031       15.164      451.812      785.738      229.938        0.817        0.073      121.163       13.232        0.012      334.068        3.796      865.970
10/16/2013  01:14:00     -122.110      -39.848      -15.390       22.309       23.496       16.809      497.679      552.078      282.540        0.903        0.067      128.447        5.739        0.002      333.979        3.649      865.961
10/16/2013  01:15:00     -124.779      -51.088      -11.336       18.152       20.118       14.795      329.484      404.750      218.898        0.963        0.048      134.832       11.101        0.007      333.953        3.605      865.951
10/16/2013  01:16:00     -136.544      -41.308      -18.746       14.342       17.640       12.536      205.682      311.171      157.150        1.069        0.034      142.655        6.701        0.002      333.933        3.573      865.943
10/16/2013  01:17:00     -136.758      -29.848      -19.766       11.803       17.234       12.381      139.316      297.005      153.277        1.029        0.029      139.977        8.149        0.003      333.917        3.546      865.937
10/16/2013  01:18:00     -139.380      -12.130      -21.156       18.842       18.415       12.785      355.017      339.127      163.460        1.044        0.043      139.907       10.132        0.005      333.929        3.565      865.934
10/16/2013  01:19:00     -112.314      -20.119      -23.622       19.006       17.658       15.597      361.215      311.797      243.268        0.725        0.046      114.102       13.594        0.014      333.945        3.594      865.936
10/16/2013  01:20:00     -110.014      -41.368      -18.060       16.542       22.761       13.038      273.628      518.073      169.984        0.755        0.048      117.534       11.858        0.010      333.971        3.637      865.936
10/16/2013  01:21:00     -110.780      -51.910      -18.559       18.261       30.519       16.227      333.463      931.426      263.319        0.842        0.076      122.339       15.899        0.017      334.039        3.749      865.940
10/16/2013  01:22:00     -121.017      -27.759      -18.724       16.782       22.650       13.669      281.622      513.007      186.852        0.837        0.049      124.160        8.490        0.005      333.992        3.672      865.946
10/16/2013  01:23:00      -87.617      -64.246       -7.772       24.976       25.085       14.786      623.815      629.249      218.628        0.667        0.074      108.648       13.049        0.014      333.992        3.671      865.964
10/16/2013  01:24:00      -97.131      -31.807       -9.901       26.923       22.620       17.294      724.848      511.680      299.073        0.604        0.077      102.207        7.938        0.006      334.009        3.700      865.964
10/16/2013  01:25:00     -111.275      -27.712      -18.841       35.263       29.348       16.100     1243.470      861.313      259.217        0.793        0.118      114.674       11.633        0.010      333.939        3.583      865.974
10/16/2013  01:26:00      -66.294       -7.688      -10.089       24.442       22.025       23.212      597.390      485.082      538.812        0.309        0.081       66.738        7.691        0.013      333.985        3.660      865.982
10/16/2013  01:27:00      -80.301      -10.079      -10.551       56.215       27.631       20.217     3160.157      763.486      408.727        0.550        0.217       80.931       24.439        0.091      333.984        3.658      865.983
10/16/2013  01:28:00      -96.337      -29.429       -4.234       35.341       23.776       21.446     1248.963      565.286      459.937        0.622        0.114      100.732       13.002        0.017      333.966        3.627      865.977
10/16/2013  01:29:00      -71.923      -17.141       -5.127       46.579       32.736       24.872     2169.637     1071.629      618.635        0.468        0.193       73.938       18.543        0.063      333.924        3.559      865.962
10/16/2013  01:30:00     -118.057      -14.221       -7.757       43.516       38.511       26.096     1893.632     1483.092      680.987        0.913        0.203      118.910       13.822        0.014      333.957        3.613      865.962
10/16/2013  01:31:00     -102.418      -25.875      -10.925       32.163       28.226       20.711     1034.485      796.729      428.931        0.677        0.113      105.636       19.375        0.034      333.941        3.586      865.951
10/16/2013  01:32:00     -106.757      -18.025      -13.626       29.532       18.328       16.702      872.154      335.908      278.958        0.670        0.074      108.268       12.302        0.013      333.983        3.656      865.923
10/16/2013  01:33:00      -51.641      -45.344      -13.249       33.934       27.922       21.954     1151.498      779.662      481.985        0.366        0.121       68.723       20.787        0.091      333.984        3.658      865.915
10/16/2013  01:34:00      -42.832      -25.002       -8.616       31.115       24.562       25.906      968.172      603.303      671.096        0.239        0.112       49.595       21.687        0.191      333.961        3.620      865.904
10/16/2013  01:35:00      -53.744      -44.925      -17.505       26.499       19.870       16.421      702.214      394.800      269.651        0.329        0.068       70.048       13.477        0.037      334.050        3.768      865.889
10/16/2013  01:36:00      -77.963      -33.913      -14.174       26.404       28.008       17.105      697.187      784.428      292.581        0.460        0.089       85.020        6.106        0.005      334.034        3.742      865.878
10/16/2013  01:37:00     -119.065      -19.018      -22.120       22.557       16.005       15.683      508.804      256.152      245.950        0.802        0.051      120.574        8.803        0.005      334.018        3.714      865.883
10/16/2013  01:38:00     -108.172      -18.328       -6.512       31.072       22.459       16.886      965.487      504.391      285.123        0.692        0.088      109.714       17.002        0.024      333.947        3.596      865.875
10/16/2013  01:39:00     -101.296      -45.856      -22.836       24.568       31.659       19.279      603.579     1002.261      371.687        0.743        0.099      111.192        8.419        0.006      333.955        3.610      865.875
10/16/2013  01:40:00     -100.670      -34.412      -10.468       26.642       24.046       17.056      709.779      578.189      290.914        0.650        0.079      106.389       11.044        0.011      333.960        3.619      865.888
10/16/2013  01:41:00     -123.095      -30.185      -17.191       18.641       22.325       16.364      347.495      498.390      267.791        0.874        0.056      126.741       13.958        0.012      333.919        3.550      865.894
10/16/2013  01:42:00     -149.014       -4.578      -21.099       20.862       17.207       13.648      435.223      296.092      186.271        1.179        0.046      149.084       10.262        0.005      333.892        3.504      865.894
10/16/2013  01:43:00     -134.433      -35.064      -22.606       22.989       24.009       21.087      528.500      576.420      444.641        1.068        0.077      138.930       11.810        0.007      333.871        3.469      865.886
10/16/2013  01:44:00     -110.034      -41.339      -22.092       22.491       19.422       17.314      505.849      377.208      299.776        0.774        0.059      117.543       10.401        0.008      333.909        3.533      865.891
10/16/2013  01:45:00     -102.789      -27.076      -21.563       22.078       22.912       18.586      487.433      524.940      345.453        0.656        0.068      106.296        6.795        0.004      333.972        3.638      865.886
10/16/2013  01:46:00     -109.852      -23.621      -18.274       32.514       23.728       15.767     1057.153      563.034      248.613        0.741        0.093      112.363       11.005        0.010      333.882        3.488      865.882
10/16/2013  01:47:00      -93.495      -25.910      -15.522       29.404       20.387       19.139      864.617      415.633      366.302        0.565        0.082       97.019       12.620        0.017      333.905        3.527      865.881
10/16/2013  01:48:00      -70.915      -37.586      -20.741       31.718       36.957       19.696     1006.033     1365.839      387.948        0.482        0.138       80.260       10.697        0.018      333.882        3.489      865.887
10/16/2013  01:49:00      -85.805      -29.817      -20.248       45.538       32.045       30.299     2073.677     1026.892      918.054        0.634        0.201       90.839       23.287        0.066      333.822        3.388      865.878
10/16/2013  01:50:00      -68.865      -30.904      -10.953       38.656       25.083       21.910     1494.318      629.157      480.035        0.421        0.130       75.482       15.602        0.043      333.826        3.394      865.863
10/16/2013  01:51:00     -100.071      -36.316      -12.516       39.283       35.485       24.542     1543.130     1259.170      602.327        0.745        0.170      106.457       18.983        0.032      333.815        3.377      865.862
10/16/2013  01:52:00     -108.951      -18.810      -23.840       26.031       24.759       17.119      677.635      613.009      293.064        0.719        0.079      110.563       10.920        0.010      333.853        3.440      865.859
10/16/2013  01:53:00      -99.906      -34.050      -18.534       46.153       24.611       22.270     2130.141      605.692      495.936        0.736        0.162      105.549       14.234        0.018      333.855        3.444      865.854
10/16/2013  01:54:00     -120.387      -19.460      -11.958       21.197       22.337       18.573      449.315      498.920      344.957        0.815        0.065      121.950        9.427        0.006      333.836        3.412      865.848
10/16/2013  01:55:00     -130.457      -22.457      -20.070       15.959       22.000       14.966      254.687      484.016      223.978        0.944        0.048      132.376        9.273        0.005      333.894        3.508      865.853
10/16/2013  01:56:00     -124.834      -38.271      -24.586       17.228       20.522       11.701      296.815      421.149      136.911        0.925        0.043      130.569        5.511        0.002      333.830        3.402      865.851
10/16/2013  01:57:00     -140.025      -39.211      -21.614       21.161       15.602       14.439      447.779      243.433      208.488        1.126        0.045      145.411        6.672        0.002      333.695        3.178      865.854
10/16/2013  01:58:00     -148.296      -49.935      -14.388       45.868       26.338       18.757     2103.837      693.676      351.809        1.392        0.157      156.477       15.014        0.009      333.633        3.075      865.861
10/16/2013  01:59:00     -100.994      -71.211        1.090       53.965       35.392       27.053     2912.272     1252.618      731.855        1.008        0.245      123.575       28.810        0.054      333.738        3.249      865.881
10/16/2013  02:00:00      -97.807      -63.142        0.216       29.018       28.449       18.237      842.040      809.331      332.577        0.777        0.099      116.418       17.470        0.023      333.740        3.254      865.886
10/16/2013  02:01:00     -106.695      -62.900       -9.216       29.271       18.169       17.847      856.788      330.095      318.520        0.846        0.075      123.856       12.541        0.010      333.743        3.258      865.893
10/16/2013  02:02:00      -98.000      -67.167       -5.870       26.135       24.950       27.175      683.041      622.511      738.499        0.810        0.102      118.808       21.456        0.033      333.723        3.225      865.909
10/16/2013  02:03:00     -134.352      -68.011      -20.316       24.504       16.355       13.167      600.436      267.496      173.377        1.206        0.052      150.585        7.917        0.003      333.719        3.216      865.910
10/16/2013  02:04:00     -130.681      -63.316      -16.988       29.358       15.831       13.531      861.903      250.634      183.090        1.134        0.065      145.212        7.592        0.003      333.710        3.203      865.905
10/16/2013  02:05:00     -147.240      -63.331      -16.151       20.272       16.975       14.267      410.965      288.136      203.549        1.343        0.045      160.282        9.497        0.004      333.727        3.231      865.910
10/16/2013  02:06:00     -135.862      -73.973      -16.958       20.255       20.600       17.941      410.284      424.349      321.874        1.269        0.058      154.695       13.849        0.008      333.763        3.292      865.914
10/16/2013  02:07:00      -99.246      -76.907        0.203       39.531       33.499       26.029     1562.665     1122.168      677.517        0.956        0.168      125.557       22.723        0.033      333.710        3.204      865.913
10/16/2013  02:08:00     -112.102      -90.673        3.394       50.314       37.558       28.179     2531.455     1410.603      794.048        1.277        0.237      144.182       31.213        0.047      333.653        3.108      865.909
10/16/2013  02:09:00     -132.391      -67.685       -2.421       29.256       30.672       20.947      855.898      940.771      438.768        1.217        0.112      148.690       18.230        0.015      333.735        3.245      865.908
10/16/2013  02:10:00      -92.871      -65.024       -4.984       30.544       21.599       19.961      932.960      466.500      398.442        0.734        0.090      113.372       13.915        0.015      333.740        3.253      865.899
10/16/2013  02:11:00      -93.745      -57.687       -5.573       48.346       26.819       18.173     2337.355      719.262      330.245        0.777        0.169      110.073       21.048        0.037      333.698        3.183      865.897
10/16/2013  02:12:00     -119.417      -92.126      -13.097       26.040       19.921       17.043      678.068      396.856      290.467        1.214        0.068      150.823       12.065        0.006      333.711        3.205      865.897
10/16/2013  02:13:00     -116.786      -73.899       -3.675       30.721       28.361       21.649      943.789      804.354      468.696        1.066        0.111      138.203       12.968        0.009      333.657        3.115      865.888
10/16/2013  02:14:00     -118.284      -62.162        1.800       37.353       25.372       22.722     1395.237      643.753      516.270        1.021        0.128      133.623       22.892        0.029      333.667        3.132      865.880
10/16/2013  02:15:00     -106.704      -65.693       -2.920       23.522       16.539       12.103      553.305      273.550      146.487        0.834        0.049      125.305        7.510        0.004      333.721        3.222      865.886
10/16/2013  02:16:00      -79.248      -49.268        5.380       38.488       29.315       23.992     1481.326      859.370      575.619        0.583        0.146       93.314       24.448        0.069      333.722        3.224      865.891
10/16/2013  02:17:00      -92.461      -68.353        4.313       59.935       34.719       25.461     3592.215     1205.398      648.266        0.934        0.272      114.983       28.340        0.061      333.748        3.266      865.888
10/16/2013  02:18:00     -111.675      -70.823        0.329       61.083       38.988       24.691     3731.121     1520.032      609.627        1.167        0.293      132.239       24.126        0.033      333.809        3.367      865.880
10/16/2013  02:19:00     -119.881      -69.681       -0.071       40.720       33.019       24.191     1658.100     1090.264      585.225        1.128        0.167      138.662       22.562        0.026      333.728        3.234      865.887
10/16/2013  02:20:00     -125.877      -77.390       -3.000       33.811       37.077       23.900     1143.197     1374.729      571.205        1.247        0.154      147.764       18.634        0.016      333.701        3.188      865.891
10/16/2013  02:21:00     -167.421      -51.861       -0.218       35.329       32.692       20.650     1248.115     1068.788      426.413        1.673        0.137      175.270       19.695        0.013      333.700        3.185      865.890
10/16/2013  02:22:00     -163.936      -62.099       -2.780       53.427       35.239       25.090     2854.464     1241.784      629.494        1.773        0.236      175.303       27.519        0.025      333.730        3.236      865.890
10/16/2013  02:23:00     -161.897      -69.121        0.556       50.508       34.169       24.593     2551.099     1167.548      604.822        1.766        0.216      176.035       23.843        0.018      333.736        3.245      865.894
10/16/2013  02:24:00     -200.025      -65.824       -4.890       53.763       40.041       23.982     2890.424     1603.265      575.120        2.472        0.253      210.577       25.111        0.014      333.722        3.220      865.894
10/16/2013  02:25:00     -186.070      -61.017        0.811       46.422       39.291       25.155     2154.997     1543.757      632.770        2.134        0.217      195.819       23.493        0.014      333.669        3.133      865.884
10/16/2013  02:26:00     -155.976      -81.466       -0.992       49.810       38.709       26.205     2481.025     1498.425      686.716        1.782        0.233      175.969       26.978        0.024      333.678        3.149      865.875
10/16/2013  02:27:00     -141.754      -58.269        3.261       69.419       37.218       24.866     4819.067     1385.178      618.308        1.516        0.341      153.262       30.410        0.039      333.681        3.152      865.866
10/16/2013  02:28:00     -155.158      -80.058       -1.189       39.419       32.483       21.073     1553.825     1055.135      444.089        1.677        0.153      174.595       18.283        0.011      333.694        3.176      865.856
10/16/2013  02:29:00     -141.934      -78.218       -2.003       62.426       52.142       29.444     3896.976     2718.808      866.932        1.687        0.374      162.060       34.318        0.045      333.645        3.094      865.846
10/16/2013  02:30:00     -157.478      -78.975       -6.148       35.786       38.994       25.094     1280.663     1520.540      629.719        1.725        0.172      176.171       21.337        0.015      333.607        3.031      865.828
10/16/2013  02:31:00     -149.960      -82.906       -1.978       37.782       36.322       27.054     1427.496     1319.281      731.902        1.642        0.174      171.352       23.394        0.019      333.564        2.961      865.822
10/16/2013  02:32:00     -138.008      -80.508       -4.250       31.923       25.401       21.971     1019.070      645.213      482.731        1.385        0.107      159.774       17.996        0.013      333.556        2.948      865.828
10/16/2013  02:33:00     -134.846      -70.324       -0.601       38.193       37.723       26.873     1458.699     1423.013      722.146        1.337        0.180      152.082       20.952        0.019      333.596        3.013      865.831
10/16/2013  02:34:00     -157.121      -84.343      -10.255       33.450       27.338       20.694     1118.917      747.388      428.234        1.710        0.115      178.328       16.878        0.009      333.657        3.115      865.827
10/16/2013  02:35:00     -163.675      -63.372       -7.593       52.279       32.764       22.391     2733.042     1073.484      501.350        1.758        0.215      175.515       23.604        0.018      333.661        3.121      865.829
10/16/2013  02:36:00     -155.820      -63.918       -6.512       35.141       35.176       26.366     1234.871     1237.356      695.191        1.579        0.158      168.421       18.419        0.012      333.748        3.266      865.834
10/16/2013  02:37:00     -138.925      -35.944       -3.958       48.276       37.767       23.974     2330.528     1426.372      574.731        1.247        0.217      143.499       24.516        0.029      333.676        3.147      865.836
10/16/2013  02:38:00     -121.065      -42.306       -1.374       43.883       31.372       22.789     1925.726      984.187      519.321        0.994        0.171      128.244       23.518        0.034      333.652        3.107      865.830
10/16/2013  02:39:00     -104.308       -4.175       -3.311       45.939       29.975       18.711     2110.385      898.529      350.091        0.713        0.168      104.392       20.341        0.038      333.626        3.062      865.815
10/16/2013  02:40:00     -136.800      -30.249       -7.610       33.375       25.361       17.588     1113.910      643.173      309.339        1.088        0.103      140.104       15.632        0.012      333.641        3.088      865.821
10/16/2013  02:41:00     -103.233      -45.418      -11.340       34.196       24.711       14.502     1169.357      610.651      210.296        0.742        0.100      112.782        4.980        0.002      333.651        3.106      865.812
10/16/2013  02:42:00     -106.976      -28.721       -2.781       32.409       27.639       17.924     1050.332      763.914      321.286        0.721        0.107      110.765       15.676        0.020      333.592        3.006      865.794
10/16/2013  02:43:00     -104.755      -21.431       -0.000       46.215       36.121       25.306     2135.835     1304.739      640.387        0.776        0.204      106.924       21.877        0.042      333.608        3.033      865.777
10/16/2013  02:44:00     -105.509      -23.243       -2.780       50.391       31.272       17.906     2539.254      977.942      320.625        0.776        0.192      108.039       19.114        0.031      333.591        3.005      865.775
10/16/2013  02:45:00     -138.790      -37.911      -11.229       32.735       25.299       17.858     1071.560      640.049      318.924        1.143        0.102      143.875       16.479        0.013      333.602        3.024      865.770
10/16/2013  02:46:00     -121.297      -28.921       -5.215       38.659       22.600       20.778     1494.536      510.762      431.723        0.901        0.122      124.697       21.177        0.029      333.595        3.012      865.756
10/16/2013  02:47:00     -124.304      -20.339      -11.510       32.700       25.703       19.135     1069.281      660.656      366.160        0.905        0.105      125.957       13.790        0.012      333.565        2.962      865.749
10/16/2013  02:48:00     -150.462      -15.196      -13.709       34.291       29.939       19.460     1175.844      896.367      378.686        1.275        0.123      151.227       15.741        0.011      333.565        2.965      865.748
10/16/2013  02:49:00     -131.907      -29.693       -6.057       53.192       35.779       22.616     2829.437     1280.134      511.490        1.147        0.231      135.208       23.310        0.030      333.552        2.940      865.758
10/16/2013  02:50:00     -135.477      -47.034       -6.564       34.888       22.763       13.763     1217.190      518.132      189.408        1.127        0.096      143.409       10.636        0.006      333.511        2.873      865.755
10/16/2013  02:51:00     -139.279      -66.331      -14.390       11.717       18.238        9.167      137.299      332.637       84.042        1.228        0.028      154.267        7.380        0.002      333.541        2.921      865.751
10/16/2013  02:52:00     -147.341      -61.375      -20.282       30.728       20.065       13.139      944.189      402.594      172.643        1.370        0.076      159.612        4.926        0.001      333.558        2.950      865.746
10/16/2013  02:53:00     -113.177      -79.210        4.789       23.151       23.639       17.857      535.985      558.790      318.863        1.026        0.071      138.142       11.811        0.007      333.499        2.853      865.735
10/16/2013  02:54:00      -95.933      -47.951       -0.025       29.561       27.885       19.364      873.869      777.548      374.959        0.676        0.101      107.249       15.339        0.020      333.446        2.764      865.731
10/16/2013  02:55:00      -63.339      -41.239        7.273       38.869       30.477       19.860     1510.817      928.870      394.427        0.430        0.142       75.581       14.506        0.037      333.499        2.854      865.718
10/16/2013  02:56:00      -69.150      -52.994        1.858       38.819       25.160       21.334     1506.947      633.047      455.126        0.509        0.130       87.121       17.402        0.040      333.549        2.935      865.713
10/16/2013  02:57:00      -36.326      -51.443        3.124       32.873       21.475       17.378     1080.615      461.197      302.002        0.291        0.092       62.976       12.970        0.042      333.547        2.933      865.706
10/16/2013  02:58:00      -15.392      -35.662        7.593       32.487       18.584       18.899     1055.386      345.377      357.185        0.166        0.088       38.841       15.770        0.165      333.584        2.995      865.704
10/16/2013  02:59:00      -37.193      -36.555        4.931       39.778       17.692       20.282     1582.287      312.992      411.355        0.252        0.115       52.150       21.664        0.173      333.577        2.984      865.709
10/16/2013  03:00:00      -74.038      -46.068       -2.462       43.055       20.909       21.837     1853.737      437.176      476.834        0.519        0.138       87.200       23.956        0.075      333.483        2.827      865.705
10/16/2013  03:01:00     -125.191      -53.702       -0.264       32.365       26.791       21.686     1047.485      717.779      470.268        1.040        0.112      136.223       18.080        0.018      333.469        2.804      865.687
10/16/2013  03:02:00      -69.535      -52.298        2.357       48.619       31.333       17.320     2363.767      981.738      299.992        0.561        0.182       87.007       21.657        0.062      333.447        2.766      865.675
10/16/2013  03:03:00      -28.712      -27.538       13.494       56.996       18.406       20.997     3248.515      338.780      440.856        0.290        0.201       39.783       30.622        0.592      333.474        2.812      865.670
10/16/2013  03:04:00      -34.890      -24.049        1.118       22.158       11.658       12.107      490.993      135.913      146.571        0.129        0.039       42.375       12.285        0.084      333.519        2.886      865.672
10/16/2013  03:05:00      -36.465      -41.176       -6.755       33.892       17.638       12.335     1148.652      311.101      152.156        0.234        0.081       55.002       15.619        0.081      333.611        3.039      865.682
10/16/2013  03:06:00      -91.019      -43.713      -13.102       23.041       18.376       10.760      530.899      337.665      115.779        0.568        0.049      100.972        8.815        0.008      333.496        2.848      865.685
10/16/2013  03:07:00     -109.024      -40.132      -11.878       12.324       10.692       11.506      151.870      114.312      132.395        0.702        0.020      116.176        6.854        0.003      333.492        2.842      865.679
10/16/2013  03:08:00      -67.058      -34.000       -8.921       16.486       14.994       10.879      271.802      224.834      118.361        0.317        0.031       75.185        7.150        0.009      333.524        2.893      865.670
10/16/2013  03:09:00      -36.775      -29.532       -6.103       13.793       10.836       11.687      190.235      117.422      136.595        0.135        0.022       47.165        7.248        0.024      333.573        2.974      865.677
10/16/2013  03:10:00      -22.097      -16.791        2.079       18.113       12.622       11.729      328.084      159.309      137.571        0.070        0.031       27.753        9.826        0.125      333.560        2.955      865.676
10/16/2013  03:11:00      -57.061      -26.692       -1.283       29.526       15.282        9.471      871.755      233.550       89.696        0.258        0.060       62.996        5.780        0.008      333.540        2.920      865.675
10/16/2013  03:12:00      -18.854      -21.726       -1.516       26.628       19.618       13.135      709.031      384.849      172.529        0.105        0.063       28.766       12.530        0.190      333.506        2.865      865.671
10/16/2013  03:13:00      -34.883      -21.445       -1.095       21.499       17.691       12.670      462.221      312.988      160.537        0.131        0.047       40.948       11.697        0.082      333.423        2.727      865.669
10/16/2013  03:14:00      -13.972      -35.430       -4.405       17.334       21.067       14.704      300.484      443.834      216.209        0.122        0.048       38.086       14.343        0.142      333.442        2.761      865.670
10/16/2013  03:15:00       -3.657       -6.120        8.695       12.455       11.312        8.953      155.116      127.964       80.162        0.024        0.018        7.129        7.127        1.000      333.455        2.780      865.667
10/16/2013  03:16:00      -26.449      -25.255       -1.716       17.740       16.131       12.327      314.717      260.222      151.952        0.103        0.036       36.570        7.922        0.047      333.436        2.749      865.665
10/16/2013  03:17:00      -60.289      -24.623        3.763       15.216       17.997       11.385      231.523      323.884      129.612        0.247        0.034       65.124        6.395        0.010      333.400        2.689      865.656
10/16/2013  03:18:00      -21.668      -24.490        4.940       30.965       14.623       12.747      958.805      213.832      162.486        0.121        0.067       32.700        9.883        0.091      333.364        2.631      865.652
10/16/2013  03:19:00      -31.504      -28.130        4.365       22.790       15.026       11.700      519.366      225.778      136.899        0.134        0.044       42.235        8.018        0.036      333.401        2.691      865.656
10/16/2013  03:20:00      -48.320       -3.381       -8.519       14.055       12.359       13.238      197.550      152.755      175.248        0.147        0.026       48.438        6.802        0.020      333.357        2.619      865.659
10/16/2013  03:21:00      -82.147      -27.507      -10.074       28.477       18.600       15.968      810.952      345.966      254.964        0.451        0.071       86.630        9.860        0.013      333.327        2.571      865.652
10/16/2013  03:22:00      -49.817      -40.483       -9.724       41.632       21.047       15.821     1733.188      442.967      250.301        0.332        0.121       64.192       19.015        0.088      333.275        2.482      865.643
10/16/2013  03:23:00      -50.615      -37.283      -10.274       26.330       20.678       13.058      693.250      427.565      170.502        0.267        0.065       62.864        9.848        0.025      333.319        2.555      865.650
10/16/2013  03:24:00      -49.197      -14.580       -0.964       20.747       15.763       11.657      430.421      248.465      135.877        0.172        0.041       51.312        5.543        0.012      333.275        2.483      865.648
10/16/2013  03:25:00      -37.912      -13.877       -2.525       17.611       15.392       11.265      310.149      236.905      126.898        0.115        0.034       40.372        8.327        0.043      333.276        2.484      865.638
10/16/2013  03:26:00      -30.719       -6.176       -3.491       14.928       11.161        8.148      222.847      124.574       66.383        0.070        0.021       31.333        4.677        0.022      333.323        2.562      865.627
10/16/2013  03:27:00      -18.331       -7.655       -6.105       10.949       11.243       10.330      119.890      126.397      106.714        0.039        0.018       19.865        7.599        0.146      333.362        2.625      865.615
10/16/2013  03:28:00       -5.288        1.440       -4.297       23.059       17.269       10.641      531.706      298.221      113.237        0.050        0.047        5.481        8.247        2.264      333.320        2.557      865.595
10/16/2013  03:29:00       -3.978        2.302        4.225        6.435        7.222        4.926       41.407       52.157       24.269        0.008        0.006        4.596        2.860        0.387      333.266        2.469      865.565
10/16/2013  03:30:00        1.423       -9.485       -2.884       15.307       11.800       16.229      234.316      139.248      263.395        0.037        0.032        9.591       13.023        1.844      333.244        2.432      865.543
10/16/2013  03:31:00      -21.981      -13.448      -15.242       12.704       16.191        6.373      161.392      262.160       40.618        0.068        0.023       25.768        3.227        0.016      333.258        2.455      865.532
10/16/2013  03:32:00      -30.895       -6.363       -8.805       15.304       11.193        6.548      234.213      125.273       42.874        0.074        0.020       31.543        3.307        0.011      333.257        2.451      865.520
10/16/2013  03:33:00      -47.392      -28.559       -2.584       36.135       18.912       13.688     1305.755      357.673      187.375        0.246        0.093       55.332        5.617        0.010      333.226        2.401      865.515
10/16/2013  03:34:00      -18.569      -30.089        6.557       37.781       32.899       20.818     1427.373     1082.370      433.406        0.212        0.147       35.357       18.830        0.284      333.226        2.402      865.528
10/16/2013  03:35:00      -61.653      -63.098        8.632       54.347       43.619       33.553     2953.605     1902.610     1125.808        0.692        0.299       88.218       30.022        0.116      333.127        2.238      865.532
10/16/2013  03:36:00      -76.116      -91.348        1.411       50.561       41.821       27.249     2556.439     1748.990      742.519        0.959        0.252      118.904       23.590        0.039      333.132        2.245      865.541
10/16/2013  03:37:00      -55.276      -66.766        6.492       65.979       31.135       31.286     4353.254      969.365      978.827        0.693        0.315       86.679       32.640        0.142      333.152        2.281      865.548
10/16/2013  03:38:00      -67.671      -96.534       -6.536       36.465       46.428       20.987     1329.701     2155.517      440.445        0.893        0.196      117.890       20.211        0.029      333.052        2.114      865.558
10/16/2013  03:39:00      -72.707      -90.974        3.911       42.855       38.460       25.514     1836.591     1479.200      650.945        0.877        0.198      116.458       22.207        0.036      333.066        2.139      865.552
10/16/2013  03:40:00     -114.105      -93.825       -1.769       63.710       57.158       28.853     4058.935     3267.014      832.512        1.499        0.408      147.726       31.413        0.045      333.013        2.049      865.542
10/16/2013  03:41:00      -63.697      -80.975       14.651       60.575       53.732       36.897     3669.302     2887.165     1361.368        0.937        0.396      103.026       34.717        0.114      332.883        1.836      865.539
10/16/2013  03:42:00      -85.283      -63.229        8.463       54.690       41.605       26.204     2991.013     1731.005      686.630        0.837        0.270      106.166       29.448        0.077      332.898        1.860      865.540
10/16/2013  03:43:00      -72.129      -63.603        9.642       54.042       46.170       26.721     2920.493     2131.640      714.028        0.755        0.288       96.166       26.587        0.076      332.932        1.916      865.535
10/16/2013  03:44:00      -65.796      -44.117       -1.546       36.236       29.060       21.224     1313.075      844.502      450.459        0.444        0.130       79.218       19.136        0.058      332.886        1.840      865.531
10/16/2013  03:45:00     -106.561      -29.079       -8.975       29.087       27.011       22.796      846.046      729.581      519.642        0.719        0.105      110.457       20.248        0.034      332.822        1.735      865.526
10/16/2013  03:46:00     -109.887      -48.688       -1.172       29.328       30.873       20.143      860.105      953.158      405.727        0.833        0.111      120.190       16.068        0.018      332.808        1.711      865.524
10/16/2013  03:47:00     -115.523      -55.245       -1.921       43.061       33.040       17.870     1854.254     1091.660      319.321        0.983        0.163      128.054       16.855        0.017      332.802        1.704      865.530
10/16/2013  03:48:00     -109.835      -33.375        2.295       53.118       31.883       21.780     2821.545     1016.511      474.363        0.875        0.216      114.794       23.989        0.044      332.737        1.596      865.543
10/16/2013  03:49:00     -114.625      -31.085       -1.850       38.320       36.120       22.557     1468.386     1304.643      508.808        0.869        0.164      118.766       20.647        0.030      332.731        1.585      865.546
10/16/2013  03:50:00     -131.227      -38.267       -3.657       38.908       33.434       19.579     1513.825     1117.828      383.355        1.086        0.151      136.693       16.949        0.015      332.644        1.440      865.542
10/16/2013  03:51:00     -109.280       -0.812       -4.189       47.620       24.768       20.738     2267.639      613.433      430.064        0.764        0.166      109.283       22.533        0.043      332.574        1.325      865.536
10/16/2013  03:52:00     -108.343       -1.976       -8.798       35.223       34.265       16.890     1240.679     1174.068      285.275        0.726        0.135      108.361       12.598        0.014      332.655        1.459      865.531
10/16/2013  03:53:00     -109.986      -15.392      -12.422       44.034       40.059       17.534     1938.985     1604.726      307.432        0.817        0.193      111.058       18.356        0.027      332.822        1.735      865.516
10/16/2013  03:54:00     -124.944      -25.586      -13.325       33.465       28.481       21.069     1119.896      811.147      443.896        0.941        0.119      127.536       19.261        0.023      332.896        1.858      865.511
10/16/2013  03:55:00      -79.015      -16.009       -8.937       32.740       33.414       18.687     1071.929     1116.528      349.204        0.456        0.127       80.620       16.530        0.042      332.829        1.747      865.506
10/16/2013  03:56:00      -97.104      -37.913       -6.714       24.856       24.133       15.835      617.823      582.378      250.743        0.618        0.073      104.243       13.853        0.018      332.844        1.773      865.516
10/16/2013  03:57:00      -66.186      -36.967       -3.032       32.254       26.354       15.466     1040.327      694.510      239.189        0.386        0.099       75.810       14.334        0.036      332.769        1.648      865.521
10/16/2013  03:58:00      -64.493      -21.770       -3.641       26.736       31.397       16.424      714.802      985.790      269.762        0.331        0.099       68.068       12.063        0.031      332.732        1.587      865.501
10/16/2013  03:59:00      -99.921      -18.815       -9.989       26.608       32.606       14.536      707.982     1063.157      211.302        0.621        0.099      101.677       12.059        0.014      332.752        1.619      865.479
10/16/2013  04:00:00     -122.191        3.217      -13.297       42.385       29.870       16.749     1796.465      892.191      280.531        0.904        0.148      122.233       17.143        0.020      332.800        1.698      865.464
10/16/2013  04:01:00      -70.491      -16.971       -2.665       38.469       31.959       20.762     1479.832     1021.357      431.062        0.410        0.147       72.505       21.462        0.088      332.714        1.555      865.441
10/16/2013  04:02:00      -80.093        1.034       -3.245       34.573       46.820       24.315     1195.267     2192.085      591.199        0.520        0.199       80.099       18.153        0.051      332.683        1.506      865.423
10/16/2013  04:03:00      -69.326      -27.884       -6.653       28.585       32.113       19.757      817.113     1031.215      390.321        0.393        0.112       74.724       13.297        0.032      332.793        1.688      865.418
10/16/2013  04:04:00      -12.773        0.435        5.045       23.262       18.939       15.744      541.113      358.691      247.865        0.067        0.057       12.780        8.643        0.457      332.753        1.622      865.419
10/16/2013  04:05:00      -24.491      -17.129      -10.181       14.426       13.142       18.123      208.108      172.701      328.436        0.085        0.035       29.887        7.114        0.057      332.754        1.622      865.421
10/16/2013  04:06:00       -4.824      -15.204       -1.875       14.025       11.644       12.016      196.700      135.574      144.390        0.037        0.024       15.951        3.626        0.052      332.801        1.700      865.430
10/16/2013  04:07:00      -21.086       -7.487        0.105       20.009       14.512       11.682      400.342      210.589      136.467        0.062        0.037       22.376        8.369        0.140      332.821        1.735      865.421
10/16/2013  04:08:00      -31.188       -7.182      -11.432       13.607       23.743       11.533      185.145      563.728      133.019        0.102        0.044       32.004        6.424        0.040      332.917        1.892      865.409
10/16/2013  04:09:00        5.111       -6.692        0.937       21.515       12.162       14.331      462.914      147.908      205.367        0.044        0.041        8.420       10.211        1.471      333.016        2.056      865.413
10/16/2013  04:10:00        1.380      -27.849      -11.969       20.733       16.953       11.324      429.868      287.392      128.235        0.088        0.042       27.883        5.903        0.045      333.039        2.094      865.412
10/16/2013  04:11:00      -16.055      -12.681        8.911       20.108       15.997       17.032      404.322      255.906      290.084        0.072        0.048       20.459       11.241        0.302      332.956        1.957      865.416
10/16/2013  04:12:00      -12.255      -21.313       15.386       31.558       23.047       17.843      995.912      531.155      318.386        0.134        0.092       24.585       17.405        0.501      332.859        1.797      865.443
10/16/2013  04:13:00      -83.207      -73.899        2.694       58.568       27.111       24.424     3430.208      735.017      596.535        0.858        0.238      111.286       29.504        0.070      332.919        1.894      865.463
10/16/2013  04:14:00      -85.533      -48.771       -2.230       49.424       33.501       24.017     2442.694     1122.291      576.809        0.692        0.207       98.461       14.923        0.023      332.944        1.937      865.474
10/16/2013  04:15:00      -56.147      -66.166       -7.255       63.076       41.996       31.793     3978.616     1763.650     1010.801        0.717        0.338       86.778       33.244        0.147      332.938        1.927      865.488
10/16/2013  04:16:00      -13.205      -36.614       11.469       48.488       29.151       23.692     2351.067      849.783      561.310        0.270        0.188       38.922       15.724        0.163      332.823        1.738      865.499
10/16/2013  04:17:00      -85.727      -67.743        7.470       65.886       53.233       33.759     4340.993     2833.777     1139.692        1.015        0.416      109.262       39.344        0.130      332.804        1.706      865.488
10/16/2013  04:18:00      -99.432      -76.074        3.570       63.765       34.222       27.947     4066.003     1171.170      781.038        1.085        0.301      125.196       24.799        0.039      332.780        1.665      865.478
10/16/2013  04:19:00     -116.403      -90.106       -3.011       41.381       34.897       24.861     1712.420     1217.783      618.079        1.261        0.177      147.203       20.709        0.020      332.666        1.478      865.476
10/16/2013  04:20:00      -42.337      -54.649       11.880       43.005       40.869       24.334     1849.417     1670.261      592.161        0.452        0.206       69.130       22.470        0.106      332.739        1.599      865.473
10/16/2013  04:21:00      -77.142      -63.026       -1.071       40.856       32.188       17.884     1669.195     1036.036      319.851        0.647        0.151       99.615       16.649        0.028      332.723        1.571      865.459
10/16/2013  04:22:00      -34.899      -41.579        9.167       44.306       28.047       21.024     1962.988      786.643      442.001        0.311        0.160       54.284       23.458        0.187      332.743        1.604      865.440
10/16/2013  04:23:00      -11.972      -20.372       10.572       35.326       27.305       22.724     1247.959      745.542      516.378        0.159        0.125       23.629       14.156        0.359      332.803        1.704      865.427
10/16/2013  04:24:00      -35.844      -31.035        1.997       33.518       34.600       25.375     1123.470     1197.149      643.868        0.261        0.148       47.413       12.592        0.071      332.746        1.610      865.429
10/16/2013  04:25:00      -43.998      -41.484        8.959       42.136       28.207       20.238     1775.423      795.639      409.558        0.336        0.149       60.471       22.033        0.133      332.756        1.627      865.422
10/16/2013  04:26:00      -81.373      -52.024        0.967       37.619       32.599       22.095     1415.163     1062.719      488.170        0.615        0.148       96.582       17.798        0.034      332.798        1.695      865.423
10/16/2013  04:27:00      -71.740      -58.973        7.512       65.227       35.880       25.391     4254.523     1287.348      644.714        0.743        0.309       92.868       26.016        0.078      332.814        1.722      865.425
10/16/2013  04:28:00      -71.579      -48.241        7.491       51.298       29.026       26.991     2631.525      842.514      728.529        0.585        0.210       86.318       30.141        0.122      332.802        1.704      865.426
10/16/2013  04:29:00      -66.405      -67.446       -0.419       42.511       32.651       17.681     1807.203     1066.111      312.620        0.607        0.159       94.650       18.004        0.036      332.813        1.720      865.434
10/16/2013  04:30:00      -70.617      -37.847        5.192       52.869       30.254       20.211     2795.155      915.304      408.475        0.528        0.206       80.120       23.377        0.085      332.759        1.632      865.439
10/16/2013  04:31:00      -85.667      -65.105       -0.830       54.285       39.910       26.767     2946.827     1592.847      716.466        0.842        0.263      107.599       29.802        0.077      332.773        1.654      865.440
10/16/2013  04:32:00      -73.340      -66.511        1.460       45.817       41.071       28.334     2099.237     1686.812      802.808        0.720        0.229       99.007       28.870        0.085      332.755        1.624      865.427
10/16/2013  04:33:00     -101.244      -65.430       -3.395       42.711       38.622       20.370     1824.248     1491.667      414.930        0.914        0.187      120.546       15.933        0.017      332.774        1.656      865.407
10/16/2013  04:34:00      -99.391      -47.372        6.018       61.762       36.168       26.694     3814.542     1308.141      712.583        0.900        0.292      110.103       25.608        0.054      332.642        1.437      865.404
10/16/2013  04:35:00     -103.946      -95.993        2.649       55.425       42.299       30.737     3071.953     1789.212      944.791        1.291        0.290      141.490       25.017        0.031      332.673        1.490      865.407
10/16/2013  04:36:00     -100.557      -96.129        1.441       53.933       40.410       34.673     2908.766     1632.950     1202.243        1.255        0.287      139.113       31.380        0.051      332.638        1.432      865.419
10/16/2013  04:37:00      -88.934      -83.402        1.731       49.616       41.760       28.854     2461.794     1743.886      832.557        0.995        0.252      121.923       30.250        0.062      332.663        1.473      865.429
10/16/2013  04:38:00     -101.737      -87.662        0.043       46.890       29.400       24.094     2198.671      864.362      580.509        1.084        0.182      134.295       22.836        0.029      332.683        1.504      865.442
10/16/2013  04:39:00      -57.872      -46.379        9.398       56.393       34.723       22.986     3180.214     1205.682      528.369        0.525        0.246       74.164       28.060        0.143      332.597        1.363      865.456
10/16/2013  04:40:00      -60.000      -41.244        3.313       44.575       35.358       22.907     1986.933     1250.153      524.710        0.454        0.188       72.809       19.536        0.072      332.598        1.364      865.478
10/16/2013  04:41:00      -50.686      -17.552        4.233       32.497       20.439       12.368     1056.027      417.734      152.972        0.226        0.081       53.639        8.345        0.024      332.571        1.320      865.480
10/16/2013  04:42:00     -105.159       -6.412       -6.744       25.591       14.832       15.193      654.900      219.982      230.840        0.613        0.055      105.354       13.899        0.017      332.436        1.097      865.477
10/16/2013  04:43:00      -76.595       -5.322       -1.834       33.162       22.556       19.602     1099.749      508.782      384.253        0.395        0.100       76.780       20.587        0.072      332.337        0.934      865.474
10/16/2013  04:44:00      -93.348      -15.191       -6.305       26.581       27.688       18.586      706.534      766.607      345.429        0.540        0.091       94.576       16.406        0.030      332.345        0.949      865.478
10/16/2013  04:45:00      -90.565      -31.026        4.040       29.459       22.059       16.507      867.855      486.601      272.474        0.540        0.081       95.732       14.851        0.024      332.383        1.010      865.484
10/16/2013  04:46:00     -110.266      -52.563        2.451       30.737       20.148       16.800      944.775      405.937      282.240        0.828        0.082      122.154       17.331        0.020      332.511        1.221      865.475
10/16/2013  04:47:00      -94.971      -46.631        3.304       42.654       25.822       21.086     1819.323      666.786      444.613        0.707        0.147      105.801       22.152        0.044      332.557        1.298      865.463
10/16/2013  04:48:00     -132.475      -61.793      -10.869       21.146       20.661       13.261      447.172      426.861      175.864        1.127        0.052      146.178       11.591        0.006      332.439        1.102      865.457
10/16/2013  04:49:00      -77.905      -46.011        6.250       50.712       38.814       28.135     2571.660     1506.505      791.559        0.655        0.243       90.477       30.772        0.116      332.387        1.017      865.452
10/16/2013  04:50:00     -160.530      -59.403       -9.589       36.905       41.779       22.361     1361.957     1745.477      500.018        1.650        0.180      171.168       13.079        0.006      332.360        0.972      865.437
10/16/2013  04:51:00      -74.042      -55.511        2.968       68.598       51.224       32.271     4705.621     2623.944     1041.427        0.847        0.419       92.540       29.557        0.102      332.414        1.060      865.440
10/16/2013  04:52:00     -132.772      -37.690      -21.100       38.512       49.076       28.734     1483.199     2408.435      825.641        1.210        0.236      138.018       22.632        0.027      332.298        0.869      865.455
10/16/2013  04:53:00      -96.813      -50.766       -7.874       42.964       37.487       26.672     1845.916     1405.269      711.410        0.799        0.198      109.316       20.390        0.035      332.257        0.803      865.476
10/16/2013  04:54:00      -62.687      -48.783        7.386       51.037       44.174       35.209     2604.801     1951.319     1239.667        0.608        0.290       79.433       35.098        0.195      332.220        0.742      865.494
10/16/2013  04:55:00      -88.087      -51.353       -8.355       39.410       30.816       22.887     1553.130      949.610      523.814        0.675        0.151      101.963       20.683        0.041      332.191        0.694      865.499
10/16/2013  04:56:00      -59.833      -14.690       10.376       66.798       28.694       26.682     4461.996      823.337      711.914        0.495        0.300       61.610       35.307        0.328      332.205        0.717      865.490
10/16/2013  04:57:00      -91.630      -36.704       -7.035       38.047       35.774       20.094     1447.603     1279.782      403.783        0.646        0.157       98.708       20.018        0.041      332.184        0.682      865.475
10/16/2013  04:58:00     -112.620       -1.955       -5.827       35.173       29.259       27.379     1237.109      856.115      749.603        0.778        0.142      112.637       19.384        0.030      332.152        0.627      865.489
10/16/2013  04:59:00     -124.300      -21.104      -12.851       16.733       15.692       11.989      279.987      246.249      143.740        0.837        0.033      126.078        5.957        0.002      332.141        0.610      865.489
10/16/2013  05:00:00     -124.625      -52.930       -9.084       21.527       23.750       15.725      463.397      564.039      247.261        0.984        0.064      135.400       11.301        0.007      332.227        0.754      865.478
10/16/2013  05:01:00     -114.408      -36.449      -12.406       45.706       27.990       21.274     2089.026      783.444      452.591        0.895        0.166      120.074       24.199        0.041      332.213        0.729      865.478
10/16/2013  05:02:00     -103.457      -31.063       -4.020       37.527       31.320       24.375     1408.297      980.926      594.133        0.733        0.149      108.020       20.215        0.035      332.190        0.691      865.474
10/16/2013  05:03:00     -135.563      -11.714       -7.395       30.437       22.618       20.804      926.385      511.575      432.805        1.022        0.094      136.068       18.101        0.018      332.148        0.624      865.472
10/16/2013  05:04:00     -155.782        5.207      -14.772       29.237       35.379       20.051      854.790     1251.683      402.024        1.351        0.125      155.869       16.003        0.011      332.213        0.731      865.472
10/16/2013  05:05:00     -139.584       -4.919       -4.668       37.869       32.564       26.855     1434.079     1060.414      721.213        1.137        0.161      139.671       21.694        0.024      332.207        0.719      865.467
10/16/2013  05:06:00     -173.355        9.109      -15.342       31.305       26.645       22.412      979.997      709.977      502.294        1.628        0.110      173.594       14.561        0.007      332.196        0.703      865.476
10/16/2013  05:07:00     -144.651      -30.520       -8.066       55.998       24.856       22.530     3135.819      617.806      507.609        1.309        0.213      147.835       19.436        0.017      332.191        0.694      865.489
10/16/2013  05:08:00      -88.184      -32.721        0.307       59.980       60.692       29.256     3597.599     3683.516      855.925        0.849        0.407       94.059       26.040        0.077      332.144        0.615      865.502
10/16/2013  05:09:00     -103.840      -45.940        2.815       67.258       43.907       26.829     4523.638     1927.865      719.800        1.003        0.359      113.549       29.655        0.068      332.125        0.583      865.514
10/16/2013  05:10:00     -123.001      -46.768       -3.843       80.070       43.649       30.848     6411.166     1905.195      951.616        1.330        0.463      131.592       40.366        0.094      332.149        0.625      865.530
10/16/2013  05:11:00     -110.918      -57.671        1.317       59.378       45.786       31.055     3525.713     2096.399      964.413        1.111        0.329      125.015       31.615        0.064      332.154        0.632      865.536
10/16/2013  05:12:00     -117.206      -26.618       -1.803       54.261       47.123       26.243     2944.301     2220.535      688.696        1.015        0.293      120.191       26.802        0.050      332.140        0.611      865.535
10/16/2013  05:13:00     -116.271      -42.497       -7.207       38.554       27.308       16.135     1486.378      745.714      260.343        0.893        0.125      123.794       17.539        0.020      332.248        0.787      865.534
10/16/2013  05:14:00      -34.920      -20.816        7.932       36.989       30.733       15.853     1368.160      944.544      251.309        0.214        0.128       40.654       14.476        0.127      332.334        0.930      865.543
10/16/2013  05:15:00      -65.249      -35.621        3.067       45.570       21.441       19.244     2076.600      459.720      370.327        0.422        0.145       74.338       17.106        0.053      332.290        0.857      865.564
10/16/2013  05:16:00      -57.198      -46.642        7.357       49.416       31.030       24.005     2441.906      962.866      576.243        0.474        0.199       73.804       28.914        0.153      332.344        0.945      865.579
10/16/2013  05:17:00     -121.677      -67.596      -10.323       54.727       33.434       22.434     2995.068     1117.804      503.306        1.205        0.231      139.192       20.836        0.022      332.331        0.923      865.581
10/16/2013  05:18:00      -86.937      -74.897       -2.438       49.797       39.977       27.170     2479.746     1598.200      738.200        0.899        0.241      114.750       23.418        0.042      332.342        0.941      865.580
10/16/2013  05:19:00     -127.630      -74.660       -3.444       37.933       30.784       23.512     1438.888      947.677      552.831        1.241        0.147      147.863       16.880        0.013      332.273        0.828      865.603
10/16/2013  05:20:00      -88.802      -66.039        8.196       57.981       36.773       26.065     3361.783     1352.258      679.372        0.885        0.270      110.666       25.589        0.053      332.351        0.956      865.603
10/16/2013  05:21:00     -108.508      -70.214       -1.804       36.536       24.235       17.797     1334.882      587.352      316.730        0.947        0.112      129.244       11.870        0.008      332.377        1.000      865.602
10/16/2013  05:22:00      -65.669      -55.772        7.623       40.810       34.944       23.153     1665.425     1221.095      536.040        0.545        0.171       86.156       22.043        0.065      332.427        1.083      865.599
10/16/2013  05:23:00      -71.519      -41.876        4.710       41.673       30.280       18.236     1736.646      916.894      332.568        0.494        0.149       82.877       21.857        0.070      332.425        1.080      865.616
10/16/2013  05:24:00     -108.699      -75.986       -9.043       37.487       22.201       20.331     1405.276      492.868      413.361        0.999        0.116      132.625       15.500        0.014      332.526        1.246      865.604
10/16/2013  05:25:00     -103.291      -42.764      -10.876       26.637       26.652       16.237      709.524      710.326      263.651        0.715        0.084      111.794        8.342        0.006      332.531        1.254      865.597
10/16/2013  05:26:00      -71.139      -16.894       -0.649       30.661       21.388       16.161      940.122      457.436      261.170        0.350        0.083       73.118        7.778        0.011      332.467        1.148      865.594
10/16/2013  05:27:00      -89.453      -49.276        0.845       34.182       21.760       17.141     1168.417      473.513      293.809        0.618        0.097      102.127       16.934        0.027      332.494        1.193      865.604
10/16/2013  05:28:00      -89.161      -33.786        1.607       29.865       25.588       17.210      891.892      654.730      296.189        0.547        0.092       95.347       17.176        0.032      332.456        1.130      865.618
10/16/2013  05:29:00      -86.186      -25.003        2.600       47.331       18.348       21.513     2240.249      336.663      462.804        0.555        0.152       89.739       26.543        0.087      332.418        1.068      865.621
10/16/2013  05:30:00     -107.021      -44.233       -1.365       38.126       25.679       16.362     1453.619      659.423      267.717        0.790        0.119      115.801       15.820        0.019      332.571        1.320      865.610
10/16/2013  05:31:00     -111.426      -55.816       -2.438       31.170       27.541       19.085      971.595      758.483      364.251        0.882        0.105      124.624       16.195        0.017      332.589        1.350      865.608
10/16/2013  05:32:00      -61.081      -44.277        3.169       37.672       33.336       18.249     1419.150     1111.286      333.034        0.428        0.143       75.441       18.279        0.059      332.562        1.305      865.606
10/16/2013  05:33:00      -90.575      -51.973       -3.060       28.269       25.375       19.943      799.125      643.872      397.740        0.638        0.092      104.427       12.726        0.015      332.465        1.145      865.608
10/16/2013  05:34:00     -116.870      -51.163       -6.786       33.271       24.253       17.121     1106.988      588.187      293.117        0.915        0.099      127.578       11.449        0.008      332.388        1.019      865.614
10/16/2013  05:35:00     -124.847      -26.471       -5.237       28.556       31.502       19.170      815.417      992.379      367.481        0.924        0.109      127.623       15.434        0.015      332.240        0.774      865.619
10/16/2013  05:36:00     -144.129      -13.486       -5.085       39.491       30.419       22.085     1559.572      925.333      487.731        1.198        0.149      144.759       22.409        0.024      332.146        0.619      865.626
10/16/2013  05:37:00     -151.547      -39.157        1.244       51.048       31.636       23.205     2605.947     1000.825      538.495        1.432        0.207      156.524       25.135        0.026      332.176        0.668      865.625
10/16/2013  05:38:00     -147.525      -35.935       -5.096       40.575       28.681       15.476     1646.326      822.586      239.507        1.289        0.135      151.839       14.040        0.009      332.181        0.676      865.619
10/16/2013  05:39:00     -148.784      -11.019       -7.709       57.668       33.972       27.532     3325.605     1154.121      758.027        1.378        0.262      149.191       29.062        0.038      332.178        0.673      865.631
10/16/2013  05:40:00     -204.738        1.537      -20.361       42.204       33.481       24.088     1781.146     1120.971      580.249        2.291        0.174      204.744       23.791        0.014      332.215        0.731      865.634
10/16/2013  05:41:00     -221.840       11.700      -20.204       55.586       40.274       24.925     3089.799     1621.999      621.272        2.754        0.267      222.148       24.088        0.012      332.221        0.740      865.637
10/16/2013  05:42:00     -218.186       18.532      -17.743       48.835       39.057       25.041     2384.816     1525.462      627.031        2.640        0.227      218.972       21.113        0.009      332.213        0.726      865.639
10/16/2013  05:43:00     -197.724        9.843      -17.147       36.501       36.568       22.555     1332.346     1337.241      508.709        2.133        0.159      197.969       20.595        0.011      332.162        0.645      865.645
10/16/2013  05:44:00     -139.153        8.333      -10.665       37.140       32.701       21.049     1379.344     1069.323      443.073        1.122        0.145      139.402       16.971        0.015      332.130        0.592      865.653
10/16/2013  05:45:00     -107.491      -27.310       -9.409       41.031       22.814       20.696     1683.560      520.467      428.337        0.751        0.132      110.906       20.781        0.035      332.129        0.591      865.657
10/16/2013  05:46:00     -129.778      -40.018      -17.314       27.296       42.443       17.499      745.090     1801.433      306.215        1.080        0.143      135.807       12.762        0.009      332.179        0.674      865.664
10/16/2013  05:47:00     -120.796      -31.149      -10.187       25.722       22.520       17.292      661.623      507.158      299.013        0.857        0.073      124.747       16.463        0.017      332.232        0.760      865.667
10/16/2013  05:48:00      -88.582      -41.868        1.948       29.733       22.198       18.046      884.066      492.746      325.672        0.565        0.085       97.978       15.319        0.024      332.313        0.895      865.664
10/16/2013  05:49:00      -47.751      -39.259        0.692       38.425       31.415       14.861     1476.481      986.883      220.850        0.325        0.134       61.818       11.785        0.036      332.384        1.010      865.666
10/16/2013  05:50:00      -94.232      -65.616       -1.239       41.021       25.900       18.955     1682.739      670.803      359.278        0.795        0.136      114.826       21.164        0.034      332.398        1.036      865.663
10/16/2013  05:51:00      -51.646      -52.460        9.345       43.598       26.278       24.856     1900.748      690.548      617.811        0.436        0.160       73.616       26.652        0.131      332.475        1.163      865.672
10/16/2013  05:52:00      -67.005      -43.567        0.583       31.925       20.884       18.860     1019.234      436.161      355.713        0.410        0.091       79.924       12.942        0.026      332.438        1.099      865.682
10/16/2013  05:53:00      -77.762      -36.994        9.886       68.915       29.401       19.646     4749.336      864.428      385.983        0.676        0.300       86.113       26.608        0.095      332.401        1.038      865.694
10/16/2013  05:54:00      -69.450      -48.671        9.928       41.836       33.506       27.255     1750.227     1122.639      742.840        0.545        0.181       84.806       21.574        0.065      332.382        1.009      865.709
10/16/2013  05:55:00      -52.122      -56.225       11.267       60.502       38.735       25.256     3660.529     1500.427      637.874        0.590        0.290       76.667       28.461        0.138      332.380        1.005      865.728
10/16/2013  05:56:00      -96.798      -80.132       -5.292       65.106       35.910       24.003     4238.798     1289.556      576.133        1.096        0.305      125.662       27.614        0.048      332.298        0.871      865.739
10/16/2013  05:57:00      -76.600      -54.582        0.143       32.340       20.312       15.525     1045.879      412.588      241.025        0.527        0.085       94.057       15.061        0.026      332.325        0.914      865.749
10/16/2013  05:58:00      -39.445      -54.946       -2.983       34.569       26.632       13.674     1195.034      709.239      186.966        0.334        0.105       67.638        6.498        0.009      332.351        0.957      865.751
10/16/2013  05:59:00      -26.069      -50.132       -1.003       29.311       27.464       16.129      859.161      754.277      260.137        0.253        0.094       56.505       11.437        0.041      332.356        0.966      865.747
10/16/2013  06:00:00      -61.225      -44.142        5.826       46.707       23.635       20.300     2181.552      558.599      412.079        0.444        0.158       75.478       21.620        0.082      332.228        0.755      865.754
10/16/2013  06:01:00     -130.555      -69.908       -5.837       46.283       28.081       17.995     2142.076      788.525      323.812        1.261        0.163      148.093       18.501        0.016      332.188        0.688      865.762
10/16/2013  06:02:00     -126.330      -57.673        8.117       46.607       44.385       28.498     2172.242     1970.060      812.150        1.215        0.248      138.872       24.160        0.030      332.107        0.554      865.770
10/16/2013  06:03:00     -111.990      -58.726       -7.118       44.737       30.185       22.113     2001.439      911.147      488.991        0.972        0.170      126.454       21.569        0.029      332.136        0.602      865.784
10/16/2013  06:04:00     -114.640      -78.428       -9.900       29.793       39.683       17.213      887.597     1574.758      296.274        1.107        0.138      138.900        9.287        0.004      332.123        0.581      865.789
10/16/2013  06:05:00     -102.446      -82.054       -8.239       29.925       25.412       19.992      895.492      645.787      399.663        0.962        0.097      131.255       13.646        0.011      332.156        0.636      865.802
10/16/2013  06:06:00      -47.910      -16.520        0.501       40.207       20.531       19.149     1616.635      421.535      366.673        0.249        0.120       50.679       17.370        0.117      332.107        0.554      865.808
10/16/2013  06:07:00      -64.927      -37.880        7.697       47.148       14.296       18.693     2222.948      204.386      349.416        0.424        0.139       75.170       25.011        0.111      332.206        0.719      865.814
10/16/2013  06:08:00      -69.896      -36.615        2.015       41.794       26.340       15.651     1746.698      693.821      244.955        0.446        0.134       78.906       20.179        0.065      332.160        0.643      865.826
10/16/2013  06:09:00      -35.871      -25.639       13.310       35.126       25.061       18.769     1233.865      628.062      352.261        0.217        0.111       44.092       15.392        0.122      332.228        0.755      865.843
10/16/2013  06:10:00      -53.898      -44.905        9.967       45.093       28.887       26.331     2033.409      834.432      693.310        0.429        0.178       70.153       24.363        0.121      332.194        0.697      865.856
10/16/2013  06:11:00      -45.680      -48.601        5.239       40.240       33.973       27.075     1619.283     1154.138      733.035        0.399        0.175       66.699       25.747        0.149      332.210        0.726      865.859
10/16/2013  06:12:00      -78.006      -85.558       -4.787       37.923       26.462       18.333     1438.142      700.216      336.091        0.795        0.124      115.781       18.439        0.025      332.287        0.853      865.846
10/16/2013  06:13:00      -88.742      -68.043       -3.388       48.091       28.869       28.521     2312.763      833.400      813.439        0.824        0.198      111.826       22.949        0.042      332.190        0.693      865.825
10/16/2013  06:14:00      -54.873      -53.915       -2.316       35.139       25.176       24.100     1234.765      633.833      580.831        0.419        0.122       76.927       22.785        0.088      332.264        0.814      865.805
10/16/2013  06:15:00      -27.387      -39.415       10.966       33.079       24.534       15.733     1094.249      601.933      247.531        0.218        0.097       47.996       18.177        0.143      332.309        0.888      865.804
10/16/2013  06:16:00      -30.654      -32.900        9.478       34.978       23.113       21.705     1223.488      534.208      471.128        0.217        0.111       44.968       19.461        0.187      332.261        0.807      865.816
10/16/2013  06:17:00      -53.259      -33.854        9.240       38.388       25.801       18.768     1473.620      665.685      352.245        0.328        0.125       63.108       20.139        0.102      332.200        0.708      865.821
10/16/2013  06:18:00      -76.397      -43.018        0.161       32.347       24.654       17.488     1046.326      607.802      305.835        0.482        0.098       87.676       16.393        0.035      332.137        0.605      865.826
10/16/2013  06:19:00      -76.179      -61.548        3.101       31.983       26.914       20.228     1022.888      724.356      409.187        0.588        0.108       97.936       17.993        0.034      332.180        0.676      865.842
10/16/2013  06:20:00      -32.147      -41.820       10.377       41.265       26.101       23.558     1702.814      681.272      554.986        0.291        0.147       52.748       23.619        0.200      332.238        0.771      865.862
10/16/2013  06:21:00      -24.347      -28.189        8.794       34.213       27.152       17.940     1170.528      737.213      321.848        0.185        0.111       37.247       17.031        0.209      332.198        0.704      865.885
10/16/2013  06:22:00      -48.770      -23.359        8.307       26.445       20.324       18.036      699.350      413.062      325.294        0.222        0.072       54.075       15.204        0.079      332.135        0.602      865.893
10/16/2013  06:23:00      -66.458      -14.855       -2.403       16.638       12.972       10.414      276.815      168.283      108.445        0.260        0.028       68.098        8.903        0.017      332.165        0.651      865.898
10/16/2013  06:24:00      -74.020      -23.154       -3.832       16.144       15.517       10.767      260.616      240.784      115.920        0.332        0.031       77.557        7.746        0.010      332.232        0.761      865.910
10/16/2013  06:25:00      -44.504      -21.047       -2.596       16.515       11.510        7.358      272.732      132.470       54.139        0.144        0.023       49.230        3.872        0.006      332.216        0.735      865.905
10/16/2013  06:26:00      -42.344      -29.402        0.864       32.150       18.342       17.764     1033.594      336.437      315.543        0.217        0.084       51.551       19.009        0.136      332.165        0.650      865.906
10/16/2013  06:27:00      -25.781      -23.437       12.070       28.962       18.574       16.006      838.812      344.983      256.194        0.140        0.072       34.842       13.592        0.152      332.094        0.533      865.915
10/16/2013  06:28:00       -9.912      -16.571       17.640       32.469       14.856       16.084     1054.227      220.715      258.709        0.111        0.077       19.309       19.378        1.007      332.112        0.563      865.931
10/16/2013  06:29:00      -25.045      -24.151        7.354       30.428       21.972       17.618      925.881      482.748      310.401        0.149        0.086       34.793       16.054        0.213      332.113        0.565      865.946
10/16/2013  06:30:00      -33.702      -26.312        5.764       32.066       21.978       20.147     1028.200      483.026      405.897        0.189        0.096       42.757       18.310        0.183      332.067        0.488      865.943
10/16/2013  06:31:00      -76.430      -44.767        2.645       25.410       21.389       18.614      645.652      457.497      346.490        0.465        0.072       88.576       13.627        0.024      332.098        0.541      865.948
10/16/2013  06:32:00      -94.815      -44.696       -3.879       20.007       19.624       18.155      400.273      385.109      329.606        0.606        0.056      104.821       13.540        0.017      332.096        0.536      865.949
10/16/2013  06:33:00      -95.189      -26.348       -9.712       23.201       20.429       13.489      538.269      417.345      181.945        0.549        0.057       98.768        6.598        0.004      332.100        0.544      865.952
10/16/2013  06:34:00      -74.965      -19.962        1.411       28.426       21.944       16.162      808.063      481.552      261.204        0.379        0.078       77.578       15.721        0.041      332.043        0.448      865.955
10/16/2013  06:35:00     -105.059      -26.269       -6.758       28.506       17.303       15.280      812.586      299.383      233.482        0.656        0.067      108.293       13.271        0.015      332.028        0.425      865.953
10/16/2013  06:36:00      -71.411      -19.095       -0.461       24.385       18.521       12.336      594.635      343.018      152.178        0.328        0.054       73.920       11.928        0.026      332.049        0.460      865.941
10/16/2013  06:37:00      -78.587      -26.959       -4.290       17.687       17.224       10.653      312.818      296.651      113.493        0.382        0.036       83.082        8.061        0.009      332.071        0.496      865.930
10/16/2013  06:38:00      -82.672      -32.585       -5.666       14.105       11.570        9.838      198.944      133.873       96.777        0.418        0.021       88.862        8.687        0.010      332.125        0.585      865.934
10/16/2013  06:39:00      -73.210      -35.433        3.555       24.721       20.383       18.020      611.113      415.473      324.723        0.399        0.068       81.334       16.046        0.039      332.085        0.518      865.950
10/16/2013  06:40:00      -38.014      -34.491        6.031       39.030       25.216       21.453     1523.350      635.866      460.212        0.264        0.131       51.329       21.177        0.170      332.069        0.492      865.973
10/16/2013  06:41:00      -81.827      -49.662       -1.665       30.386       24.794       16.238      923.309      614.758      263.668        0.548        0.090       95.718       14.879        0.024      331.983        0.349      865.990
10/16/2013  06:42:00      -97.655      -46.581       -5.839       21.045       16.348       12.458      442.901      267.270      155.196        0.630        0.043      108.195        7.407        0.005      331.990        0.362      865.992
10/16/2013  06:43:00      -43.439      -19.871        7.904       29.997       22.754       13.813      899.796      517.754      190.807        0.198        0.080       47.768       15.561        0.106      332.087        0.521      865.994
10/16/2013  06:44:00      -83.020      -18.836       -3.778       18.348       17.241       13.201      336.641      297.241      174.260        0.403        0.040       85.130       10.509        0.015      332.023        0.415      866.007
10/16/2013  06:45:00      -69.367       -1.230       -0.844       26.266       15.265       12.664      689.880      233.022      160.386        0.295        0.054       69.378       11.393        0.027      332.027        0.424      866.003
10/16/2013  06:46:00      -81.898       -6.344       -5.370       19.012       13.787       12.442      361.441      190.081      154.794        0.374        0.035       82.144       10.087        0.015      332.031        0.430      865.982
10/16/2013  06:47:00      -88.536        0.238       -8.958        9.739       10.216        6.750       94.857      104.371       45.565        0.408        0.012       88.537        4.536        0.003      331.986        0.355      865.964
10/16/2013  06:48:00      -82.601      -12.477       -9.206       12.102       13.479        6.076      146.470      181.681       36.912        0.371        0.018       83.538        4.457        0.003      332.034        0.435      865.949
10/16/2013  06:49:00      -81.055      -28.382       -6.562       16.768       22.047       11.175      281.159      486.063      124.876        0.416        0.045       85.880        6.696        0.006      332.093        0.531      865.944
10/16/2013  06:50:00      -65.166      -44.349       -1.680       33.293       19.008       18.675     1108.448      361.295      348.746        0.402        0.091       78.826       15.205        0.037      332.019        0.410      865.946
10/16/2013  06:51:00      -91.545      -40.658       -5.905       24.594       15.921       17.890      604.864      253.467      320.041        0.562        0.059      100.168       15.935        0.025      331.953        0.300      865.943
10/16/2013  06:52:00      -33.443      -30.635        3.862       24.815       14.951       18.372      615.774      223.526      337.519        0.162        0.059       45.354       15.732        0.120      332.023        0.417      865.944
10/16/2013  06:53:00      -26.546      -18.784        9.556       23.903       15.319       15.597      571.340      234.673      243.281        0.110        0.052       32.520        9.922        0.093      332.024        0.419      865.951
10/16/2013  06:54:00      -57.134      -17.394       -2.761       15.285       12.960        9.222      233.628      167.960       85.036        0.203        0.024       59.723        4.349        0.005      331.981        0.346      865.953
10/16/2013  06:55:00      -58.465      -25.251       -4.224       16.549       13.864       10.580      273.857      192.214      111.926        0.233        0.029       63.685        6.760        0.011      331.978        0.341      865.953
10/16/2013  06:56:00      -25.151      -24.250       -1.750       19.988       11.267        9.279      399.512      126.935       86.103        0.092        0.031       34.937        6.360        0.033      332.036        0.440      865.956
10/16/2013  06:57:00      -38.593      -18.454       -0.984        9.207       14.366        7.442       84.770      206.396       55.377        0.109        0.017       42.778        4.092        0.009      332.086        0.521      865.981
10/16/2013  06:58:00      -34.080      -24.767        0.801       22.973       16.346       10.568      527.777      267.189      111.684        0.134        0.045       42.128        8.495        0.041      332.075        0.503      866.000
10/16/2013  06:59:00       -1.057      -22.517        5.497       12.702       15.991       11.099      161.349      255.721      123.186        0.054        0.027       22.542        9.082        0.162      332.164        0.649      866.009
10/16/2013  07:00:00      -26.299      -11.540       -4.874       30.215       21.072       10.236      912.953      444.014      104.772        0.115        0.073       28.719       10.461        0.133      332.100        0.545      866.012
10/16/2013  07:01:00       11.127      -21.168        7.317       13.552       17.185       13.390      183.656      295.308      179.297        0.064        0.033       23.914        9.242        0.149      332.216        0.734      866.028
10/16/2013  07:02:00      -30.880      -20.562        2.632       23.812       19.785       14.878      567.010      391.452      221.363        0.128        0.059       37.099        8.150        0.048      332.121        0.578      866.046
10/16/2013  07:03:00      -55.384      -23.155       -1.040       15.872       15.480       10.344      251.933      239.615      106.998        0.210        0.030       60.030        6.018        0.010      332.146        0.618      866.054
10/16/2013  07:04:00      -54.194      -16.785       -3.720        9.773        8.534        8.988       95.514       72.830       80.788        0.174        0.012       56.734        5.845        0.011      332.086        0.521      866.067
10/16/2013  07:05:00      -56.138       -3.925      -10.329       18.315       15.346        8.620      335.448      235.499       74.305        0.196        0.032       56.275        6.995        0.015      332.101        0.545      866.071
10/16/2013  07:06:00      -76.350        7.523       -6.299        8.309        8.035        7.870       69.048       64.566       61.935        0.306        0.010       76.720        4.656        0.004      332.129        0.591      866.078
10/16/2013  07:07:00      -64.995      -12.057       -5.946       10.722       11.943        7.932      114.952      142.639       62.915        0.236        0.016       66.104        6.952        0.011      332.091        0.530      866.073
10/16/2013  07:08:00      -23.991      -12.349        5.713       25.563       16.621       15.134      653.486      276.250      229.035        0.096        0.058       26.983       16.086        0.355      332.054        0.467      866.067
10/16/2013  07:09:00      -30.649       -9.495        1.363       24.760       11.892        9.488      613.077      141.421       90.024        0.094        0.042       32.086        6.589        0.042      332.043        0.450      866.078
10/16/2013  07:10:00      -72.775      -11.648       -7.470       20.428       14.050        9.534      417.308      197.410       90.902        0.310        0.035       73.702       10.647        0.021      331.944        0.284      866.100
10/16/2013  07:11:00      -69.347      -30.396       -9.855       24.750       20.616       13.133      612.577      425.013      172.475        0.352        0.061       75.716       13.950        0.034      331.946        0.289      866.110
10/16/2013  07:12:00      -41.530      -24.510        4.049       30.248       19.341       13.848      914.919      374.063      191.761        0.191        0.074       48.223        9.587        0.040      331.966        0.321      866.116
10/16/2013  07:13:00      -55.156      -37.642       -1.414       15.583       14.635       13.547      242.824      214.198      183.525        0.255        0.032       66.776        8.398        0.016      331.981        0.348      866.124
10/16/2013  07:14:00      -22.101       -8.683        1.996       18.120       12.866       12.727      328.343      165.535      161.972        0.061        0.033       23.746        7.847        0.109      331.873        0.168      866.128
10/16/2013  07:15:00      -63.996        2.775       -7.285       19.522       11.825        9.763      381.122      139.822       95.325        0.239        0.031       64.056        6.449        0.010      331.882        0.183      866.142
10/16/2013  07:16:00      -81.536       -7.504      -10.929       13.583       11.661       11.517      184.506      135.989      132.639        0.364        0.023       81.881        9.543        0.014      331.916        0.239      866.164
10/16/2013  07:17:00      -71.124       -3.026       -5.259       15.488       12.439        8.713      239.884      154.736       75.916        0.278        0.024       71.188        3.954        0.003      331.895        0.205      866.187
10/16/2013  07:18:00      -41.988       -8.694       -6.035        9.163        9.917        7.665       83.957       98.349       58.753        0.106        0.012       42.879        4.870        0.013      331.883        0.186      866.204
10/16/2013  07:19:00      -51.292      -21.540       -8.872        7.901        8.860        5.693       62.432       78.498       32.415        0.167        0.009       55.631        3.502        0.004      332.055        0.471      866.215
10/16/2013  07:20:00      -52.625      -26.433       -4.429       11.110        8.771        8.071      123.427       76.929       65.138        0.188        0.013       58.891        3.791        0.004      332.034        0.435      866.226
10/16/2013  07:21:00      -60.713      -20.381       -5.789       11.423       10.018        9.169      130.494      100.356       84.073        0.222        0.016       64.043        6.441        0.010      331.951        0.297      866.221
10/16/2013  07:22:00      -65.368      -18.993       -9.945       11.621       14.412        8.522      135.042      207.704       72.616        0.257        0.021       68.072        3.791        0.003      331.922        0.248      866.215
10/16/2013  07:23:00       -2.476      -31.942        4.937       16.481        8.607       13.656      271.622       74.088      186.475        0.079        0.027       32.037       11.549        0.130      332.072        0.497      866.223
10/16/2013  07:24:00      -42.821      -29.562        1.279       23.022       12.797       16.000      530.005      163.772      256.000        0.183        0.047       52.034       14.871        0.082      332.048        0.458      866.230
10/16/2013  07:25:00      -56.086      -20.136       -7.679       16.399       16.417       10.634      268.912      269.504      113.073        0.213        0.033       59.591        9.599        0.026      331.999        0.377      866.238
10/16/2013  07:26:00      -51.031       -9.245       -1.305       16.032       11.264        8.588      257.028      126.871       73.747        0.157        0.023       51.862        5.682        0.012      331.994        0.370      866.245
10/16/2013  07:27:00      -61.445      -14.692       -4.818       11.450        8.452        8.349      131.101       71.434       69.712        0.214        0.014       63.178        3.078        0.002      332.066        0.489      866.260
10/16/2013  07:28:00      -48.906      -24.255       -9.855       10.003       10.390        7.897      100.053      107.949       62.356        0.167        0.014       54.590        4.121        0.006      332.141        0.612      866.270
10/16/2013  07:29:00      -51.002      -13.241       -6.054       11.399       13.737        8.273      129.947      188.696       68.440        0.160        0.019       52.692        5.919        0.013      332.127        0.588      866.270
10/16/2013  07:30:00      -64.907       -7.577       -7.952       12.710       12.743        8.526      161.547      162.372       72.685        0.237        0.020       65.348        8.553        0.017      332.109        0.559      866.267
10/16/2013  07:31:00      -70.273       -9.728       -9.786       13.735       14.406       11.437      188.648      207.541      130.813        0.283        0.026       70.943        9.373        0.017      332.097        0.537      866.282
10/16/2013  07:32:00      -66.413      -16.226      -13.884       16.083       12.818       11.175      258.678      164.291      124.871        0.271        0.027       68.366        5.570        0.007      332.171        0.660      866.274
10/16/2013  07:33:00      -47.740        1.607       -7.149        8.643        8.202        5.795       74.709       67.274       33.581        0.125        0.009       47.767        3.520        0.005      332.186        0.685      866.266
10/16/2013  07:34:00      -56.628       -8.729      -10.026        7.126       11.843        8.998       50.780      140.246       80.971        0.183        0.014       57.297        5.515        0.009      332.290        0.856      866.272
10/16/2013  07:35:00      -61.090      -17.956       -8.071       14.515       14.377        9.144      210.683      206.712       83.611        0.231        0.025       63.674        9.188        0.021      332.253        0.796      866.264
10/16/2013  07:36:00      -64.804      -19.334       -7.589       12.806       14.151        7.806      163.999      200.242       60.930        0.253        0.021       67.627        5.847        0.007      332.242        0.777      866.275
10/16/2013  07:37:00      -50.709      -36.647       -4.439       23.261       18.432       11.502      541.055      339.753      132.304        0.247        0.051       62.565       10.145        0.026      332.243        0.778      866.279
10/16/2013  07:38:00      -85.614      -38.355       -3.449       11.243       10.129       10.164      126.411      102.592      103.300        0.457        0.017       93.813        4.631        0.002      332.270        0.823      866.271
10/16/2013  07:39:00      -51.065      -31.762        0.106       29.507       10.668       11.768      870.641      113.798      138.484        0.237        0.056       60.137        6.247        0.011      332.310        0.888      866.269
10/16/2013  07:40:00      -18.297       -8.721        4.706       18.579       15.924       12.849      345.172      253.582      165.089        0.060        0.038       20.269        8.885        0.192      332.399        1.038      866.277
10/16/2013  07:41:00      -90.546      -51.238       -5.600       33.440       20.411       11.978     1118.207      416.614      143.474        0.627        0.084      104.038       14.896        0.020      332.327        0.916      866.289
10/16/2013  07:42:00     -121.504      -54.588       -7.239       19.828       19.356       15.454      393.165      374.645      238.829        0.940        0.050      133.203       11.993        0.008      332.239        0.772      866.294
10/16/2013  07:43:00      -68.665      -27.064        1.244       36.326       34.893       17.038     1319.609     1217.538      290.286        0.414        0.141       73.806       17.785        0.058      332.275        0.833      866.292
10/16/2013  07:44:00      -48.927      -12.739        1.699       22.108       14.661       11.169      488.783      214.932      124.746        0.169        0.041       50.558       11.365        0.051      332.241        0.776      866.275
10/16/2013  07:45:00      -27.383      -23.128        1.691       10.110       15.373        8.560      102.220      236.342       73.266        0.085        0.021       35.843        6.644        0.034      332.364        0.976      866.258
10/16/2013  07:46:00      -54.425      -21.457      -13.075       11.997       17.446       10.874      143.937      304.366      118.241        0.208        0.028       58.502       10.136        0.030      332.410        1.055      866.242
10/16/2013  07:47:00      -36.860      -22.730       -0.787       26.541       15.515       12.073      704.409      240.707      145.769        0.148        0.055       43.305       14.006        0.105      332.548        1.282      866.240
10/16/2013  07:48:00      -53.283      -17.410       -2.054       19.222       19.599       11.023      369.475      384.122      121.515        0.201        0.044       56.055        7.787        0.019      332.536        1.262      866.245
10/16/2013  07:49:00      -47.759      -18.951       -2.871       17.460       16.633       10.122      304.864      276.664      102.458        0.167        0.034       51.381        3.295        0.004      332.617        1.396      866.247
10/16/2013  07:50:00      -26.870      -29.939       -4.526       25.012       12.646       10.272      625.610      159.930      105.520        0.126        0.045       40.229        8.875        0.049      332.586        1.344      866.261
10/16/2013  07:51:00      -31.604      -16.225        2.786       14.932       13.196       11.236      222.958      174.140      126.238        0.090        0.026       35.525        9.155        0.066      332.640        1.433      866.278
10/16/2013  07:52:00      -36.515       -7.072       -3.791       19.461       11.388        8.182      378.741      129.691       66.946        0.099        0.029       37.194        6.223        0.028      332.626        1.411      866.278
10/16/2013  07:53:00      -47.021       -4.060        0.310       16.607       10.605        7.539      275.784      112.462       56.840        0.134        0.022       47.196        8.538        0.033      332.661        1.468      866.277
10/16/2013  07:54:00      -27.272       -0.147       -4.686       10.777       11.162        8.203      116.140      124.587       67.288        0.054        0.015       27.273        3.163        0.013      332.653        1.454      866.286
10/16/2013  07:55:00      -16.006       -7.377       -3.413        8.977        6.849        6.401       80.591       46.907       40.971        0.025        0.008       17.625        3.885        0.049      332.807        1.711      866.302
10/16/2013  07:56:00      -12.887        0.376        0.321       10.043        8.608       11.715      100.867       74.095      137.246        0.024        0.016       12.892        8.796        0.465      333.071        2.147      866.315
10/16/2013  07:57:00      -15.637        3.062        4.756       15.705       14.113       10.123      246.637      199.178      102.474        0.041        0.027       15.934        7.139        0.201      333.078        2.158      866.324
10/16/2013  07:58:00      -49.371      -13.580       -0.023       17.210       17.602       11.963      296.167      309.822      143.113        0.169        0.037       51.205        9.096        0.032      332.884        1.839      866.333
10/16/2013  07:59:00      -13.500       -5.392        3.181       11.544       15.413       10.569      133.261      237.572      111.705        0.035        0.024       14.537        6.933        0.227      333.036        2.088      866.329
10/16/2013  08:00:00       -7.089        1.933        0.612       10.727        6.004        4.513      115.076       36.042       20.371        0.011        0.009        7.347        1.382        0.035      333.109        2.209      866.318
10/16/2013  08:01:00      -12.933        5.723        3.527       11.111        5.975        8.008      123.457       35.700       64.129        0.022        0.011       14.143        7.376        0.272      333.060        2.128      866.309
10/16/2013  08:02:00       14.909       26.692       23.978       15.433       16.464       13.848      238.186      271.067      191.767        0.111        0.035       30.574        8.609        0.079      333.244        2.432      866.312
10/16/2013  08:03:00        6.278        5.296        1.013       14.415        7.014        7.831      207.796       49.196       61.321        0.019        0.016        8.214        6.941        0.714      333.304        2.530      866.329
10/16/2013  08:04:00       -7.486       -5.552        3.852        8.175       10.148        7.934       66.825      102.988       62.945        0.017        0.012        9.320        6.509        0.488      333.235        2.417      866.357
10/16/2013  08:05:00        0.150       27.456       29.996       11.232       14.816       15.897      126.159      219.522      252.725        0.113        0.030       27.456       12.266        0.200      333.379        2.655      866.365
10/16/2013  08:06:00       24.872       56.727       34.037       26.912       19.912       21.322      724.233      396.474      454.626        0.328        0.079       61.940       16.042        0.067      333.158        2.290      866.353
10/16/2013  08:07:00       26.992       50.167       33.100       19.245       16.374       18.021      370.383      268.096      324.756        0.265        0.048       56.967       13.197        0.054      333.214        2.382      866.330
10/16/2013  08:08:00       -2.290        9.714       29.375       14.855       35.434       20.563      220.676     1255.594      422.845        0.143        0.095        9.981       22.710        5.178      333.484        2.830      866.306
10/16/2013  08:09:00      -13.932      -30.108       -1.161       19.162       22.370       11.748      367.179      500.436      138.025        0.105        0.050       33.176       10.752        0.105      333.298        2.520      866.316
10/16/2013  08:10:00      -28.167       -2.442        6.878       13.743        9.964       13.231      188.869       99.284      175.064        0.065        0.023       28.273       11.603        0.168      333.303        2.530      866.338
10/16/2013  08:11:00       42.398       33.907        2.300       17.027       19.584       21.158      289.908      383.534      447.651        0.204        0.056       54.289       10.939        0.041      333.339        2.588      866.338
10/16/2013  08:12:00       24.044       38.909        7.916       26.683       27.137       10.324      711.975      736.410      106.578        0.185        0.078       45.739        9.549        0.044      333.474        2.812      866.344
10/16/2013  08:13:00       11.361       23.188        7.104       32.781       23.666       12.295     1074.611      560.073      151.163        0.125        0.089       25.821        5.980        0.054      333.441        2.756      866.365
10/16/2013  08:14:00      -13.112       24.892       38.453       30.792       14.619       13.398      948.127      213.702      179.512        0.181        0.067       28.134        8.242        0.086      333.556        2.948      866.371
10/16/2013  08:15:00       17.458       39.155       31.929       21.821       25.155       17.884      476.136      632.792      319.825        0.214        0.071       42.870       14.761        0.119      333.625        3.063      866.381
10/16/2013  08:16:00       65.246       40.322       26.453       30.593       26.566       25.377      935.933      705.752      644.013        0.443        0.114       76.700       17.609        0.053      333.425        2.732      866.406
10/16/2013  08:17:00       73.664       47.722       16.968       24.792       18.250       19.143      614.659      333.068      366.453        0.465        0.066       87.771       10.759        0.015      333.328        2.570      866.418
10/16/2013  08:18:00       62.310       25.986        8.166       28.594       23.321       23.056      817.642      543.862      531.599        0.326        0.095       67.511       15.932        0.056      333.450        2.772      866.418
10/16/2013  08:19:00       26.441       30.455       18.273       22.188       17.384       17.512      492.313      302.205      306.654        0.153        0.055       40.331        7.954        0.039      333.625        3.063      866.426
10/16/2013  08:20:00       54.931       32.705        4.183       32.482       20.280       21.979     1055.095      411.296      483.089        0.303        0.097       63.930       19.497        0.093      333.540        2.921      866.434
10/16/2013  08:21:00       61.550       24.583       10.776       24.535       15.932       18.381      601.983      253.841      337.878        0.285        0.060       66.278       12.964        0.038      333.618        3.052      866.440
10/16/2013  08:22:00       42.373       30.359        6.236       23.781       15.707       16.236      565.558      246.696      263.595        0.192        0.054       52.126        5.533        0.011      333.710        3.202      866.433
10/16/2013  08:23:00       72.276       55.966        3.412       17.229       15.589       15.946      296.839      243.022      254.285        0.458        0.040       91.411        8.788        0.009      333.441        2.757      866.427
10/16/2013  08:24:00       56.231       49.167        8.804       10.192        9.469       11.686      103.881       89.671      136.555        0.299        0.017       74.695        5.041        0.005      333.320        2.557      866.452
10/16/2013  08:25:00       58.777       62.008       16.168       17.089       16.552       18.332      292.027      273.956      336.078        0.423        0.045       85.439       12.005        0.020      333.450        2.773      866.469
10/16/2013  08:26:00       74.338       61.298        0.714       30.409       21.261       17.649      924.703      452.042      311.494        0.549        0.084       96.351       11.074        0.013      333.591        3.005      866.461
10/16/2013  08:27:00       74.217       59.091        3.482       44.097       27.888       24.354     1944.561      777.732      593.097        0.616        0.166       94.868       18.868        0.040      333.655        3.111      866.469
10/16/2013  08:28:00       57.783       41.925        7.947       30.779       33.674       26.927      947.363     1133.947      725.084        0.398        0.140       71.390       14.110        0.039      333.772        3.306      866.485
10/16/2013  08:29:00       81.983       61.124       12.594       24.117       20.377       23.283      581.635      415.230      542.084        0.608        0.077      102.261       14.523        0.020      333.637        3.082      866.514
10/16/2013  08:30:00       93.700       69.415        7.070       24.690       25.203       23.958      609.620      635.181      574.001        0.773        0.091      116.611       10.120        0.008      333.769        3.302      866.518
10/16/2013  08:31:00       94.611       72.942        4.411       41.462       24.204       24.423     1719.101      585.817      596.462        0.860        0.145      119.465       16.814        0.020      333.648        3.101      866.535
10/16/2013  08:32:00       98.582       66.339       15.667       46.017       30.355       31.684     2117.542      921.424     1003.885        0.920        0.202      118.825       28.543        0.058      333.609        3.035      866.556
10/16/2013  08:33:00       62.245       56.120       23.162       35.294       35.750       32.963     1245.648     1278.051     1086.578        0.558        0.181       83.808       23.540        0.079      333.799        3.352      866.576
10/16/2013  08:34:00       90.059       51.217       11.786       41.032       31.875       38.991     1683.641     1016.023     1520.292        0.755        0.211      103.604       26.716        0.066      333.744        3.259      866.582
10/16/2013  08:35:00      108.984       79.202       34.340       46.476       38.201       35.982     2160.025     1459.351     1294.720        1.212        0.246      134.724       24.514        0.033      333.657        3.115      866.573
10/16/2013  08:36:00       89.633       52.594       17.102       31.106       30.430       37.958      967.571      925.990     1440.812        0.721        0.167      103.924       14.117        0.018      333.618        3.050      866.569
10/16/2013  08:37:00       46.285       31.344       23.234       47.164       33.721       20.098     2224.419     1137.077      403.949        0.371        0.188       55.899        9.715        0.030      333.871        3.470      866.575
10/16/2013  08:38:00       10.849      -15.259       23.801       15.015       30.104       23.400      225.461      906.238      547.579        0.130        0.084       18.722       21.167        1.278      333.992        3.672      866.593
10/16/2013  08:39:00        0.460       21.849       34.111       12.986       17.251        9.456      168.643      297.590       89.409        0.110        0.028       21.854        8.350        0.146      334.136        3.910      866.607
10/16/2013  08:40:00       38.113       53.021       36.249       45.333       28.780       25.647     2055.075      828.283      657.764        0.456        0.177       65.298       29.138        0.199      334.014        3.707      866.615
10/16/2013  08:41:00       82.931       67.362       -0.367       28.289       29.563       25.805      800.264      873.962      665.890        0.688        0.117      106.842       11.826        0.012      333.665        3.129      866.604
10/16/2013  08:42:00       70.733       49.561       24.927       26.696       38.380       29.808      712.656     1473.033      888.526        0.558        0.154       86.368       15.424        0.032      333.843        3.423      866.597
10/16/2013  08:43:00       34.636       17.130       30.269       32.171       35.559       31.336     1034.961     1264.451      981.941        0.284        0.164       38.640       29.242        0.573      333.921        3.552      866.615
10/16/2013  08:44:00       83.660       54.939       32.392       48.493       26.080       29.143     2351.566      680.150      849.332        0.747        0.194      100.087       29.306        0.086      333.823        3.389      866.631
10/16/2013  08:45:00       76.332       27.990       12.953       19.543       32.718       17.545      381.934     1070.473      307.820        0.427        0.088       81.302       12.821        0.025      333.635        3.079      866.629
10/16/2013  08:46:00        9.016        7.518        4.698       24.458       25.373       23.500      598.183      643.764      552.273        0.098        0.090       11.740       23.885        4.140      334.141        3.919      866.611
10/16/2013  08:47:00       81.410       56.952       18.623       37.608       31.283       32.401     1414.349      978.614     1049.844        0.683        0.172       99.354       24.772        0.062      333.955        3.609      866.603
10/16/2013  08:48:00       87.187       63.301       54.551       52.978       32.421       37.185     2806.657     1051.149     1382.695        0.991        0.262      107.743       31.172        0.084      333.907        3.529      866.610
10/16/2013  08:49:00       12.205       81.903       94.482       43.920       56.731       33.613     1929.004     3218.462     1129.813        1.103        0.314       82.808       34.831        0.177      334.106        3.860      866.605
10/16/2013  08:50:00       48.156       80.296       63.312       55.036       47.186       40.182     3028.908     2226.548     1614.626        0.982        0.344       93.629       29.018        0.096      334.098        3.845      866.600
10/16/2013  08:51:00       47.100       96.075       75.746       37.043       34.888       28.932     1372.215     1217.170      837.039        1.031        0.171      106.999       14.392        0.018      333.968        3.631      866.609
10/16/2013  08:52:00       44.843       50.086       46.012       37.276       24.723       23.390     1389.463      611.215      547.094        0.459        0.127       67.227       20.384        0.092      334.026        3.726      866.628
10/16/2013  08:53:00       74.974       70.943        1.276       26.872       29.602       32.287      722.092      876.303     1042.456        0.665        0.132      103.218       12.205        0.014      333.974        3.642      866.641
10/16/2013  08:54:00       47.271       43.329       -0.952       39.345       21.049       21.249     1548.002      443.046      451.539        0.328        0.122       64.125       15.914        0.062      334.085        3.825      866.643
10/16/2013  08:55:00       62.902       56.147        2.159       37.341       32.253       25.499     1394.329     1040.237      650.195        0.510        0.154       84.316       21.487        0.065      334.199        4.015      866.646
10/16/2013  08:56:00       75.972       64.028       -6.091       30.129       21.705       19.991      907.730      471.126      399.633        0.584        0.089       99.355        6.830        0.005      334.050        3.768      866.660
10/16/2013  08:57:00       67.464       54.968        9.855       35.681       23.139       25.041     1273.148      535.436      627.067        0.505        0.122       87.023       12.239        0.020      334.192        4.003      866.685
10/16/2013  08:58:00       48.530       33.004       -9.466       25.323       17.515       17.055      641.242      306.787      290.873        0.239        0.062       58.689       11.615        0.039      333.959        3.617      866.721
10/16/2013  08:59:00        1.240       -4.121      -13.066       15.655       20.543       12.515      245.084      422.035      156.629        0.051        0.041        4.304        9.344        4.713      334.195        4.009      866.759
10/16/2013  09:00:00       25.559       31.676       22.320       44.046       25.377       24.599     1940.090      644.008      605.116        0.267        0.159       40.702       14.765        0.132      334.347        4.260      866.764
10/16/2013  09:01:00      105.065       45.935       23.899       40.670       35.321       29.150     1654.018     1247.569      849.715        0.873        0.188      114.667       14.606        0.016      334.158        3.946      866.722
10/16/2013  09:02:00       95.288       94.971       30.091       37.169       32.767       31.582     1381.528     1073.659      997.398        1.123        0.173      134.534        9.403        0.005      334.214        4.040      866.673
10/16/2013  09:03:00       88.102       72.325       13.549       42.996       35.749       41.674     1848.617     1277.990     1736.709        0.902        0.243      113.986       32.741        0.083      334.423        4.386      866.651
10/16/2013  09:04:00       44.483       15.359       45.846       52.469       41.435       30.618     2753.008     1716.859      937.446        0.486        0.270       47.060       35.190        0.559      334.714        4.868      866.653
10/16/2013  09:05:00       33.271       50.257       34.478       36.899       25.604       30.672     1361.563      655.590      940.789        0.389        0.148       60.272       24.525        0.166      334.298        4.179      866.667
10/16/2013  09:06:00       19.605       15.954       17.431       28.712       28.856       26.139      824.381      832.659      683.234        0.164        0.117       25.277       22.232        0.774      334.460        4.448      866.683
10/16/2013  09:07:00      -12.774       26.240       39.847       13.072       25.277       32.524      170.866      638.943     1057.797        0.215        0.093       29.184       23.999        0.676      334.919        5.210      866.680
10/16/2013  09:08:00        9.681       32.404       47.082       31.991       28.475       23.965     1023.451      810.838      574.307        0.288        0.120       33.819       19.543        0.334      334.917        5.205      866.672
10/16/2013  09:09:00       50.811       38.610       -0.725       23.022       20.146       23.645      529.995      405.881      559.077        0.278        0.075       63.816       14.804        0.054      334.622        4.717      866.669
10/16/2013  09:10:00       24.358        0.872       19.462       24.758       24.500       20.674      612.960      600.255      427.396        0.131        0.082       24.374       15.511        0.405      335.051        5.429      866.656
10/16/2013  09:11:00        8.328      -39.713        5.512       29.875       59.416       19.836      892.529     3530.262      393.468        0.325        0.241       40.577       26.827        0.437      334.914        5.201      866.653
10/16/2013  09:12:00       24.050       29.012       52.540       25.219       52.470       25.644      635.983     2753.069      657.637        0.411        0.202       37.684       30.110        0.638      335.014        5.367      866.654
10/16/2013  09:13:00       68.342       59.616       44.965       24.007       18.712       18.783      576.353      350.122      352.791        0.576        0.064       90.690       17.783        0.038      334.430        4.399      866.643
10/16/2013  09:14:00       69.875       54.921       18.746       23.690       19.436       29.704      561.238      377.745      882.301        0.504        0.091       88.875       11.468        0.017      334.404        4.356      866.637
10/16/2013  09:15:00       40.488       43.286      -14.993       17.413       22.492       12.578      303.216      505.898      158.199        0.235        0.048       59.270        7.561        0.016      334.551        4.598      866.627
10/16/2013  09:16:00       34.532       44.880        6.438       27.576       21.923       25.361      760.434      480.633      643.183        0.257        0.094       56.627       13.507        0.057      334.874        5.134      866.614
10/16/2013  09:17:00       47.818       55.318       13.221       25.100       17.985       35.921      630.033      323.444     1290.321        0.388        0.112       73.120       11.357        0.024      334.840        5.079      866.618
10/16/2013  09:18:00       50.508       47.717       13.407       35.163       37.882       29.052     1236.467     1435.013      844.030        0.426        0.176       69.484       19.110        0.076      335.150        5.594      866.610
10/16/2013  09:19:00       44.074       38.905        4.565       33.894       36.314       38.400     1148.814     1318.725     1474.533        0.371        0.197       58.788       23.345        0.158      334.982        5.313      866.597
10/16/2013  09:20:00       48.338       31.250        5.076       21.560       32.647       20.278      464.839     1065.795      411.189        0.264        0.097       57.560       13.149        0.052      335.048        5.424      866.592
10/16/2013  09:21:00       32.682       46.011        9.869       40.866       28.878       28.760     1670.060      833.949      827.122        0.331        0.167       56.437       19.986        0.125      335.161        5.611      866.591
10/16/2013  09:22:00       53.766       75.238       -8.773       26.032       30.298       31.200      677.659      917.998      973.453        0.560        0.128       92.475       23.300        0.063      334.986        5.320      866.598
10/16/2013  09:23:00       41.927       55.002      -13.510       21.414       21.736       19.513      458.573      472.463      380.755        0.314        0.066       69.160       10.871        0.025      334.792        4.999      866.600
10/16/2013  09:24:00       10.686       29.063        6.448       16.378       17.244       14.984      268.250      297.358      224.524        0.090        0.040       30.966       12.375        0.160      335.257        5.771      866.612
10/16/2013  09:25:00       20.592       21.623        8.016       21.777       20.391       25.438      474.256      415.778      647.088        0.125        0.077       29.859       12.834        0.185      335.253        5.764      866.617
10/16/2013  09:26:00       23.216       26.983       14.705       38.433       25.686       20.308     1477.078      659.783      412.422        0.202        0.127       35.596       12.547        0.124      335.425        6.051      866.614
10/16/2013  09:27:00       73.668       64.532        4.711       36.243       32.423       24.304     1313.544     1051.282      590.662        0.628        0.148       97.935       15.759        0.026      334.971        5.295      866.615
10/16/2013  09:28:00       44.951       15.552       20.396       37.260       31.248       28.048     1388.290      976.453      786.677        0.291        0.158       47.565       21.688        0.208      335.196        5.669      866.625
10/16/2013  09:29:00       -4.744       33.619       18.256       22.812       20.941       19.769      520.376      438.528      390.806        0.142        0.067       33.952        6.887        0.041      335.722        6.546      866.633
10/16/2013  09:30:00       17.608       76.130        4.353       40.105       40.554       31.035     1608.398     1644.665      963.172        0.517        0.211       78.140       24.435        0.098      335.527        6.221      866.629
10/16/2013  09:31:00        4.515       80.462       -4.639       28.654       40.846       25.924      821.059     1668.407      672.031        0.484        0.158       80.588       20.604        0.065      335.448        6.091      866.601
10/16/2013  09:32:00      -10.434       74.735       -1.731       23.028       49.103       22.956      530.275     2411.150      526.988        0.458        0.173       75.460       21.885        0.084      335.481        6.144      866.592
10/16/2013  09:33:00      -55.797       71.297       -1.390       25.300       30.213       26.128      640.106      912.852      682.648        0.522        0.112       90.535       20.422        0.051      335.228        5.723      866.598
10/16/2013  09:34:00      -29.278       22.261       12.221       22.608       18.640       20.364      511.133      347.436      414.684        0.139        0.064       36.780       13.633        0.137      335.473        6.130      866.599
10/16/2013  09:35:00      -26.015       36.210        2.693       19.646       26.467       21.266      385.972      700.510      452.232        0.177        0.077       44.587       18.172        0.166      335.551        6.260      866.590
10/16/2013  09:36:00      -13.623       37.538        7.852       12.596       23.563       20.281      158.651      555.209      411.314        0.139        0.056       39.934       10.787        0.073      335.817        6.703      866.586
10/16/2013  09:37:00      -18.045       14.388        9.040       13.564       23.450       19.347      183.993      549.915      374.293        0.086        0.055       23.079       14.973        0.421      335.843        6.747      866.583
10/16/2013  09:38:00        1.976       14.413       16.413       13.451       14.759       18.412      180.922      217.821      338.986        0.061        0.037       14.548       11.304        0.604      336.023        7.047      866.565
10/16/2013  09:39:00       -8.863       23.968       12.277       21.289       11.028       16.293      453.219      121.610      265.455        0.082        0.042       25.554        7.752        0.092      335.799        6.674      866.538
10/16/2013  09:40:00      -12.238       19.695       48.571       19.844       25.957       22.756      393.776      673.775      517.820        0.224        0.079       23.188       19.485        0.706      335.915        6.866      866.527
10/16/2013  09:41:00       11.482       39.404       56.438       27.225       22.944       18.539      741.215      526.437      343.708        0.324        0.081       41.043        9.173        0.050      335.853        6.764      866.530
10/16/2013  09:42:00       67.949       66.379       19.137       19.027        9.918       25.578      362.040       98.373      654.256        0.525        0.056       94.991       11.395        0.014      335.258        5.773      866.528
10/16/2013  09:43:00       45.040       56.370        4.185       13.092       10.995       14.782      171.400      120.900      218.505        0.287        0.026       72.154        5.179        0.005      335.274        5.798      866.519
10/16/2013  09:44:00       16.151       37.956       -7.171       33.338       22.961       14.961     1111.436      527.192      223.822        0.181        0.093       41.249        8.550        0.043      335.584        6.314      866.520
10/16/2013  09:45:00       -3.347       36.480       -6.679       33.680       34.301       18.940     1134.344     1176.556      358.721        0.203        0.133       36.633        7.674        0.044      335.937        6.904      866.512
10/16/2013  09:46:00       14.257        0.391       27.971       44.550       24.780       33.922     1984.717      614.055     1150.685        0.237        0.187       14.262       35.954        6.356      335.779        6.643      866.508
10/16/2013  09:47:00       89.990       58.895       25.414       19.784       14.178       24.735      391.408      201.024      611.837        0.671        0.060      107.549        6.905        0.004      335.466        6.119      866.504
10/16/2013  09:48:00       81.009       63.653       25.647       35.678       24.865       30.057     1272.952      618.286      903.417        0.703        0.140      103.025       23.262        0.051      335.627        6.387      866.506
10/16/2013  09:49:00       56.591       54.302       41.945       49.633       46.720       41.334     2463.419     2182.735     1708.476        0.713        0.318       78.430       35.497        0.205      335.997        7.004      866.515
10/16/2013  09:50:00       53.669       65.587       50.768       36.160       34.624       36.760     1307.573     1198.799     1351.291        0.681        0.193       84.747       25.464        0.090      335.929        6.890      866.511
10/16/2013  09:51:00       36.714       20.244       24.562       40.509       21.661       22.557     1640.958      469.203      508.839        0.249        0.131       41.925       16.385        0.153      336.123        7.213      866.501
10/16/2013  09:52:00       33.723       45.552       18.701       20.971       32.421       32.109      439.766     1051.152     1031.018        0.304        0.126       56.676       13.710        0.059      336.056        7.101      866.504
10/16/2013  09:53:00        8.146       35.254        1.618       25.882       28.517       23.082      669.894      813.226      532.802        0.166        0.101       36.183       16.650        0.212      336.373        7.631      866.506
10/16/2013  09:54:00        5.284       44.667        8.425       33.024       29.688       26.583     1090.599      881.365      706.664        0.239        0.134       44.979       18.025        0.161      336.454        7.766      866.504
10/16/2013  09:55:00        4.453       40.182        9.989       28.271       29.794       22.508      799.275      887.690      506.603        0.196        0.110       40.428       13.074        0.105      336.684        8.151      866.493
10/16/2013  09:56:00       44.849       46.696       12.767       37.350       41.440       36.471     1395.017     1717.277     1330.109        0.440        0.222       64.745       27.901        0.186      336.451        7.761      866.471
10/16/2013  09:57:00       37.537       49.494       17.283       43.808       59.799       44.075     1919.168     3575.899     1942.636        0.580        0.372       62.119       40.747        0.430      336.486        7.820      866.438
10/16/2013  09:58:00       81.900       71.787        3.190       44.687       34.458       30.257     1996.925     1187.352      915.481        0.798        0.205      108.908       19.111        0.031      336.359        7.608      866.417
10/16/2013  09:59:00       28.295       26.372       35.097       50.113       35.209       36.672     2511.360     1239.653     1344.862        0.391        0.255       38.680       20.030        0.268      337.012        8.699      866.425
10/16/2013  10:00:00       32.321       50.951       71.865       54.068       48.895       37.758     2923.402     2390.681     1425.670        0.777        0.337       60.338       36.075        0.357      336.436        7.736      866.438
10/16/2013  10:01:00       99.503       88.315       66.676       33.856       32.536       35.766     1146.243     1058.576     1279.209        1.281        0.174      133.043       30.227        0.052      336.077        7.135      866.444
10/16/2013  10:02:00       97.039       77.143       35.325       28.202       27.402       35.354      795.327      750.896     1249.876        0.971        0.140      123.966       21.072        0.029      336.007        7.020      866.442
10/16/2013  10:03:00       75.915       65.400       32.204       27.182       26.867       30.664      738.843      721.822      940.299        0.674        0.120      100.201       22.611        0.051      336.011        7.025      866.431
10/16/2013  10:04:00       80.324       69.205       29.262       21.635       17.199       23.368      468.060      295.819      546.061        0.670        0.065      106.024       11.807        0.012      336.017        7.036      866.421
10/16/2013  10:05:00       43.093       67.221       10.243       51.666       33.505       34.133     2669.420     1122.561     1165.089        0.572        0.248       79.847       25.061        0.099      336.355        7.602      866.414
10/16/2013  10:06:00       -2.161       42.170        7.262       35.205       62.500       34.034     1239.366     3906.249     1158.341        0.407        0.315       42.226       36.471        0.746      336.732        8.231      866.419
10/16/2013  10:07:00       11.753        4.149        8.658       36.365       40.859       23.461     1322.426     1669.432      550.428        0.189        0.177       12.464        9.941        0.636      336.860        8.446      866.412
10/16/2013  10:08:00       -5.143       46.026       65.620       41.369       65.222       44.923     1711.384     4253.896     2018.114        0.722        0.399       46.313       40.790        0.776      337.068        8.794      866.402
10/16/2013  10:09:00       23.827       57.317       71.828       32.165       53.495       40.607     1034.570     2861.687     1648.966        0.728        0.277       62.072       27.450        0.196      336.796        8.338      866.408
10/16/2013  10:10:00       38.371      -36.497        5.042       21.976       34.004       33.814      482.938     1156.248     1143.385        0.281        0.139       52.956       22.471        0.180      336.511        7.861      866.421
10/16/2013  10:11:00       18.131       -8.314       -9.855       34.488       25.104       21.817     1189.417      630.201      475.980        0.139        0.115       19.946       12.481        0.392      336.775        8.302      866.419
10/16/2013  10:12:00        3.255       37.464       61.410       40.770       47.907       21.463     1662.185     2295.042      460.669        0.480        0.221       37.605       23.612        0.394      337.138        8.911      866.419
10/16/2013  10:13:00       97.536       81.859       29.886       36.669       26.825       29.257     1344.613      719.574      855.970        1.001        0.146      127.334       10.149        0.006      336.336        7.569      866.395
10/16/2013  10:14:00       52.771       59.763       34.027       32.109       33.397       31.650     1030.983     1115.359     1001.708        0.533        0.157       79.727       24.869        0.097      336.763        8.283      866.383
10/16/2013  10:15:00       62.159       55.214       45.526       29.779       27.250       33.441      886.761      742.558     1118.290        0.587        0.137       83.141       23.650        0.081      336.637        8.073      866.387
10/16/2013  10:16:00      106.403       78.880       26.992       42.356       34.537       35.420     1794.029     1192.780     1254.599        1.126        0.212      132.452       17.777        0.018      336.373        7.632      866.395
10/16/2013  10:17:00       67.320       47.143       -8.848       34.534       32.086       24.406     1192.606     1029.507      595.656        0.482        0.141       82.185       22.942        0.078      336.582        7.982      866.385
10/16/2013  10:18:00       64.901       28.029        6.908       59.238       42.549       24.526     3509.094     1810.430      601.520        0.548        0.296       70.695       16.616        0.055      336.865        8.454      866.377
10/16/2013  10:19:00       66.882       44.337       26.803       66.161       38.859       41.310     4377.287     1509.988     1706.497        0.737        0.380       80.243       23.843        0.088      337.133        8.901      866.377
10/16/2013  10:20:00      112.891       77.286        6.133       40.582       35.300       31.093     1646.895     1246.064      966.777        1.131        0.193      136.812       23.197        0.029      336.482        7.814      866.377
10/16/2013  10:21:00       73.572       65.589        5.961       35.332       20.686       23.900     1248.385      427.909      571.225        0.600        0.112       98.563       15.330        0.024      336.579        7.975      866.367
10/16/2013  10:22:00       68.566       57.207        0.083       37.002       27.230       27.193     1369.177      741.484      739.464        0.541        0.143       89.297       14.739        0.027      336.922        8.549      866.353
10/16/2013  10:23:00       58.189       36.737       13.840       33.267       28.306       34.677     1106.696      801.249     1202.463        0.402        0.156       68.816       22.004        0.102      336.872        8.466      866.336
10/16/2013  10:24:00      117.214       89.212       12.315       49.847       30.019       32.545     2484.767      901.143     1059.156        1.315        0.222      147.302       20.170        0.019      336.550        7.927      866.323
10/16/2013  10:25:00       59.428       39.797       27.011       60.343       33.794       31.090     3641.245     1142.055      966.582        0.580        0.287       71.523       26.110        0.133      337.026        8.723      866.314
10/16/2013  10:26:00       44.174       26.405       28.570       45.344       41.299       29.834     2056.072     1705.588      890.046        0.406        0.233       51.464       26.508        0.265      337.280        9.148      866.325
10/16/2013  10:27:00       52.608       64.805       50.555       62.024       40.124       42.422     3847.035     1609.950     1799.642        0.839        0.363       83.470       38.206        0.210      337.343        9.253      866.337
10/16/2013  10:28:00      105.928       84.192       19.718       37.005       27.045       32.390     1369.373      731.411     1049.131        1.092        0.157      135.311       13.364        0.010      336.762        8.280      866.353
10/16/2013  10:29:00       82.207       67.641       20.861       32.433       26.218       34.758     1051.878      687.365     1208.095        0.736        0.147      106.458       24.717        0.054      336.831        8.396      866.364
10/16/2013  10:30:00        4.322       14.541       30.038       42.686       40.647       31.971     1822.124     1652.155     1022.122        0.281        0.225       15.169       21.181        1.950      337.514        9.539      866.346
10/16/2013  10:31:00       -5.944      -54.440        2.335       28.215       45.981       33.601      796.103     2114.230     1129.020        0.352        0.202       54.763       34.901        0.406      337.369        9.298      866.327
10/16/2013  10:32:00      -56.418      -28.414        0.084       30.745       46.173       28.659      945.234     2131.984      821.366        0.394        0.195       63.169       26.286        0.173      336.837        8.407      866.306
10/16/2013  10:33:00       -5.820      -19.443       -9.334       27.625       33.672       27.946      763.166     1133.832      780.963        0.159        0.134       20.295       17.616        0.753      337.302        9.185      866.286
10/16/2013  10:34:00       71.606       43.140       38.272       63.286       45.688       38.270     4005.180     2087.434     1464.555        0.800        0.378       83.597       40.581        0.236      337.261        9.117      866.286
10/16/2013  10:35:00      102.067       16.471       42.004       44.588       55.636       43.507     1988.074     3095.344     1892.818        0.971        0.349      103.388       41.762        0.163      336.870        8.462      866.290
10/16/2013  10:36:00       15.626       55.891       98.614       40.032       49.942       30.884     1602.599     2494.232      953.815        0.907        0.253       58.034       23.630        0.166      337.409        9.363      866.307
10/16/2013  10:37:00       62.254       26.025       58.854       49.752       59.313       32.125     2475.222     3517.992     1031.991        0.752        0.351       67.475       34.468        0.261      337.407        9.361      866.319
10/16/2013  10:38:00       45.997       51.774       84.357       53.117       68.474       49.694     2821.448     4688.645     2469.493        1.094        0.499       69.255       53.158        0.589      337.356        9.275      866.313
10/16/2013  10:39:00       71.759       76.192       69.239       84.805       47.277       49.714     7191.848     2235.070     2471.468        1.382        0.595      104.664       52.050        0.247      337.226        9.057      866.281
10/16/2013  10:40:00       95.085       89.966        8.168       50.923       23.266       34.064     2593.155      541.328     1160.369        1.075        0.215      130.901       21.700        0.027      337.101        8.848      866.274
10/16/2013  10:41:00       75.335       51.046       -7.193       41.943       49.828       28.443     1759.187     2482.838      809.003        0.669        0.253       91.000       25.806        0.080      337.191        9.000      866.270
10/16/2013  10:42:00       89.937       64.813       17.152       34.621       31.040       36.874     1198.610      963.493     1359.720        0.805        0.176      110.857       18.372        0.027      337.533        9.571      866.278
10/16/2013  10:43:00       65.356       28.109       27.161       37.413       40.155       35.880     1399.703     1612.441     1287.350        0.505        0.215       71.144       19.212        0.073      337.501        9.518      866.266
10/16/2013  10:44:00       45.205       61.797       43.589       46.439       33.913       36.282     2156.586     1150.097     1316.401        0.619        0.231       76.566       22.029        0.083      337.679        9.815      866.256
10/16/2013  10:45:00       16.103        9.930       42.043       35.259       25.479       18.059     1243.216      649.194      326.134        0.217        0.111       18.919       12.647        0.447      338.081       10.490      866.266
10/16/2013  10:46:00        7.632       10.545       41.487       21.710       30.626       21.728      471.324      937.983      472.085        0.189        0.094       13.017       21.772        2.797      338.365       10.966      866.265
10/16/2013  10:47:00       46.433       -9.824       24.109       43.871       59.158       39.818     1924.636     3499.656     1585.447        0.492        0.350       47.461       24.755        0.272      337.785        9.995      866.256
10/16/2013  10:48:00       -2.220       31.369       46.447       38.964       44.558       39.341     1518.167     1985.398     1547.752        0.410        0.253       31.447       31.224        0.986      338.180       10.657      866.249
10/16/2013  10:49:00       88.558       81.371       38.335       70.311       48.048       47.734     4943.682     2308.584     2278.491        1.273        0.477      120.266       38.348        0.102      337.657        9.778      866.255
10/16/2013  10:50:00       32.056       57.052       28.821       53.299       55.694       55.905     2840.752     3101.868     3125.380        0.709        0.453       65.441       34.303        0.275      337.716        9.878      866.240
10/16/2013  10:51:00       88.585      -90.256       23.038       38.562       65.029       46.590     1487.032     4228.787     2170.636        1.220        0.394      126.466       46.837        0.137      337.408        9.363      866.237
10/16/2013  10:52:00       43.703       57.069       49.013       56.446       34.595       50.385     3186.171     1196.801     2538.693        0.724        0.346       71.881       39.548        0.303      337.801       10.021      866.223
10/16/2013  10:53:00      101.949       78.348       25.165       51.641       31.992       27.014     2666.802     1023.514      729.736        1.079        0.221      128.576       20.097        0.024      337.373        9.304      866.231
10/16/2013  10:54:00       79.942       95.342       91.626       68.009       45.058       51.449     4625.205     2030.236     2646.991        1.659        0.465      124.422       41.771        0.113      337.438        9.411      866.225
10/16/2013  10:55:00       83.422       71.692       40.951       30.437       21.096       29.789      926.421      445.023      887.373        0.802        0.113      109.996       10.278        0.009      337.123        8.883      866.231
10/16/2013  10:56:00       13.480       18.510       19.810       27.032       17.639       22.194      730.756      311.129      492.565        0.123        0.077       22.898       17.159        0.562      337.497        9.511      866.241
10/16/2013  10:57:00        0.978       44.655       -3.193       24.295       28.927       22.163      590.254      836.746      491.206        0.196        0.096       44.666       15.398        0.119      337.396        9.342      866.223
10/16/2013  10:58:00      -19.708       37.101       -2.217       49.214       26.447       24.795     2422.008      699.440      614.805        0.275        0.187       42.010       24.938        0.352      337.567        9.629      866.230
10/16/2013  10:59:00       75.355       58.590        5.016       30.136       29.083       27.464      908.181      845.808      754.259        0.582        0.125       95.453       18.284        0.037      337.536        9.575      866.216
10/16/2013  11:00:00      129.105       63.657       18.112       61.249       46.211       43.516     3751.461     2135.472     1893.639        1.441        0.389      143.946       32.291        0.050      337.486        9.492      866.195
10/16/2013  11:01:00      122.033       84.583       11.192       52.879       39.956       29.903     2796.207     1596.495      894.216        1.373        0.264      148.480       26.374        0.032      337.291        9.165      866.169
10/16/2013  11:02:00      126.084       93.810        3.091       49.885       42.726       42.044     2488.500     1825.538     1767.676        1.539        0.304      157.154       18.101        0.013      337.490        9.498      866.144
10/16/2013  11:03:00      127.040       97.968       12.771       53.766       37.563       33.749     2890.750     1411.007     1139.002        1.567        0.272      160.427       33.028        0.042      337.233        9.067      866.113
10/16/2013  11:04:00      115.980       87.418       15.192       43.337       32.772       36.783     1878.061     1073.996     1353.009        1.281        0.215      145.235       14.891        0.011      337.418        9.379      866.103
10/16/2013  11:05:00      129.754      102.098        5.558       49.656       33.457       33.603     2465.763     1119.349     1129.160        1.600        0.236      165.106       19.701        0.014      337.420        9.382      866.110
10/16/2013  11:06:00      119.315       82.408       19.418       22.973       30.333       23.755      527.769      920.084      564.284        1.171        0.101      145.008       14.588        0.010      337.259        9.112      866.092
10/16/2013  11:07:00      128.015       73.283       34.416       84.151       48.083       45.045     7081.317     2311.943     2029.030        1.718        0.571      147.506       38.688        0.069      337.631        9.736      866.083
10/16/2013  11:08:00      130.716      109.628       32.954       45.680       37.901       44.591     2086.671     1436.513     1988.342        1.785        0.276      170.602       14.101        0.007      337.628        9.729      866.075
10/16/2013  11:09:00       54.971       58.107       -7.662       40.080       29.107       27.380     1606.401      847.202      749.675        0.483        0.160       79.989       15.681        0.038      337.555        9.608      866.083
10/16/2013  11:10:00        0.187       48.292        2.824       23.514       35.124       27.392      552.906     1233.674      750.347        0.244        0.127       48.292       17.724        0.135      337.743        9.922      866.091
10/16/2013  11:11:00       -8.433       -8.869       -9.105       22.169       16.036       13.965      491.477      257.139      195.017        0.059        0.047       12.238        8.929        0.532      337.767        9.963      866.075
10/16/2013  11:12:00       19.167       29.171       -4.038       33.402       26.043       20.738     1115.721      678.236      430.072        0.173        0.111       34.905       16.531        0.224      337.977       10.315      866.055
10/16/2013  11:13:00       87.891       47.403       10.142       49.428       34.424       34.551     2443.164     1185.019     1193.786        0.745        0.241       99.860       29.145        0.085      337.815       10.045      866.026
10/16/2013  11:14:00       81.285       62.815       15.285       57.264       45.164       51.673     3279.175     2039.815     2670.142        0.939        0.399      102.728       20.966        0.042      337.815       10.044      866.019
10/16/2013  11:15:00       80.301       58.644        9.769       43.433       35.932       32.139     1886.463     1291.114     1032.885        0.710        0.211       99.435       16.138        0.026      337.976       10.315      865.998
10/16/2013  11:16:00       55.637       55.640        4.498       37.689       35.812       28.962     1420.445     1282.485      838.798        0.488        0.177       78.685       23.392        0.088      337.844       10.093      865.997
10/16/2013  11:17:00       42.089       54.205       34.580       48.759       34.391       31.791     2377.449     1182.765     1010.638        0.524        0.229       68.627       29.104        0.180      338.292       10.844      865.991
10/16/2013  11:18:00       32.226       46.739       49.178       40.307       38.676       31.122     1624.650     1495.846      968.553        0.486        0.204       56.772       25.152        0.196      338.577       11.324      865.986
10/16/2013  11:19:00       57.042       68.689       43.830       53.565       44.454       47.126     2869.213     1976.189     2220.839        0.848        0.353       89.286       36.502        0.167      338.087       10.500      865.973
10/16/2013  11:20:00       81.086       19.445       11.636       37.867       54.869       40.177     1433.940     3010.592     1614.186        0.657        0.303       83.385       28.750        0.119      337.879       10.152      865.962
10/16/2013  11:21:00       52.429       34.270       48.731       39.180       27.349       30.130     1535.065      747.988      907.817        0.474        0.160       62.636       21.756        0.121      338.306       10.867      865.949
10/16/2013  11:22:00        1.939        6.623       22.691       13.702       24.930       15.568      187.755      621.497      242.352        0.081        0.053        6.901        8.165        1.400      338.826       11.742      865.939
10/16/2013  11:23:00       26.354       37.946       42.453       34.505       42.194       40.898     1190.595     1780.373     1672.673        0.429        0.232       46.200       28.948        0.393      338.834       11.755      865.934
10/16/2013  11:24:00       58.180      -37.907       38.146       72.935      106.107       63.349     5319.561    11258.644     4013.071        1.343        1.030       69.439       77.440        1.244      338.714       11.552      865.912
10/16/2013  11:25:00      121.448     -135.784      -15.855       50.047       58.587       36.459     2504.682     3432.417     1329.266        2.035        0.363      182.173       24.071        0.017      338.197       10.685      865.929
10/16/2013  11:26:00       39.161       -9.403       64.866       47.533       95.393       53.266     2259.355     9099.777     2837.276        1.001        0.710       40.274       69.111        2.945      338.274       10.814      865.932
10/16/2013  11:27:00       45.244      111.805      101.108       48.553       42.585       39.563     2357.441     1813.457     1565.221        1.525        0.287      120.613       33.833        0.079      338.140       10.590      865.925
10/16/2013  11:28:00       45.440       62.027       72.869       34.448       41.453       28.470     1186.696     1718.346      810.554        0.747        0.186       76.890       25.570        0.111      338.281       10.826      865.911
10/16/2013  11:29:00       30.583       46.537       31.208       37.926       26.461       35.658     1438.398      700.172     1271.524        0.374        0.171       55.686       21.569        0.150      338.319       10.890      865.905
10/16/2013  11:30:00       65.561       63.476       55.584       57.719       49.245       50.704     3331.515     2425.077     2570.862        0.987        0.416       91.255       41.977        0.212      338.577       11.324      865.899
10/16/2013  11:31:00       21.345       43.833       74.522       30.989       40.856       22.063      960.346     1669.227      486.764        0.552        0.156       48.753        9.751        0.040      339.122       12.240      865.883
10/16/2013  11:32:00       38.356      -21.009       39.495       29.401       63.045       36.367      864.392     3974.662     1322.591        0.482        0.308       43.733       42.341        0.937      338.431       11.078      865.880
10/16/2013  11:33:00       27.102      -84.836       17.742       31.592       25.805       21.478      998.079      665.883      461.304        0.519        0.106       89.060       18.077        0.041      338.415       11.052      865.844
10/16/2013  11:34:00        6.496      -21.487       22.194       35.950       20.656       20.834     1292.373      426.691      434.060        0.157        0.108       22.447       16.449        0.537      338.843       11.770      865.842
10/16/2013  11:35:00       15.640        2.772       12.192       15.167       17.086       14.316      230.033      291.934      204.945        0.056        0.036       15.884        8.211        0.267      339.021       12.069      865.833
10/16/2013  11:36:00       40.805       58.088        8.286       37.625       24.975       23.918     1415.628      623.763      572.068        0.386        0.131       70.987       16.046        0.051      338.910       11.882      865.825
10/16/2013  11:37:00      -11.099       72.125       -3.697       28.847       38.728       21.007      832.152     1499.850      441.301        0.406        0.139       72.974       15.399        0.045      338.818       11.728      865.806
10/16/2013  11:38:00       44.621       57.188       37.891       72.033       45.171       36.055     5188.794     2040.380     1299.969        0.761        0.426       72.536       36.334        0.251      339.400       12.708      865.797
10/16/2013  11:39:00      101.310      107.083       20.141       44.153       39.709       36.983     1949.519     1576.794     1367.730        1.351        0.245      147.413       24.636        0.028      338.663       11.467      865.792
10/16/2013  11:40:00       71.401       84.917        3.414       38.980       39.035       38.005     1519.456     1523.757     1444.399        0.840        0.224      110.946       23.694        0.046      338.611       11.380      865.790
10/16/2013  11:41:00       38.500       72.033       17.183       38.365       48.853       45.867     1471.844     2386.622     2103.791        0.646        0.298       81.677       33.834        0.172      338.829       11.747      865.753
10/16/2013  11:42:00       39.739       37.307       15.307       50.077       33.073       46.898     2507.714     1093.839     2199.438        0.450        0.290       54.507       45.337        0.692      338.768       11.645      865.745
10/16/2013  11:43:00      -25.135      -23.448      -16.458       39.142       59.261       19.832     1532.065     3511.809      393.308        0.344        0.272       34.374       16.125        0.220      338.698       11.527      865.739
10/16/2013  11:44:00       56.312       -3.866       26.048       33.311       81.412       46.416     1109.625     6627.857     2154.409        0.688        0.495       56.444       51.315        0.827      338.995       12.026      865.732
10/16/2013  11:45:00       62.959       11.031        6.436       64.905       25.052       21.851     4212.710      627.598      477.471        0.472        0.266       63.918       16.848        0.069      338.893       11.853      865.729
10/16/2013  11:46:00       13.685       39.707       34.442       35.915       35.853       29.312     1289.902     1285.448      859.191        0.319        0.172       41.999       14.520        0.120      339.483       12.850      865.717
10/16/2013  11:47:00       53.249       30.215       44.885       31.902       36.131       30.544     1017.734     1305.438      932.943        0.451        0.163       61.224       19.299        0.099      339.220       12.404      865.714
10/16/2013  11:48:00       54.369       42.758        1.764       44.432       40.984       38.392     1974.188     1679.703     1473.981        0.496        0.256       69.168       26.134        0.143      338.807       11.709      865.720
10/16/2013  11:49:00        4.213       68.053        0.756       45.425       55.345       29.528     2063.407     3063.022      871.927        0.532        0.300       68.183       31.274        0.210      339.243       12.444      865.719
10/16/2013  11:50:00       14.892       26.789       56.446       30.253       30.043       22.854      915.254      902.561      522.327        0.323        0.117       30.650       12.792        0.174      339.625       13.089      865.722
10/16/2013  11:51:00       12.928       35.870       19.919       18.805       24.337       27.899      353.629      592.271      778.376        0.179        0.086       38.129       13.077        0.118      339.027       12.080      865.715
10/16/2013  11:52:00       59.390       38.611       21.257       47.860       41.008       29.578     2290.590     1681.628      874.848        0.516        0.242       70.838       21.527        0.092      339.113       12.225      865.709
10/16/2013  11:53:00       65.507        5.529       51.009       64.394       82.587       43.991     4146.525     6820.628     1935.200        0.991        0.645       65.740       51.068        0.603      339.266       12.482      865.709
10/16/2013  11:54:00      -21.482      -49.043        3.667       25.587       44.660       21.226      654.700     1994.489      450.545        0.299        0.155       53.542        5.715        0.011      338.798       11.695      865.711
10/16/2013  11:55:00       26.680       28.137       30.652       43.183       38.297       33.115     1864.799     1466.674     1096.581        0.343        0.221       38.775       25.193        0.422      339.416       12.734      865.701
10/16/2013  11:56:00      -14.682       13.149       27.314       32.610       48.543       30.055     1063.425     2356.410      903.325        0.273        0.216       19.709       19.300        0.959      339.825       13.425      865.683
10/16/2013  11:57:00       34.611       74.403       99.372       65.102       53.843       57.077     4238.314     2899.081     3257.800        1.350        0.520       82.059       44.063        0.288      339.318       12.569      865.685
10/16/2013  11:58:00       66.236       10.140       25.379       37.324       45.299       43.315     1393.046     2052.006     1876.215        0.523        0.266       67.008       31.829        0.226      338.942       11.937      865.699
10/16/2013  11:59:00       52.253      -27.419        4.350       38.376       39.590       28.930     1472.684     1567.368      836.970        0.369        0.194       59.010       31.337        0.282      339.006       12.045      865.708
10/16/2013  12:00:00      -16.889       14.118        7.147       22.589       26.853       23.431      510.275      721.098      549.030        0.116        0.089       22.013       16.351        0.552      339.135       12.260      865.690
10/16/2013  12:01:00      -56.633      -11.562        3.637       29.442       23.494       21.307      866.834      551.968      454.007        0.261        0.094       57.801       21.339        0.136      339.391       12.691      865.684
10/16/2013  12:02:00        0.923        5.356       41.225       24.732       34.300       26.238      611.664     1176.464      688.427        0.210        0.124        5.435       27.423       25.460      339.889       13.532      865.661
10/16/2013  12:03:00        8.743        8.625       78.818       33.064       65.285       32.013     1093.202     4262.151     1024.831        0.637        0.319       12.281       36.388        8.779      339.589       13.026      865.633
10/16/2013  12:04:00       83.899       76.351       33.179       64.939       60.861       48.429     4217.035     3704.092     2345.327        1.212        0.513      113.440       30.699        0.073      339.330       12.590      865.609
10/16/2013  12:05:00       99.521       77.050       47.502       57.366       53.534       48.127     3290.849     2865.837     2316.239        1.328        0.424      125.862       38.838        0.095      339.220       12.403      865.589
10/16/2013  12:06:00      109.756       79.191       29.616       47.773       33.361       37.634     2282.216     1112.962     1416.310        1.200        0.241      135.342       30.824        0.052      338.838       11.763      865.587
10/16/2013  12:07:00       98.896       -1.372       17.295       45.047       85.942       41.495     2029.224     7386.111     1721.833        1.061        0.557       98.906       50.932        0.265      338.961       11.967      865.569
10/16/2013  12:08:00       77.926       57.568       43.711       50.051       48.866       37.964     2505.150     2387.898     1441.265        0.881        0.317       96.884       32.478        0.112      339.107       12.215      865.568
10/16/2013  12:09:00       78.862       48.617       38.285       31.387       36.360       35.726      985.129     1322.044     1276.359        0.682        0.179       92.643       25.249        0.074      339.022       12.072      865.564
10/16/2013  12:10:00       15.052      -44.657       10.452       21.916       18.236       24.928      480.328      332.542      621.429        0.188        0.072       47.125       19.255        0.167      339.306       12.549      865.543
10/16/2013  12:11:00       -1.184      -16.403        6.246       22.064       38.014       21.088      486.834     1445.074      444.707        0.134        0.119       16.446       15.167        0.851      339.545       12.951      865.520
10/16/2013  12:12:00       -2.079       34.040        4.176       23.922       27.144       23.119      572.281      736.795      534.490        0.151        0.092       34.103       14.560        0.182      339.809       13.398      865.503
10/16/2013  12:13:00       -8.919       -1.873       50.829       18.585       38.975       21.998      345.399     1519.081      483.896        0.251        0.117        9.114       12.930        2.013      340.421       14.431      865.498
10/16/2013  12:14:00       31.963       16.780       61.838       36.314       75.211       41.710     1318.675     5656.626     1739.758        0.692        0.436       36.100       44.386        1.512      339.753       13.303      865.485
10/16/2013  12:15:00       33.691       39.657       32.369       56.045       52.769       46.758     3141.078     2784.564     2186.295        0.593        0.406       52.036       28.289        0.296      339.677       13.175      865.464
10/16/2013  12:16:00       28.286       32.003       19.566       38.843       33.427       27.404     1508.800     1117.370      750.991        0.279        0.169       42.711        9.589        0.050      339.732       13.268      865.457
10/16/2013  12:17:00       53.062       29.008        1.582       43.869       24.788       19.987     1924.469      614.456      399.463        0.330        0.147       60.473        3.679        0.004      339.471       12.827      865.435
10/16/2013  12:18:00       25.181       21.211       25.377       28.676       35.591       26.454      822.311     1266.718      699.806        0.226        0.139       32.924       21.061        0.409      339.884       13.524      865.428
10/16/2013  12:19:00       36.129       33.921       83.892       41.806       38.012       34.283     1747.707     1444.914     1175.316        0.693        0.218       49.557       20.754        0.175      340.011       13.737      865.424
10/16/2013  12:20:00       31.191      -26.952        7.948       40.103       43.560       28.490     1608.283     1897.480      811.682        0.304        0.216       41.222       24.257        0.346      339.699       13.212      865.425
10/16/2013  12:21:00       66.870      -36.378       -5.292       38.411       26.930       26.342     1475.382      725.227      693.914        0.436        0.145       76.125       19.979        0.069      339.488       12.856      865.411
10/16/2013  12:22:00       51.098     -117.834       -6.524       39.309       42.338       28.320     1545.178     1792.520      802.048        1.034        0.207      128.436       21.845        0.029      339.522       12.913      865.390
10/16/2013  12:23:00       56.891       25.584       64.801       75.255       97.628       41.169     5663.363     9531.197     1694.850        1.249        0.844       62.379       43.157        0.479      339.703       13.218      865.355
10/16/2013  12:24:00      133.089       75.475       22.769       47.247       35.744       48.012     2232.317     1277.641     2305.190        1.487        0.291      153.000       15.658        0.010      339.351       12.626      865.339
10/16/2013  12:25:00       39.735       66.971       38.874       48.267       44.519       49.642     2329.682     1981.933     2464.298        0.717        0.339       77.872       35.370        0.206      339.786       13.358      865.308
10/16/2013  12:26:00       14.617       98.350      110.581       47.951       71.299       52.666     2299.251     5083.599     2773.703        1.613        0.508       99.430       47.440        0.228      339.852       13.468      865.286
10/16/2013  12:27:00       46.040       68.649       77.223       38.343       52.341       36.321     1470.180     2739.560     1319.250        0.916        0.276       82.658       37.610        0.207      339.714       13.237      865.283
10/16/2013  12:28:00       30.812       35.443        5.000       39.611       22.851       41.247     1569.004      522.154     1701.310        0.301        0.190       46.963       19.230        0.168      339.493       12.864      865.279
10/16/2013  12:29:00      -30.133       48.788      -29.181       17.149       22.229       15.624      294.072      494.127      244.111        0.259        0.052       57.343       13.832        0.058      339.264       12.478      865.267
10/16/2013  12:30:00      -16.745       30.661       -9.104       18.660       34.994       18.352      348.179     1224.614      336.783        0.161        0.095       34.935       18.828        0.290      339.679       13.179      865.243
10/16/2013  12:31:00        1.885        4.172        0.339       15.096       26.591       14.961      227.888      707.075      223.838        0.059        0.058        4.578       14.360        9.838      339.797       13.376      865.220
10/16/2013  12:32:00       -7.526       22.960        8.321       24.772       28.336       15.602      613.631      802.935      243.433        0.116        0.083       24.162       14.491        0.360      340.171       14.009      865.209
10/16/2013  12:33:00        8.658       19.081       25.930       17.467       18.267       19.261      305.098      333.668      370.982        0.106        0.050       20.953        8.744        0.174      340.624       14.773      865.184
10/16/2013  12:34:00       20.142       -1.185       13.481       25.002       25.964       22.174      625.123      674.120      491.687        0.119        0.090       20.177       10.345        0.263      340.402       14.398      865.176
10/16/2013  12:35:00       -0.120       49.945        1.105       20.328       30.382       26.337      413.241      923.082      693.614        0.226        0.101       49.945       19.918        0.159      340.238       14.122      865.160
10/16/2013  12:36:00      -13.850       22.865       18.684       37.482       35.262       32.078     1404.925     1243.397     1029.007        0.237        0.184       26.732       17.065        0.408      340.537       14.626      865.147
10/16/2013  12:37:00      -19.159      -43.471       -1.328       40.864       42.610       36.867     1669.892     1815.594     1359.199        0.355        0.242       47.506       25.972        0.299      340.340       14.294      865.131
10/16/2013  12:38:00        1.977       44.951       67.928       36.244       43.887       33.983     1313.634     1926.106     1154.813        0.552        0.220       44.994       29.433        0.428      340.692       14.888      865.099
10/16/2013  12:39:00       19.429      -35.991      -16.577       38.778       54.652       28.621     1503.746     2986.888      819.144        0.363        0.265       40.900       25.587        0.391      340.220       14.091      865.091
10/16/2013  12:40:00       21.039       25.212       43.080       37.458       38.812       26.720     1403.067     1506.407      713.936        0.328        0.181       32.837       19.732        0.361      340.536       14.625      865.077
10/16/2013  12:41:00       -5.541       32.799       43.910       17.919       28.324       26.585      321.083      802.237      706.751        0.243        0.092       33.264       20.777        0.390      340.763       15.009      865.078
10/16/2013  12:42:00       -6.212       -5.438       10.899       44.292       52.339       33.860     1961.769     2739.390     1146.495        0.302        0.292        8.256       30.924       14.029      340.524       14.605      865.073
10/16/2013  12:43:00       28.635      -54.495       -7.986       43.944       39.965       30.085     1931.093     1597.233      905.131        0.414        0.222       61.560       28.712        0.218      340.615       14.759      865.056
10/16/2013  12:44:00       22.654      -26.260        8.900       33.523       36.389       26.847     1123.823     1324.134      720.779        0.222        0.158       34.682       14.388        0.172      340.554       14.655      865.043
10/16/2013  12:45:00        0.045       23.530        4.298       33.378       27.111       23.741     1114.122      735.019      563.634        0.149        0.121       23.530       13.301        0.320      340.412       14.415      865.008
10/16/2013  12:46:00       10.040      -66.970       16.744       34.262       59.319       37.851     1173.877     3518.713     1432.735        0.549        0.306       67.718       33.104        0.239      340.807       15.083      864.987
10/16/2013  12:47:00       20.708      -17.086       68.446       32.913       56.583       36.861     1083.291     3201.667     1358.714        0.552        0.282       26.847       39.136        2.125      340.804       15.079      864.947
10/16/2013  12:48:00       74.038       61.488       37.093       71.147       42.716       44.762     5061.884     1824.667     2003.655        0.976        0.445       96.241       28.497        0.088      340.388       14.374      864.935
10/16/2013  12:49:00        3.651        3.539       17.189       44.842       47.488       33.677     2010.832     2255.118     1134.145        0.286        0.270        5.085       32.187       40.069      340.736       14.962      864.913
10/16/2013  12:50:00       23.672       39.014       56.344       47.563       62.957       42.231     2262.240     3963.602     1783.437        0.663        0.400       45.634       38.259        0.703      341.008       15.423      864.912
10/16/2013  12:51:00       11.501        9.384        6.231       35.228       37.119       28.652     1241.043     1377.853      820.936        0.185        0.172       14.844       17.475        1.386      341.037       15.470      864.924
10/16/2013  12:52:00       77.039       67.668       35.142       35.090       38.634       41.194     1231.304     1492.558     1696.949        0.808        0.221      102.538       20.523        0.040      340.578       14.695      864.940
10/16/2013  12:53:00       17.797       25.713       35.843       24.335       31.908       27.085      592.180     1018.107      733.594        0.230        0.117       31.272       12.354        0.156      341.024       15.450      864.922
10/16/2013  12:54:00       34.492       30.736       24.926       29.843       28.622       23.629      890.593      819.207      558.313        0.251        0.113       46.200       11.941        0.067      340.768       15.017      864.912
10/16/2013  12:55:00       57.448       10.733       16.339       41.980       47.686       32.192     1762.284     2273.911     1036.346        0.438        0.254       58.442       23.905        0.167      340.699       14.901      864.880
10/16/2013  12:56:00       29.348       42.679       54.850       72.741       45.697       44.131     5291.320     2088.260     1947.527        0.751        0.466       51.795       28.773        0.309      340.881       15.208      864.861
10/16/2013  12:57:00       27.559       22.809       27.857       68.374       39.977       38.211     4675.030     1598.162     1460.107        0.489        0.387       35.774       18.625        0.271      340.663       14.839      864.842
10/16/2013  12:58:00       28.114       28.383        9.762       49.908       45.655       33.065     2490.851     2084.401     1093.266        0.368        0.283       39.950       17.815        0.199      340.557       14.659      864.821
10/16/2013  12:59:00       55.762      -31.452       27.824       40.249       67.720       29.879     1619.977     4586.030      892.758        0.598        0.355       64.021       17.390        0.074      340.563       14.669      864.800
10/16/2013  13:00:00       40.138       42.963       58.770       46.501       54.101       34.734     2162.372     2926.912     1206.458        0.660        0.315       58.795       29.006        0.243      340.857       15.167      864.785
10/16/2013  13:01:00       83.956       98.345       67.332       81.960       72.715       67.373     6717.457     5287.483     4539.141        1.890        0.827      129.307       61.193        0.224      340.501       14.564      864.781
10/16/2013  13:02:00       40.293      -21.808       37.738       58.128       88.331       48.567     3378.846     7802.337     2358.754        0.853        0.677       45.816       40.106        0.766      340.651       14.818      864.756
10/16/2013  13:03:00       32.112        9.975       76.319       49.645      116.352       60.636     2464.598    13537.735     3676.666        1.331        0.984       33.625       68.450        4.144      340.822       15.107      864.747
10/16/2013  13:04:00      107.577       18.525       37.107       86.011       90.871       59.864     7397.934     8257.454     3583.710        1.626        0.962      109.160       56.840        0.271      340.648       14.813      864.733
10/16/2013  13:05:00      149.233      106.786       52.841       41.667       29.528       39.393     1736.159      871.922     1551.806        2.031        0.208      183.504       27.428        0.022      340.165       13.997      864.745
10/16/2013  13:06:00       19.192       33.681       76.651       34.852       48.624       27.889     1214.686     2364.301      777.802        0.587        0.218       38.765       20.696        0.285      340.800       15.072      864.730
10/16/2013  13:07:00       53.589       56.727       68.692       62.273       50.024       50.981     3877.970     2502.402     2599.095        0.989        0.449       78.037       47.438        0.370      340.540       14.631      864.714
10/16/2013  13:08:00       89.573       76.863       66.630       56.912       34.642       44.484     3238.988     1200.066     1978.855        1.239        0.321      118.030       29.673        0.063      340.677       14.862      864.692
10/16/2013  13:09:00       71.187       42.578       42.578       43.158       37.558       31.471     1862.605     1410.627      990.436        0.648        0.213       82.949       21.496        0.067      340.481       14.532      864.679
10/16/2013  13:10:00       25.402      -38.752      -18.641       23.739       29.764       18.858      563.545      885.889      355.624        0.215        0.090       46.336       12.585        0.074      340.331       14.278      864.662
10/16/2013  13:11:00       18.788       11.902        9.444       14.606       31.492       16.754      213.342      991.763      280.683        0.103        0.074       22.241       11.988        0.291      340.797       15.066      864.637
10/16/2013  13:12:00       -9.285       43.356        5.876       16.398       27.193       27.614      268.898      739.434      762.535        0.189        0.089       44.339       23.060        0.270      340.904       15.248      864.608
10/16/2013  13:13:00      -17.155        5.280       17.192       18.556       11.578       12.764      344.340      134.055      162.925        0.063        0.032       17.949       10.752        0.359      341.509       16.273      864.591
10/16/2013  13:14:00       28.106      -39.234       16.115       48.280       73.374       38.940     2330.957     5383.760     1516.361        0.591        0.462       48.262       35.847        0.552      341.024       15.451      864.565
10/16/2013  13:15:00       59.176       33.632        2.279       46.704       39.404       33.095     2181.234     1552.674     1095.251        0.473        0.241       68.065       22.530        0.110      341.179       15.712      864.526
10/16/2013  13:16:00       55.448       64.765        9.996       50.046       35.938       35.837     2504.567     1291.565     1284.285        0.622        0.254       85.259       25.589        0.090      340.909       15.255      864.507
10/16/2013  13:17:00       23.038        0.166       23.688       32.841       46.195       23.000     1078.556     2134.013      529.009        0.242        0.187       23.038       15.710        0.465      341.375       16.045      864.491
10/16/2013  13:18:00      -23.626       -7.048       19.148       22.386       32.880       22.320      501.116     1081.098      498.187        0.153        0.104       24.655       14.755        0.358      341.460       16.189      864.457
10/16/2013  13:19:00      -40.748       45.274       21.342       34.048       70.480       30.668     1159.244     4967.493      940.530        0.562        0.353       60.911       33.247        0.298      341.408       16.100      864.440
10/16/2013  13:20:00        4.647        8.210       36.969       18.621       33.583       19.817      346.723     1127.824      392.728        0.166        0.093        9.434       14.085        2.229      341.692       16.582      864.437
10/16/2013  13:21:00       43.866       11.243       55.342       51.759       49.828       44.060     2678.964     2482.805     1941.312        0.611        0.355       45.284       36.694        0.657      341.237       15.811      864.435
10/16/2013  13:22:00       87.688       61.791       51.345       47.370       59.923       45.561     2243.954     3590.735     2075.839        1.103        0.396      107.272       32.777        0.093      340.738       14.965      864.434
10/16/2013  13:23:00       60.447       15.496      -12.560       44.734       51.822       20.903     2001.117     2685.468      436.917        0.459        0.256       62.401       20.793        0.111      340.494       14.553      864.446
10/16/2013  13:24:00      -21.410       -7.059        7.798       55.737       33.643       31.670     3106.587     1131.880     1002.965        0.290        0.262       22.544       33.667        2.230      340.973       15.364      864.433
10/16/2013  13:25:00       16.774       28.729       24.838       53.605       43.817       27.672     2873.459     1919.917      765.756        0.364        0.278       33.267       26.612        0.640      341.381       16.055      864.447
10/16/2013  13:26:00       30.500      -25.868      -13.841       44.564       98.430       29.565     1985.942     9688.424      874.112        0.717        0.627       39.993       24.583        0.378      341.058       15.508      864.456
10/16/2013  13:27:00       41.031       52.321       24.669       43.041       39.213       36.713     1852.485     1537.622     1347.827        0.488        0.237       66.491       12.244        0.034      341.459       16.187      864.463
10/16/2013  13:28:00       68.845       49.764       10.499       28.955       29.828       29.482      838.372      889.739      869.189        0.496        0.130       84.948       17.613        0.043      340.769       15.018      864.475
10/16/2013  13:29:00       64.390       54.351       -4.577       17.018       28.555       27.022      289.626      815.360      730.181        0.448        0.092       84.262       13.775        0.027      340.792       15.057      864.460
10/16/2013  13:30:00       41.386       14.643        6.015       27.724       15.672       28.654      768.632      245.603      821.078        0.190        0.092       43.900       16.122        0.135      340.938       15.305      864.447
10/16/2013  13:31:00        4.743       55.112      -20.755       31.494       37.223       14.109      991.880     1385.568      199.077        0.303        0.129       55.316        7.593        0.019      340.729       14.949      864.430
10/16/2013  13:32:00      -30.965       95.112      -26.736       20.727       20.659       15.333      429.597      426.790      235.110        0.591        0.055      100.025        9.917        0.010      340.651       14.819      864.403
10/16/2013  13:33:00       -2.033       20.409      -12.505       11.831       27.211       16.513      139.982      740.434      272.688        0.086        0.058       20.510       15.721        0.588      341.201       15.749      864.395
10/16/2013  13:34:00       -4.579       19.453        7.207       30.598       22.604       14.968      936.268      510.920      224.035        0.106        0.084       19.985       15.190        0.578      341.587       16.404      864.371
10/16/2013  13:35:00      -66.735       52.230      -16.507       28.703       32.890       19.435      823.874     1081.782      377.716        0.487        0.114       84.744       18.723        0.049      341.018       15.440      864.376
10/16/2013  13:36:00      -52.314       32.197       -6.095       43.502       32.400       21.171     1892.428     1049.789      448.203        0.360        0.170       61.428       21.092        0.118      341.209       15.763      864.379
10/16/2013  13:37:00      -11.711       66.013        5.248       22.606       23.274       19.399      511.035      541.699      376.321        0.298        0.071       67.044       13.595        0.041      341.310       15.935      864.361
10/16/2013  13:38:00      -43.576       23.570       17.060       39.179       41.878       24.200     1534.957     1753.803      585.622        0.331        0.194       49.542       25.522        0.265      341.398       16.083      864.353
10/16/2013  13:39:00      -44.320      -10.374        5.143       29.552       34.744       17.721      873.327     1207.139      314.049        0.225        0.120       45.518       17.453        0.147      341.558       16.354      864.327
10/16/2013  13:40:00      -40.880      -37.903        2.211       51.212       32.381       17.450     2622.633     1048.554      304.515        0.354        0.199       55.748       18.271        0.107      341.234       15.806      864.318
10/16/2013  13:41:00      -62.828       -7.231        8.337       43.394       25.399       25.734     1883.053      645.109      662.238        0.363        0.160       63.243       27.853        0.194      341.281       15.884      864.308
10/16/2013  13:42:00      -74.286       25.667        4.787       40.244       30.302       19.585     1619.616      918.221      383.567        0.456        0.146       78.596       18.320        0.054      341.265       15.859      864.296
10/16/2013  13:43:00      -73.472       21.019       -4.783       34.133       43.891       25.340     1165.056     1926.416      642.127        0.480        0.187       76.419       23.563        0.095      341.157       15.674      864.303
10/16/2013  13:44:00      -39.269      -17.399        3.061       36.962       33.372       20.657     1366.196     1113.717      426.700        0.238        0.145       42.951       15.900        0.137      341.337       15.980      864.302
10/16/2013  13:45:00      -32.116      -17.216       -3.667       33.628       28.919       16.511     1130.860      836.297      272.609        0.179        0.112       36.439       14.463        0.158      341.347       15.998      864.301
10/16/2013  13:46:00      -46.856       -4.375       -2.641       24.885       19.017       15.715      619.252      361.645      246.966        0.172        0.061       47.060        9.329        0.039      341.329       15.965      864.306
10/16/2013  13:47:00       -0.788        9.072       16.803       10.356       13.947       16.332      107.246      194.514      266.745        0.047        0.028        9.106       12.536        1.895      342.070       17.223      864.297
10/16/2013  13:48:00      -19.101        8.176       30.896       16.316       30.792       18.497      266.216      948.167      342.130        0.147        0.078       20.777       19.830        0.911      341.807       16.776      864.279
10/16/2013  13:49:00       -7.012      -14.898        7.117       23.998       33.528       32.052      575.924     1124.144     1027.306        0.152        0.136       16.466       26.355        2.562      341.549       16.339      864.265
10/16/2013  13:50:00       -5.404       -3.434       26.569       19.354        9.771       12.226      374.574       95.479      149.485        0.068        0.031        6.403       11.414        3.178      342.060       17.206      864.250
10/16/2013  13:51:00       54.215       31.669       29.319       60.997       34.851       30.535     3720.634     1214.563      932.365        0.533        0.293       62.787       30.442        0.235      341.623       16.464      864.234
10/16/2013  13:52:00       47.153        9.681       33.182       45.405       34.919       29.386     2061.624     1219.345      863.556        0.378        0.207       48.137       26.374        0.300      341.504       16.263      864.217
10/16/2013  13:53:00       42.884       27.786       26.859       63.713       65.522       37.346     4059.368     4293.125     1394.723        0.654        0.487       51.099       39.350        0.593      341.543       16.328      864.202
10/16/2013  13:54:00       43.016       45.684        2.821       45.913       33.932       39.500     2108.028     1151.350     1560.286        0.438        0.241       62.749       24.655        0.154      341.333       15.973      864.202
10/16/2013  13:55:00      100.446       45.743        9.702       36.471       30.047       30.623     1330.142      902.801      937.739        0.772        0.159      110.371       11.287        0.010      341.240       15.816      864.208
10/16/2013  13:56:00        2.034       63.154       -1.923       28.512       34.373       25.263      812.948     1181.504      638.200        0.331        0.132       63.186       12.654        0.040      341.307       15.929      864.211
10/16/2013  13:57:00       36.934       19.095       15.280       20.527       15.962       20.330      421.371      254.774      413.328        0.153        0.054       41.578        8.284        0.040      341.217       15.776      864.207
10/16/2013  13:58:00       70.661       48.834        8.677       22.049       23.259       17.944      486.176      540.979      321.969        0.440        0.067       85.893        6.823        0.006      341.110       15.594      864.199
10/16/2013  13:59:00       20.889      -25.925        9.238       18.803       46.399       26.839      353.552     2152.883      720.329        0.221        0.161       33.293       31.718        0.908      341.306       15.928      864.188
10/16/2013  14:00:00       22.711       51.746       -8.030       19.590       38.206       18.504      383.754     1459.673      342.414        0.272        0.109       56.511        4.961        0.008      341.262       15.853      864.168
10/16/2013  14:01:00       -2.596       17.782        8.817       17.108       19.696       15.193      292.697      387.916      230.827        0.066        0.046       17.971       14.901        0.688      341.707       16.606      864.151
10/16/2013  14:02:00      -17.248      115.090      -16.791       16.227       17.836       13.126      263.305      318.116      172.282        0.729        0.038      116.375        5.402        0.002      341.130       15.629      864.140
10/16/2013  14:03:00      -38.982       33.574      -18.058       17.560       44.394       15.157      308.347     1970.845      229.731        0.274        0.125       51.448       10.383        0.041      341.278       15.881      864.129
10/16/2013  14:04:00      -88.401      -23.949       -9.308       26.115       22.629       18.257      682.003      512.068      333.312        0.500        0.076       91.588       12.142        0.018      341.222       15.785      864.113
10/16/2013  14:05:00      -81.484       13.310       10.186       47.049       33.055       19.935     2213.592     1092.615      397.408        0.531        0.185       82.564       26.895        0.106      341.396       16.080      864.100
10/16/2013  14:06:00       16.022       26.062       20.506       26.791       40.324       30.335      717.777     1626.012      920.237        0.231        0.163       30.593       30.635        1.003      341.775       16.723      864.094
10/16/2013  14:07:00       52.926       56.462        6.650       40.627       29.745       25.121     1650.527      884.753      631.086        0.460        0.158       77.389       20.405        0.070      341.447       16.164      864.070
10/16/2013  14:08:00       75.965       58.892        6.151       32.731       20.009       25.868     1071.300      400.361      669.172        0.571        0.107       96.119       18.835        0.038      341.351       16.004      864.060
10/16/2013  14:09:00       19.263       12.860        9.628       23.488       20.736       19.894      551.699      430.002      395.773        0.100        0.069       23.161       15.831        0.467      341.805       16.773      864.047
10/16/2013  14:10:00       46.326       29.757       10.677       35.855       32.262       29.436     1285.613     1040.853      866.472        0.317        0.160       55.060       22.219        0.163      341.759       16.695      864.040
10/16/2013  14:11:00       51.427       14.512       20.216       59.878       30.089       27.116     3585.407      905.361      735.267        0.424        0.261       53.435       24.584        0.212      342.184       17.417      864.039
10/16/2013  14:12:00       83.233       50.569       20.339       46.792       71.379       44.827     2189.518     5094.958     2009.492        0.959        0.465       97.390       37.039        0.145      341.656       16.519      864.044
10/16/2013  14:13:00       38.440       -2.752       14.365       46.545       58.796       29.490     2166.435     3457.022      869.632        0.409        0.325       38.538       19.258        0.250      341.806       16.775      864.044
10/16/2013  14:14:00        7.093       45.177       -7.865       42.659       32.163       30.778     1819.823     1034.489      947.313        0.298        0.190       45.731       25.065        0.300      341.691       16.580      864.034
10/16/2013  14:15:00       25.838       45.204       58.914       36.419       31.440       35.434     1326.378      988.456     1255.578        0.488        0.179       52.067       23.391        0.202      342.117       17.303      864.024
10/16/2013  14:16:00       46.898       53.890       -7.927       45.392       30.790       40.076     2060.427      948.051     1606.099        0.489        0.231       71.439       28.551        0.160      341.559       16.355      864.027
10/16/2013  14:17:00       26.979       23.276        2.042       39.177       28.748       17.342     1534.867      826.459      300.736        0.197        0.133       35.632        9.240        0.067      341.901       16.936      864.021
10/16/2013  14:18:00       99.040       78.447       53.932       83.224       44.921       61.011     6926.269     2017.919     3722.370        1.577        0.633      126.344       45.150        0.128      341.723       16.633      863.999
10/16/2013  14:19:00      124.268       82.062       43.708       39.624       29.702       35.445     1570.052      882.181     1256.361        1.390        0.185      148.918       23.557        0.025      341.527       16.301      864.010
10/16/2013  14:20:00       87.483       67.406       31.126       14.269       14.745       18.904      203.602      217.403      357.367        0.697        0.039      110.440       12.341        0.012      341.416       16.113      864.022
10/16/2013  14:21:00       14.636       14.193       -1.212       44.809       34.377       19.199     2007.882     1181.808      368.597        0.199        0.178       20.388       18.555        0.828      341.875       16.892      864.013
10/16/2013  14:22:00      -14.422       35.205       -4.815       17.394       31.165       15.990      302.539      971.233      255.690        0.150        0.076       38.044       13.622        0.128      341.988       17.084      864.006
10/16/2013  14:23:00        5.544       43.014        3.211       21.263       41.208       22.027      452.108     1698.098      485.170        0.226        0.132       43.369       19.553        0.203      341.937       16.998      863.997
10/16/2013  14:24:00       70.084       38.900       32.147       47.443       51.753       33.716     2250.855     2678.330     1136.779        0.676        0.303       80.156       32.435        0.164      341.901       16.936      863.992
10/16/2013  14:25:00       38.363       18.704       47.497       45.711       54.930       48.662     2089.541     3017.303     2367.983        0.577        0.374       42.680       49.490        1.345      341.943       17.006      863.995
10/16/2013  14:26:00       24.990       59.246       60.672       38.023       36.356       38.247     1445.768     1321.763     1462.832        0.602        0.212       64.301       30.652        0.227      342.057       17.200      863.988
10/16/2013  14:27:00       53.678      -48.096       -7.210       23.921       25.538       23.064      572.213      652.183      531.931        0.350        0.088       72.073       16.770        0.054      341.641       16.494      863.994
10/16/2013  14:28:00       30.512        5.371       34.994       36.086       22.021       17.811     1302.228      484.946      317.249        0.214        0.105       30.981       11.157        0.130      342.069       17.220      863.989
10/16/2013  14:29:00       47.299      -39.087       23.479       24.421       31.407       28.288      596.374      986.403      800.218        0.335        0.119       61.359       18.825        0.094      341.867       16.877      863.978
10/16/2013  14:30:00       26.182       22.841       12.750       18.623       40.928       22.027      346.800     1675.065      485.177        0.194        0.125       34.745       20.489        0.348      341.890       16.917      863.979
10/16/2013  14:31:00       45.212       31.855        7.911       51.232       34.808       32.995     2624.762     1211.614     1088.657        0.402        0.246       55.307       23.539        0.181      342.102       17.276      863.982
10/16/2013  14:32:00       68.014       50.944       10.178       65.079       34.453       26.347     4235.320     1187.036      694.147        0.672        0.306       84.978       10.465        0.015      341.986       17.079      863.980
10/16/2013  14:33:00       70.743       44.168        2.860       39.407       20.059       16.648     1552.893      402.369      277.159        0.460        0.112       83.399        9.613        0.013      341.655       16.518      863.991
10/16/2013  14:34:00      -38.356       20.505        3.953       39.515       39.336       19.080     1561.450     1547.352      364.052        0.269        0.174       43.493       18.382        0.179      342.149       17.355      863.984
10/16/2013  14:35:00      -43.278       88.888      -16.100       28.572       45.859       22.805      816.382     2103.052      520.075        0.674        0.172       98.864       18.425        0.035      341.947       17.013      863.983
10/16/2013  14:36:00      -55.257       67.684      -16.441       33.038       28.781       28.190     1091.490      828.338      794.690        0.531        0.136       87.375       23.420        0.072      341.895       16.926      863.980
10/16/2013  14:37:00     -133.395       26.948       -8.695       56.286       48.329       27.327     3168.062     2335.699      746.779        1.242        0.313      136.090       17.823        0.017      341.851       16.852      863.974
10/16/2013  14:38:00      -71.169       52.340      -16.490       42.196       29.156       24.562     1780.478      850.053      603.290        0.565        0.162       88.343       19.954        0.051      341.861       16.868      863.960
10/16/2013  14:39:00      -37.941        4.276      -15.790       22.002       29.290       20.005      484.072      857.915      400.194        0.172        0.087       38.181       17.493        0.210      341.835       16.824      863.955
10/16/2013  14:40:00      -24.063        9.578       -4.032       25.352       27.715       16.530      642.741      768.123      273.254        0.119        0.084       25.899        7.109        0.075      341.948       17.016      863.947
10/16/2013  14:41:00        6.243       49.142       14.845       16.917       24.804       17.170      286.175      615.236      294.822        0.193        0.060       49.537       15.976        0.104      342.163       17.380      863.935
10/16/2013  14:42:00       30.144       34.653        0.382       12.339       12.204       15.393      152.260      148.944      236.936        0.132        0.027       45.929        4.916        0.011      341.870       16.883      863.916
10/16/2013  14:43:00       22.237       35.804       -7.088       11.810        8.813       12.570      139.478       77.663      158.012        0.110        0.019       42.148        8.021        0.036      341.916       16.960      863.895
10/16/2013  14:44:00       47.992       28.957       -2.067       23.924       12.404       18.405      572.371      153.867      338.745        0.211        0.053       56.051       17.152        0.094      341.890       16.917      863.874
10/16/2013  14:45:00       53.411       22.901       -3.848       29.367       28.840       25.918      862.432      831.720      671.751        0.288        0.118       58.114       19.747        0.115      341.973       17.056      863.870
10/16/2013  14:46:00       44.044       35.144       49.608       53.425       57.938       39.627     2854.182     3356.761     1570.287        0.671        0.389       56.347       39.640        0.495      342.456       17.879      863.854
10/16/2013  14:47:00      109.905       47.857        3.380       32.881       26.503       22.736     1081.168      702.431      516.914        0.834        0.115      119.873        7.051        0.003      341.879       16.898      863.864
10/16/2013  14:48:00       78.913       71.091        1.662       28.948       27.358       18.021      837.965      748.483      324.750        0.660        0.096      106.213       11.349        0.011      341.799       16.762      863.855
10/16/2013  14:49:00       30.289       33.825        0.837       23.202       33.056       27.467      538.312     1092.692      754.455        0.222        0.119       45.404       22.824        0.253      341.960       17.035      863.844
10/16/2013  14:50:00      -30.779        9.839      -24.106       23.257       24.255       16.468      540.867      588.327      271.189        0.151        0.070       32.314       14.739        0.208      342.044       17.177      863.841
10/16/2013  14:51:00      -50.696       32.808      -18.332       22.503       26.473       23.300      506.384      700.835      542.906        0.287        0.088       60.385       15.168        0.063      342.125       17.317      863.830
10/16/2013  14:52:00      -37.988      -20.501       -9.710       26.581       27.509       23.690      706.538      756.719      561.223        0.199        0.101       43.167       20.636        0.229      342.166       17.386      863.826
10/16/2013  14:53:00      -15.863      -29.612       18.912       22.447       27.825       17.889      503.848      774.224      320.014        0.154        0.080       33.593       12.410        0.136      342.298       17.610      863.814
10/16/2013  14:54:00     -104.901      -41.940       -5.112       23.022       44.779       20.699      530.020     2005.135      428.459        0.788        0.148      112.974       10.720        0.009      342.252       17.533      863.795
10/16/2013  14:55:00       20.154      -58.395      -12.515       29.684       29.838       21.801      881.131      890.279      475.289        0.311        0.112       61.775       13.351        0.047      342.385       17.757      863.804
10/16/2013  14:56:00       20.070       -3.810       27.569       44.319       39.033       20.952     1964.162     1523.539      438.976        0.255        0.196       20.428       15.495        0.575      342.541       18.021      863.804
10/16/2013  14:57:00       -1.321       52.356       86.159       21.592       40.983       26.073      466.219     1679.647      679.803        0.650        0.141       52.373       24.354        0.216      342.603       18.128      863.797
10/16/2013  14:58:00       84.404       48.776       49.327       39.033       31.948       31.671     1523.565     1020.662     1003.076        0.774        0.177       97.484       25.785        0.070      342.219       17.475      863.788
10/16/2013  14:59:00       47.670       68.155       65.648       39.131       31.967       23.941     1531.207     1021.921      573.180        0.718        0.156       83.172       18.439        0.049      342.257       17.541      863.786
10/16/2013  15:00:00       25.095      -24.876        7.325       38.015       39.035       17.898     1445.126     1523.716      320.342        0.230        0.164       35.335       16.630        0.222      342.496       17.947      863.794
10/16/2013  15:01:00       32.781      -79.816      -10.863       17.462       22.498       20.686      304.920      506.151      427.924        0.440        0.062       86.285       11.170        0.017      342.179       17.407      863.803
10/16/2013  15:02:00       18.054      -38.296       -0.882       17.465       31.199       20.697      305.022      973.392      428.356        0.175        0.085       42.338       18.533        0.192      342.637       18.186      863.795
10/16/2013  15:03:00       -0.766       41.004       19.419       33.469       16.476       32.054     1120.200      271.455     1027.469        0.224        0.121       41.011       28.731        0.491      342.478       17.916      863.797
10/16/2013  15:04:00      -36.224       32.697        0.988       27.843       23.663       28.478      775.227      559.921      811.008        0.226        0.107       48.798       20.337        0.174      342.581       18.091      863.801
10/16/2013  15:05:00      -57.206       30.420       -5.284       28.926       24.657       17.477      836.704      607.964      305.460        0.299        0.088       64.791        9.015        0.019      342.689       18.275      863.802
10/16/2013  15:06:00      -66.906      -19.991       -0.062       24.424       26.294       17.511      596.530      691.386      306.639        0.323        0.080       69.828        8.648        0.015      342.687       18.272      863.798
10/16/2013  15:07:00        5.137       -4.366        8.276       42.467       31.214       19.628     1803.467      974.342      385.260        0.164        0.158        6.742       17.835        6.999      342.695       18.284      863.791
10/16/2013  15:08:00        3.221      -25.773       14.853       35.454       29.067       26.246     1257.004      844.903      688.853        0.184        0.140       25.974       19.829        0.583      342.832       18.518      863.777
10/16/2013  15:09:00       -3.111      -13.798        1.217       39.153       49.907       35.985     1532.982     2490.739     1294.952        0.276        0.266       14.144       31.578        4.984      342.944       18.708      863.763
10/16/2013  15:10:00      -18.511       16.768       31.464       26.063       28.379       28.741      679.267      805.395      826.068        0.196        0.116       24.976       22.168        0.788      343.121       19.011      863.759
10/16/2013  15:11:00       46.306      -23.402       26.584       43.634       46.706       35.558     1903.960     2181.454     1264.386        0.437        0.267       51.883       31.555        0.370      342.805       18.470      863.766
10/16/2013  15:12:00       71.835      -13.521       33.597       43.644       50.208       50.736     1904.805     2520.799     2574.177        0.673        0.350       73.096       45.961        0.395      342.680       18.260      863.760
10/16/2013  15:13:00       45.146       26.058       36.891       39.861       37.650       27.003     1588.875     1417.497      729.147        0.391        0.187       52.127       23.624        0.205      342.534       18.012      863.742
10/16/2013  15:14:00       32.690       -1.113       24.028       31.757       37.860       34.993     1008.477     1433.416     1224.528        0.266        0.183       32.709       22.344        0.467      342.714       18.319      863.717
10/16/2013  15:15:00       13.706       14.306       35.748       25.159       38.517       33.771      632.973     1483.528     1140.495        0.246        0.163       19.812       26.103        1.736      342.932       18.688      863.696
10/16/2013  15:16:00      109.415     -163.556      -15.106       59.685       66.015       44.774     3562.266     4358.004     2004.705        2.444        0.496      196.779       38.910        0.039      342.453       17.870      863.694
10/16/2013  15:17:00      105.735     -120.441      -26.389       64.743       61.478       43.876     4191.634     3779.505     1925.125        1.814        0.495      160.269       44.369        0.077      342.432       17.836      863.685
10/16/2013  15:18:00       94.887     -111.155       -7.146       48.044       67.348       25.824     2308.196     4535.794      666.878        1.446        0.376      146.147       38.330        0.069      342.384       17.755      863.687
10/16/2013  15:19:00       32.114      -72.927        3.294       40.357       39.809       35.597     1628.650     1584.737     1267.174        0.542        0.224       79.685       23.404        0.086      342.732       18.348      863.690
10/16/2013  15:20:00        9.684      -79.404      -19.858       26.645       53.672       35.716      709.975     2880.655     1275.629        0.583        0.243       79.993       34.542        0.186      343.009       18.819      863.699
10/16/2013  15:21:00       16.558      -27.438        5.436       42.509       60.285       45.973     1807.051     3634.249     2113.495        0.430        0.378       32.047       47.338        2.182      342.941       18.702      863.693
10/16/2013  15:22:00       19.122       -7.152       47.882       36.296       57.847       36.646     1317.424     3346.292     1342.897        0.436        0.300       20.416       38.358        3.530      342.855       18.557      863.691
10/16/2013  15:23:00        3.537       -2.979       52.186       27.583       85.666       56.202      760.836     7338.659     3158.631        0.700        0.563        4.625       61.014      174.055      342.713       18.316      863.686
10/16/2013  15:24:00     -114.579     -100.408      -17.375       44.951       59.092       26.665     2020.581     3491.900      711.014        1.487        0.311      152.349       25.449        0.028      342.586       18.098      863.697
10/16/2013  15:25:00      -92.686      -64.636      -13.328       30.503       41.436       26.093      930.411     1716.915      680.826        0.814        0.166      112.998       17.569        0.024      342.588       18.104      863.705
10/16/2013  15:26:00      -47.257      -25.883        0.555       51.765       31.644       20.506     2679.606     1001.366      420.497        0.350        0.205       53.881        7.777        0.021      342.778       18.424      863.705
10/16/2013  15:27:00      -32.049     -104.141      -11.640       30.183       45.976       33.740      911.010     2113.818     1138.387        0.808        0.208      108.961       24.270        0.050      342.652       18.211      863.702
10/16/2013  15:28:00      -48.789      -44.875       -1.672       27.861       31.742       22.454      776.230     1007.529      504.168        0.334        0.114       66.288       14.539        0.048      342.545       18.030      863.695
10/16/2013  15:29:00      -25.989      -30.857        0.037       29.382       36.130       20.091      863.273     1305.379      403.659        0.210        0.129       40.343       19.802        0.241      342.788       18.442      863.689
10/16/2013  15:30:00     -115.993      -43.329      -10.949       36.151       30.145       15.832     1306.904      908.711      250.655        0.896        0.123      123.822       16.149        0.017      342.600       18.124      863.681
10/16/2013  15:31:00      -76.661      -11.163       -7.950       52.740       32.278       20.730     2781.474     1041.865      429.712        0.516        0.213       77.469       22.481        0.084      342.615       18.149      863.677
10/16/2013  15:32:00      -45.155      -32.158       11.569       44.879       33.494       23.561     2014.169     1121.866      555.115        0.345        0.185       55.436       22.549        0.165      342.803       18.468      863.672
10/16/2013  15:33:00      -16.032      -40.859       -6.304       42.353       33.408       16.900     1793.779     1116.090      285.602        0.258        0.160       43.892       16.535        0.142      342.828       18.511      863.666
10/16/2013  15:34:00      -50.454      -40.632       -0.004       43.444       19.730       14.180     1887.387      389.266      201.060        0.334        0.124       64.781       10.839        0.028      342.866       18.575      863.657
10/16/2013  15:35:00      -31.789      -22.138       12.419       40.899       30.495       21.450     1672.731      929.967      460.109        0.236        0.153       38.738       21.778        0.316      342.912       18.655      863.652
10/16/2013  15:36:00      -38.402      -24.348       12.295       29.215       17.644       23.125      853.488      311.325      534.764        0.196        0.085       45.470       16.109        0.126      342.824       18.503      863.647
10/16/2013  15:37:00      -29.570      -25.647        6.726       22.827       18.868       14.477      521.050      355.984      209.598        0.133        0.054       39.143       12.301        0.099      342.829       18.514      863.639
10/16/2013  15:38:00        0.020      -11.183        7.353       31.158       28.882       26.647      970.796      834.181      710.085        0.135        0.126       11.183       17.572        2.469      342.957       18.731      863.630
10/16/2013  15:39:00      -25.275      -49.666       14.728       68.372       56.104       35.146     4674.771     3147.639     1235.211        0.619        0.453       55.728       46.675        0.702      342.938       18.696      863.622
10/16/2013  15:40:00      -39.513      -22.246       11.346       43.509       45.555       27.040     1893.039     2075.298      731.140        0.344        0.235       45.345       26.272        0.336      342.938       18.699      863.613
10/16/2013  15:41:00        3.056        1.961       23.131       30.441       35.824       27.802      926.652     1283.371      772.959        0.176        0.149        3.631       15.699       18.697      342.987       18.782      863.610
10/16/2013  15:42:00      -49.880      -77.825       -7.504       43.216       37.158       30.828     1867.601     1380.739      950.374        0.640        0.210       92.438       27.362        0.088      342.883       18.604      863.602
10/16/2013  15:43:00      -48.406      -60.134       -3.905       48.549       38.962       29.567     2356.999     1518.038      874.209        0.536        0.237       77.196       15.261        0.039      342.947       18.714      863.593
10/16/2013  15:44:00      -19.784      -79.977        0.657       59.746       48.109       27.894     3569.601     2314.498      778.080        0.672        0.333       82.387       12.566        0.023      342.976       18.764      863.577
10/16/2013  15:45:00      -14.449      -73.501        7.252       32.530       48.081       35.049     1058.181     2311.766     1228.425        0.513        0.230       74.908       21.632        0.083      342.972       18.757      863.563
10/16/2013  15:46:00      -52.282      -91.867       -6.013       51.861       35.471       24.814     2689.540     1258.187      615.747        0.789        0.228      105.702       14.783        0.020      342.875       18.590      863.555
10/16/2013  15:47:00      -30.596      -83.154        0.097       47.626       43.959       32.786     2268.264     1932.426     1074.912        0.656        0.264       88.604       14.938        0.028      342.951       18.719      863.555
10/16/2013  15:48:00      -19.275        4.644       21.369       22.547       36.890       31.842      508.358     1360.850     1013.902        0.187        0.144       19.827       25.319        1.631      342.974       18.760      863.538
10/16/2013  15:49:00      -31.877        6.536       18.456       38.144       40.438       25.904     1454.994     1635.227      671.024        0.258        0.188       32.540       17.357        0.285      342.938       18.699      863.527
10/16/2013  15:50:00      -63.394      -43.691        4.446       44.022       37.605       20.851     1937.974     1414.139      434.752        0.487        0.189       76.991       12.156        0.025      342.843       18.536      863.518
10/16/2013  15:51:00      -39.053     -116.203      -13.692       77.334       57.927       26.000     5980.563     3355.504      675.993        1.261        0.501      122.590       13.998        0.013      342.808       18.475      863.515
10/16/2013  15:52:00       18.218      -35.780       23.026       61.301       50.482       25.251     3757.778     2548.418      637.624        0.454        0.347       40.151       22.933        0.326      342.886       18.609      863.507
10/16/2013  15:53:00      -60.648      -35.883        7.004       37.756       24.618       18.515     1425.531      606.068      342.792        0.369        0.119       70.468       13.330        0.036      342.878       18.597      863.497
10/16/2013  15:54:00      -58.908      -26.015        1.987       41.437       26.403       19.509     1716.997      697.119      380.601        0.347        0.140       64.397       18.986        0.087      342.765       18.402      863.486
10/16/2013  15:55:00      -38.187      -98.221       -6.191       47.967       36.964       31.313     2300.842     1366.344      980.487        0.789        0.232      105.384       14.727        0.020      342.746       18.372      863.489
10/16/2013  15:56:00      -86.478      -42.291      -15.696       29.256       32.411       19.167      855.893     1050.488      367.372        0.589        0.114       96.265       14.417        0.022      342.669       18.239      863.489
10/16/2013  15:57:00      -82.979        3.934       -5.354       31.715       23.866       15.807     1005.819      569.570      249.849        0.438        0.091       83.072       10.375        0.016      342.615       18.149      863.487
10/16/2013  15:58:00      -71.015      -44.489        1.751       71.875       38.140       25.512     5166.028     1454.627      650.881        0.715        0.364       83.800       19.994        0.057      342.763       18.398      863.487
10/16/2013  15:59:00     -101.664      -15.154       14.050       81.794       49.660       32.832     6690.246     2466.094     1077.958        1.050        0.512      102.787       41.115        0.160      342.711       18.310      863.485
10/16/2013  16:00:00      -92.392      -34.290        6.818       57.489       35.192       28.919     3304.954     1238.476      836.296        0.757        0.269       98.550       27.802        0.080      342.705       18.302      863.477
10/16/2013  16:01:00     -176.343     -108.220       -1.499       67.762       48.712       34.675     4591.686     2372.852     1202.364        2.549        0.408      206.903       30.031        0.021      342.543       18.023      863.472
10/16/2013  16:02:00      -88.721     -159.244      -10.780       55.088       39.215       27.951     3034.639     1537.813      781.255        1.935        0.268      182.291       24.427        0.018      342.527       17.997      863.472
10/16/2013  16:03:00      -63.740      -86.237       10.272       69.066       55.614       32.012     4770.079     3092.953     1024.791        1.024        0.444      107.236       24.885        0.054      342.711       18.312      863.462
10/16/2013  16:04:00     -176.827      -96.285       -1.427       59.895       56.368       34.302     3587.360     3177.338     1176.622        2.424        0.397      201.342       31.780        0.025      342.559       18.050      863.463
10/16/2013  16:05:00     -131.240      -67.695        6.919       71.818       57.794       35.545     5157.864     3340.121     1263.419        1.581        0.488      147.670       32.660        0.049      342.568       18.068      863.450
10/16/2013  16:06:00      -86.029      -87.043       -2.731       61.414       50.553       28.969     3771.655     2555.649      839.213        1.107        0.358      122.383       32.956        0.073      342.633       18.178      863.443
10/16/2013  16:07:00     -103.415      -91.485        1.625       68.685       71.087       32.124     4717.636     5053.369     1031.954        1.493        0.540      138.073       27.358        0.039      342.653       18.212      863.442
10/16/2013  16:08:00     -113.146     -108.653       -1.942       68.488       53.973       38.435     4690.637     2913.121     1477.235        1.684        0.454      156.868       34.341        0.048      342.664       18.232      863.432
10/16/2013  16:09:00     -120.333     -114.912       -7.272       61.064       48.621       28.294     3728.771     2364.000      800.537        1.731        0.345      166.388       20.754        0.016      342.605       18.131      863.435
10/16/2013  16:10:00     -140.373      -94.371        6.637       64.163       53.615       35.583     4116.853     2874.618     1266.152        1.845        0.413      169.146       37.563        0.049      342.598       18.116      863.424
10/16/2013  16:11:00      -77.783     -127.277       -3.459       55.012       62.272       30.392     3026.344     3877.779      923.649        1.504        0.391      149.163       33.058        0.049      342.589       18.104      863.428
10/16/2013  16:12:00     -121.555      -69.411       -1.976       42.323       33.291       21.401     1791.254     1108.278      458.016        1.148        0.168      139.977        9.865        0.005      342.681       18.261      863.426
10/16/2013  16:13:00     -114.926      -41.793       -5.247       46.337       57.277       32.004     2147.152     3280.679     1024.265        1.072        0.323      122.290       26.986        0.049      342.698       18.289      863.429
10/16/2013  16:14:00      -31.940      -66.894       -0.722       45.590       42.200       32.861     2078.430     1780.851     1079.816        0.522        0.247       74.128        8.273        0.012      342.746       18.370      863.429
10/16/2013  16:15:00      -49.604      -62.483       -3.214       54.980       35.328       31.444     3022.752     1248.044      988.719        0.582        0.263       79.779       28.456        0.127      342.697       18.288      863.424
10/16/2013  16:16:00      -53.560      -77.753       -1.930       40.743       46.557       28.484     1659.972     2167.550      811.325        0.678        0.232       94.415       19.817        0.044      342.640       18.190      863.415
10/16/2013  16:17:00      -96.668      -71.578       -4.345       18.243       34.485       18.336      332.799     1189.200      336.218        0.817        0.093      120.284       14.650        0.015      342.589       18.105      863.399
10/16/2013  16:18:00      -48.841      -65.948        3.696       39.950       41.976       28.903     1596.018     1761.995      835.385        0.547        0.210       82.065       24.162        0.087      342.679       18.257      863.401
10/16/2013  16:19:00      -56.488      -81.148       -4.434       34.198       45.132       23.883     1169.483     2036.882      570.375        0.679        0.189       98.873       19.483        0.039      342.550       18.039      863.401
10/16/2013  16:20:00      -50.191      -77.466        0.670       54.290       46.195       32.248     2947.358     2134.011     1039.956        0.732        0.306       92.305       32.377        0.123      342.641       18.192      863.392
10/16/2013  16:21:00      -78.905      -52.730       -4.169       32.120       26.117       16.406     1031.676      682.124      269.153        0.550        0.099       94.903       10.140        0.011      342.561       18.058      863.377
10/16/2013  16:22:00      -57.499      -31.023        3.253       31.432       31.014       18.394      987.969      961.882      338.342        0.328        0.114       65.334       12.676        0.038      342.627       18.170      863.365
10/16/2013  16:23:00      -77.505      -54.604        8.215       51.879       31.919       23.055     2691.383     1018.815      531.516        0.665        0.212       94.808       19.527        0.042      342.662       18.229      863.368
10/16/2013  16:24:00      -91.458      -19.892        2.276       48.302       44.615       26.293     2333.121     1990.491      691.314        0.689        0.251       93.596       24.911        0.071      342.681       18.260      863.375
10/16/2013  16:25:00      -83.567      -43.543       -1.657       44.826       24.305       18.388     2009.388      590.754      338.119        0.591        0.147       94.231       14.696        0.024      342.606       18.132      863.373
10/16/2013  16:26:00      -26.954      -70.592       -4.603       32.175       39.736       18.596     1035.233     1578.989      345.794        0.434        0.148       75.563       20.481        0.073      342.631       18.177      863.370
10/16/2013  16:27:00      -56.610     -159.024       -4.357       32.087       31.731       17.167     1029.605     1006.860      294.704        1.542        0.117      168.800       15.261        0.008      342.560       18.056      863.351
10/16/2013  16:28:00      -64.324      -81.558        5.012       55.218       38.185       27.517     3049.016     1458.082      757.173        0.804        0.263      103.872       30.217        0.085      342.570       18.074      863.324
10/16/2013  16:29:00     -105.398      -73.667       -3.464       37.247       22.566       20.719     1387.334      509.223      429.260        0.944        0.116      128.591       20.597        0.026      342.573       18.078      863.303
10/16/2013  16:30:00      -78.241      -66.394       -6.156       35.042       26.728       20.899     1227.935      714.378      436.759        0.647        0.119      102.615       21.581        0.044      342.593       18.111      863.284
10/16/2013  16:31:00      -69.019      -62.918        4.076       75.350       40.360       28.339     5677.668     1628.905      803.122        0.842        0.405       93.393       32.981        0.125      342.721       18.330      863.281
10/16/2013  16:32:00      -71.065      -85.932        8.606       46.764       45.491       26.037     2186.854     2069.462      677.924        0.872        0.247      111.510       24.065        0.047      342.640       18.191      863.290
10/16/2013  16:33:00      -31.460     -117.802        3.156       45.476       47.142       26.384     2068.042     2222.385      696.114        0.993        0.249      121.931       19.154        0.025      342.620       18.157      863.297
10/16/2013  16:34:00      -12.672      -71.747       12.315       44.613       41.083       22.298     1990.360     1687.853      497.215        0.482        0.209       72.857       22.781        0.098      342.685       18.267      863.289
10/16/2013  16:35:00      -30.884      -83.089        4.184       27.847       34.624       20.014      775.478     1198.843      400.559        0.512        0.119       88.643       17.980        0.041      342.624       18.164      863.280
10/16/2013  16:36:00      -80.306      -52.664        3.000       65.426       38.377       22.460     4280.502     1472.768      504.436        0.774        0.313       96.034       19.522        0.041      342.739       18.359      863.281
10/16/2013  16:37:00     -114.057      -81.717       -0.461       45.124       29.022       22.341     2036.176      842.265      499.118        1.153        0.169      140.309       23.337        0.028      342.617       18.151      863.287
10/16/2013  16:38:00      -90.751      -62.905        4.115       63.800       46.599       26.671     4070.432     2171.432      711.337        0.958        0.348      110.421       27.170        0.061      342.652       18.212      863.294
10/16/2013  16:39:00     -137.931      -51.859       -9.522       37.371       40.287       22.553     1396.604     1623.074      508.621        1.267        0.176      147.358       16.841        0.013      342.613       18.144      863.303
10/16/2013  16:40:00      -85.792      -22.398       -1.720       64.125       41.640       27.751     4112.045     1733.920      770.140        0.724        0.331       88.668       30.984        0.122      342.879       18.598      863.316
10/16/2013  16:41:00      -99.794      -38.988       -2.675       42.300       35.820       19.125     1789.263     1283.052      365.756        0.746        0.172      107.139       20.143        0.035      342.737       18.356      863.327
10/16/2013  16:42:00      -52.429      -20.366        4.007       48.234       26.335       26.641     2326.480      693.520      709.717        0.345        0.186       56.246       28.822        0.263      342.812       18.484      863.343
10/16/2013  16:43:00      -38.139      -32.584        5.955       46.634       29.889       24.172     2174.696      893.367      584.287        0.310        0.183       50.162       17.936        0.128      342.833       18.520      863.351
10/16/2013  16:44:00      -20.216      -36.925       13.155       45.445       33.301       27.033     2065.249     1108.958      730.760        0.292        0.195       42.097       22.753        0.292      342.758       18.392      863.355
10/16/2013  16:45:00      -21.778      -41.644       18.573       53.108       38.770       34.683     2820.425     1503.115     1202.880        0.404        0.276       46.995       34.773        0.548      342.718       18.324      863.363
10/16/2013  16:46:00     -127.333      -71.400       -8.455       43.265       39.597       23.786     1871.846     1567.943      565.764        1.269        0.200      145.985       29.213        0.040      342.584       18.096      863.369
10/16/2013  16:47:00      -84.515      -65.230       -3.314       35.967       18.803       13.669     1293.652      353.569      186.837        0.662        0.092      106.760       11.225        0.011      342.625       18.165      863.379
10/16/2013  16:48:00        2.437      -43.466       -5.357       18.888       11.503       12.176      356.772      132.312      148.267        0.128        0.032       43.534       10.868        0.062      342.603       18.129      863.393
10/16/2013  16:49:00      -17.731      -44.328        1.237       12.416       10.009        9.158      154.155      100.181       83.875        0.131        0.017       47.743        6.193        0.017      342.673       18.245      863.398
10/16/2013  16:50:00      -25.363      -36.894        4.993       29.589       23.136       15.179      875.533      535.279      230.392        0.183        0.082       44.771       15.367        0.118      342.741       18.362      863.399
10/16/2013  16:51:00      -43.077      -60.157       -3.972       20.360       18.806       12.737      414.528      353.674      162.237        0.321        0.047       73.990       10.483        0.020      342.688       18.271      863.405
10/16/2013  16:52:00      -30.857      -30.354        2.776       29.265       25.098       18.978      856.429      629.893      360.154        0.186        0.092       43.285       10.311        0.057      342.737       18.355      863.400
10/16/2013  16:53:00      -33.244      -68.894       -6.133       45.773       29.072       18.143     2095.156      845.206      329.156        0.458        0.163       76.496       16.506        0.047      342.689       18.275      863.392
10/16/2013  16:54:00      -50.331      -30.733       -2.324       22.365       13.488       15.672      500.175      181.937      245.611        0.221        0.046       58.972        6.459        0.012      342.702       18.297      863.391
10/16/2013  16:55:00        2.416      -14.316       10.956       12.709       13.611       10.736      161.516      185.256      115.267        0.040        0.023       14.519        7.073        0.237      342.799       18.462      863.384
10/16/2013  16:56:00       -7.932      -17.033        3.758       35.026       16.527       13.231     1226.827      273.157      175.052        0.102        0.084       18.790       14.113        0.564      342.787       18.442      863.380
10/16/2013  16:57:00       -5.230      -68.681        5.503       19.148       22.891       14.214      366.633      523.988      202.041        0.293        0.055       68.879        7.082        0.011      342.745       18.370      863.382
10/16/2013  16:58:00      -37.152      -47.562       -7.381       17.782       19.894       11.709      316.191      395.783      137.103        0.227        0.042       60.352        9.410        0.024      342.700       18.296      863.388
10/16/2013  16:59:00      -18.784       -1.742       -8.534       14.049       11.456        7.232      197.377      131.241       52.305        0.040        0.019       18.864        4.992        0.070      342.730       18.344      863.390
10/16/2013  17:00:00      -38.245      -13.278       -1.163       11.625       28.088        7.700      135.133      788.948       59.295        0.131        0.049       40.484        5.051        0.016      342.757       18.389      863.397
10/16/2013  17:01:00      -33.990      -35.995       -9.809       22.480       17.284        9.534      505.368      298.731       90.890        0.172        0.045       49.507       11.283        0.052      342.725       18.337      863.396
10/16/2013  17:02:00        3.668      -18.259       -2.581       14.038       11.497       10.601      197.056      132.191      112.382        0.040        0.022       18.624        2.742        0.022      342.843       18.535      863.388
10/16/2013  17:03:00       -0.384      -10.229       -0.772       10.104       11.877        9.810      102.095      141.057       96.238        0.022        0.017       10.236        6.914        0.456      342.825       18.505      863.373
10/16/2013  17:04:00      -21.941      -32.985      -16.533       23.018       13.044        9.964      529.824      170.150       99.276        0.132        0.040       39.616        5.499        0.019      342.755       18.386      863.356
10/16/2013  17:05:00      -28.778       -6.625       -5.681       25.253        9.803       15.148      637.699       96.103      229.453        0.093        0.048       29.531       17.329        0.344      342.843       18.537      863.331
10/16/2013  17:06:00        3.079      -18.070        3.097       16.027       22.123       12.857      256.875      489.418      165.305        0.063        0.046       18.330        6.486        0.125      342.800       18.463      863.318
10/16/2013  17:07:00       18.169        2.361        7.244       13.212       15.447       15.458      174.556      238.621      238.945        0.052        0.033       18.322       12.976        0.502      342.745       18.370      863.311
10/16/2013  17:08:00       13.148       23.239       23.535       12.191        9.783        7.328      148.612       95.704       53.697        0.078        0.015       26.701        4.925        0.034      342.710       18.312      863.303
10/16/2013  17:09:00       -5.586        3.564       28.388       11.630       13.339       11.877      135.259      177.923      141.062        0.065        0.023        6.626       10.139        2.342      342.813       18.483      863.288
10/16/2013  17:10:00        0.304      -12.274       15.839       14.898       15.148       12.678      221.939      229.450      160.729        0.051        0.031       12.278        8.839        0.518      342.800       18.462      863.274
10/16/2013  17:11:00        4.703        7.646       34.685       27.662       24.424       26.565      765.208      596.520      705.711        0.168        0.103        8.977       25.098        7.817      342.783       18.433      863.261
10/16/2013  17:12:00       19.242       22.882       31.481       31.377       19.644       15.714      984.520      385.874      246.934        0.175        0.081       29.897       16.533        0.306      342.743       18.366      863.251
10/16/2013  17:13:00       17.343        5.364       21.540       29.126       29.620       17.457      848.329      877.370      304.733        0.141        0.102       18.154       18.709        1.062      342.722       18.329      863.238
10/16/2013  17:14:00       14.468      -14.824       22.017       18.252       24.536       22.433      333.125      602.023      503.218        0.118        0.072       20.714       17.949        0.751      342.806       18.474      863.222
10/16/2013  17:15:00        5.907        1.028       17.055       11.599       10.317       11.377      134.548      106.446      129.425        0.035        0.019        5.996        5.361        0.799      342.798       18.459      863.220
10/16/2013  17:16:00       44.826      -15.949       14.321       34.154       33.446       18.879     1166.525     1118.642      356.412        0.255        0.132       47.578       18.190        0.146      342.716       18.321      863.220
10/16/2013  17:17:00       31.056       30.909       28.928       23.248       18.043       19.094      540.474      325.552      364.592        0.199        0.062       43.816       17.233        0.155      342.712       18.313      863.221
10/16/2013  17:18:00       66.135       44.216       10.836       37.094       20.399       16.099     1376.001      416.136      259.183        0.425        0.103       79.554       19.680        0.061      342.675       18.250      863.229
10/16/2013  17:19:00       98.868       44.554        7.533       33.413       19.764       19.688     1116.397      390.599      387.602        0.686        0.095      108.444       10.982        0.010      342.647       18.201      863.232
10/16/2013  17:20:00       83.470       43.860        3.850       24.940       19.731       16.820      621.981      389.323      282.903        0.510        0.065       94.292       11.196        0.014      342.651       18.208      863.233
10/16/2013  17:21:00       62.070       36.638        6.902       32.161       22.484       19.751     1034.324      505.524      390.120        0.359        0.096       72.077       19.434        0.073      342.630       18.173      863.230
10/16/2013  17:22:00       76.882       32.170        3.987       23.252       19.194       18.162      540.654      368.398      329.841        0.410        0.062       83.341       13.348        0.026      342.648       18.204      863.225
10/16/2013  17:23:00       87.548       53.248        7.612       22.815       22.490       18.196      520.543      505.788      331.106        0.596        0.068      102.470       16.031        0.024      342.618       18.151      863.215
10/16/2013  17:24:00       50.811       39.827       18.727       20.455       14.736       17.145      418.414      217.145      293.963        0.272        0.046       64.560        9.751        0.023      342.618       18.152      863.222
10/16/2013  17:25:00       60.838       47.987       -0.631       17.881        9.069        9.787      319.717       82.242       95.783        0.325        0.025       77.485        6.152        0.006      342.630       18.169      863.229
10/16/2013  17:26:00       34.584       26.802        0.145       23.034       21.075       18.822      530.555      444.164      354.272        0.162        0.066       43.754       11.087        0.064      342.642       18.193      863.246
10/16/2013  17:27:00       21.618       16.820        1.372       21.321       17.325        8.012      454.593      300.167       64.194        0.079        0.041       27.391        5.259        0.037      342.634       18.179      863.257
10/16/2013  17:28:00       27.754       17.143        1.610       13.399       11.551       11.465      179.532      133.422      131.444        0.076        0.022       32.622       11.072        0.115      342.639       18.190      863.255
10/16/2013  17:29:00       47.407       28.492        4.736        9.519        5.437        5.578       90.604       29.566       31.111        0.162        0.008       55.310        4.748        0.007      342.639       18.190      863.247
10/16/2013  17:30:00       50.967       30.010       11.503       14.986       11.234        8.051      224.571      126.212       64.818        0.202        0.021       59.146        5.742        0.009      342.620       18.157      863.250
10/16/2013  17:31:00       38.334       24.668        5.241       22.034        9.162       12.558      485.506       83.950      157.697        0.142        0.036       45.585        6.987        0.023      342.613       18.145      863.249
10/16/2013  17:32:00       27.001       12.480        0.231       17.633       12.503       11.500      310.931      156.330      132.252        0.074        0.030       29.746        2.546        0.007      342.587       18.101      863.243
10/16/2013  17:33:00       23.094       30.308       -6.287       15.557       18.310       14.830      242.028      335.271      219.930        0.114        0.040       38.103       13.793        0.131      342.624       18.165      863.239
10/16/2013  17:34:00       52.690       38.523       -1.346       22.813       17.260       20.265      520.439      297.909      410.651        0.275        0.061       65.271       14.052        0.046      342.634       18.181      863.236
10/16/2013  17:35:00       36.094       17.944       -3.840       20.264       27.277       16.025      410.627      744.029      256.813        0.153        0.071       40.308        9.313        0.053      342.615       18.148      863.240
10/16/2013  17:36:00       47.533       23.869        4.790       16.888       15.718       12.002      285.200      247.068      144.055        0.176        0.034       53.189        9.443        0.032      342.612       18.143      863.239
10/16/2013  17:37:00       26.742       25.456       -3.001       14.872       17.730       11.773      221.175      314.353      138.607        0.102        0.034       36.920        8.840        0.057      342.600       18.123      863.244
10/16/2013  17:38:00        8.842       14.970       -1.335       17.359       14.317       13.786      301.319      204.970      190.055        0.050        0.035       17.386        8.680        0.249      342.600       18.124      863.240
10/16/2013  17:39:00       23.261       24.373       -5.412       23.973       23.958       19.291      574.695      573.964      372.144        0.134        0.076       33.692       19.224        0.326      342.625       18.165      863.225
10/16/2013  17:40:00       30.550       18.089       -0.552       12.358       15.329       10.822      152.728      234.979      117.109        0.088        0.025       35.504        9.125        0.066      342.605       18.130      863.209
10/16/2013  17:41:00       26.066       24.209       -2.402       24.905       18.995       14.067      620.282      360.828      197.886        0.122        0.059       35.574        9.867        0.077      342.599       18.121      863.203
10/16/2013  17:42:00       53.932       38.353        9.698       28.692       22.010       20.910      823.235      484.454      437.225        0.311        0.087       66.179       15.392        0.054      342.568       18.068      863.215
10/16/2013  17:43:00       46.424       86.907      -18.657       25.530       39.177       21.418      651.790     1534.821      458.726        0.635        0.132       98.529       20.635        0.044      342.550       18.039      863.241
10/16/2013  17:44:00       43.695       70.686      -17.994       21.170       37.684       19.725      448.164     1420.073      389.083        0.474        0.113       83.102       15.736        0.036      342.577       18.082      863.247
10/16/2013  17:45:00      107.350       47.485        8.279       30.565       23.656       28.050      934.239      559.603      786.829        0.806        0.114      117.383       17.797        0.023      342.603       18.128      863.216
10/16/2013  17:46:00       51.702       33.915        0.565       38.067       40.943       24.571     1449.068     1676.351      603.756        0.378        0.186       61.833       13.146        0.045      342.484       17.925      863.222
10/16/2013  17:47:00       88.671       57.592       16.955       38.685       29.126       20.341     1496.523      848.317      413.745        0.711        0.138      105.733       10.808        0.010      342.480       17.919      863.224
10/16/2013  17:48:00      126.608       47.149       19.213       46.909       32.801       27.450     2200.479     1075.904      753.524        1.133        0.201      135.103       25.193        0.035      342.543       18.026      863.210
10/16/2013  17:49:00      151.905      106.251       11.244       89.904       43.835       36.901     8082.765     1921.512     1361.714        2.293        0.568      185.376       21.320        0.013      342.565       18.061      863.191
10/16/2013  17:50:00      104.516       83.306       10.853       47.915       50.602       41.806     2295.804     2560.537     1747.726        1.229        0.330      133.655       28.745        0.046      342.524       17.994      863.193
10/16/2013  17:51:00       93.841       57.437        9.035       48.636       40.307       42.986     2365.459     1624.624     1847.786        0.901        0.292      110.023       24.602        0.050      342.397       17.778      863.185
10/16/2013  17:52:00       86.382       54.778       24.197       56.117       38.897       34.043     3149.064     1513.010     1158.933        0.843        0.291      102.286       21.963        0.046      342.419       17.816      863.179
10/16/2013  17:53:00      109.015       71.003       24.993       37.246       24.653       25.116     1387.246      607.786      630.807        1.009        0.131      130.098       14.571        0.013      342.361       17.717      863.193
10/16/2013  17:54:00       80.101       39.068        9.531       62.901       39.134       23.979     3956.482     1531.472      574.992        0.705        0.303       89.121       24.518        0.076      342.332       17.667      863.196
10/16/2013  17:55:00       71.120       55.318        3.545       43.779       36.748       32.918     1916.624     1350.414     1083.563        0.624        0.218       90.101       22.275        0.061      342.303       17.618      863.198
10/16/2013  17:56:00       96.237       88.046        7.539       63.921       59.709       42.313     4085.917     3565.219     1790.405        1.325        0.472      130.436       32.368        0.062      342.396       17.775      863.199
10/16/2013  17:57:00       85.280      106.983       16.713       66.173       72.136       47.830     4378.870     5203.624     2287.673        1.543        0.594      136.813       41.715        0.093      342.446       17.861      863.200
10/16/2013  17:58:00       50.532      107.498      -12.934       64.418       78.084       35.065     4149.628     6097.170     1229.557        1.287        0.574      118.783       36.058        0.092      342.506       17.960      863.194
10/16/2013  17:59:00       37.647       45.003       10.537       58.396       46.223       26.410     3410.145     2136.601      697.513        0.490        0.312       58.674       26.901        0.210      342.459       17.884      863.188
10/16/2013  18:00:00       68.023       84.774      -10.475       63.508       29.104       25.866     4033.310      847.025      669.056        0.874        0.277      108.691       24.110        0.049      342.510       17.970      863.189
10/16/2013  18:01:00       66.024       66.803       -4.570       47.127       39.584       28.033     2220.990     1566.926      785.841        0.671        0.229       93.924       21.841        0.054      342.450       17.868      863.183
10/16/2013  18:02:00       69.648       54.929        2.723       65.048       33.621       30.041     4231.282     1130.370      902.458        0.707        0.313       88.703       21.778        0.060      342.434       17.840      863.173
10/16/2013  18:03:00       21.967      259.022      -32.220       64.796      131.503       64.084     4198.546    17293.107     4106.773        4.710        1.280      259.952       72.100        0.077      342.574       18.075      863.179
10/16/2013  18:04:00       14.611      209.245      -25.210       70.253      128.888       45.332     4935.455    16612.099     2054.961        3.411        1.180      209.755       56.101        0.072      342.541       18.021      863.170
10/16/2013  18:05:00        2.932      150.728      -21.317       48.794       69.366       35.941     2380.891     4811.656     1291.788        1.583        0.424      150.757       28.536        0.036      342.482       17.920      863.180
10/16/2013  18:06:00      -40.312      179.674      -29.335       49.970       53.559       29.728     2497.008     2868.611      883.766        2.051        0.312      184.140       27.787        0.023      342.549       18.037      863.194
10/16/2013  18:07:00       -8.304      155.650      -23.104       31.152       65.341       22.661      970.417     4269.411      513.526        1.529        0.288      155.872       23.870        0.023      342.476       17.911      863.183
10/16/2013  18:08:00      -10.052      129.417      -11.466       57.851       42.645       28.402     3346.754     1818.597      806.669        1.148        0.299      129.807       19.330        0.022      342.459       17.882      863.166
10/16/2013  18:09:00       17.938      120.934       -4.300       53.013       52.212       38.607     2810.372     2726.075     1490.489        1.099        0.351      122.258       31.650        0.067      342.451       17.870      863.168
10/16/2013  18:10:00       20.828       81.968      -11.240       38.542       39.024       20.426     1485.496     1522.857      417.213        0.535        0.171       84.573       21.124        0.062      342.422       17.820      863.174
10/16/2013  18:11:00       45.651      123.224       -8.126       55.672       68.730       43.585     3099.360     4723.836     1899.629        1.353        0.486      131.408       41.023        0.097      342.418       17.814      863.182
10/16/2013  18:12:00      -23.449      176.200      -23.292       59.720       62.321       38.012     3566.471     3883.943     1444.895        2.052        0.445      177.753       24.510        0.019      342.434       17.838      863.161
10/16/2013  18:13:00       -3.546      150.426      -15.304       61.357       62.935       40.516     3764.738     3960.846     1641.546        1.612        0.468      150.468       34.593        0.053      342.432       17.837      863.163
10/16/2013  18:14:00      -28.425      244.997      -25.982       91.353      103.664       56.525     8345.410    10746.307     3195.087        4.189        1.114      246.641       54.663        0.049      342.397       17.775      863.161
10/16/2013  18:15:00      -38.230      250.480      -27.008       56.606       79.420       37.352     3204.267     6307.511     1395.140        3.792        0.545      253.380       35.104        0.019      342.429       17.829      863.170
10/16/2013  18:16:00      -52.427      185.359      -21.580       48.807       82.132       41.452     2382.078     6745.683     1718.255        2.421        0.542      192.631       40.456        0.044      342.386       17.757      863.185
10/16/2013  18:17:00      -69.708      118.428      -11.565      101.016       96.476       49.170    10204.320     9307.708     2417.682        2.047        1.096      137.421       45.411        0.109      342.374       17.738      863.181
10/16/2013  18:18:00      -34.738      135.167      -15.570       42.810       55.843       29.818     1832.736     3118.434      889.083        1.278        0.292      139.559       21.537        0.024      342.368       17.728      863.192
10/16/2013  18:19:00      -40.780      223.740      -25.878       66.025       69.275       42.988     4359.269     4798.991     1847.969        3.170        0.550      227.426       36.154        0.025      342.373       17.734      863.198
10/16/2013  18:20:00      -49.989      162.840      -19.368       57.859      119.281       44.728     3347.672    14227.939     2000.554        2.448        0.979      170.340       63.724        0.140      342.297       17.607      863.217
10/16/2013  18:21:00      -78.883      230.330      -23.307       64.002      122.699       47.000     4096.271    15055.050     2209.022        4.058        1.068      243.463       54.393        0.050      342.315       17.636      863.225
10/16/2013  18:22:00     -113.632      206.688      -33.629       77.903      105.138       47.440     6068.803    11053.936     2250.532        3.806        0.969      235.865       44.739        0.036      342.297       17.604      863.258
10/16/2013  18:23:00      -90.729      206.588      -22.579       78.328       94.334       55.560     6135.218     8898.975     3086.953        3.477        0.906      225.634       57.440        0.065      342.286       17.586      863.270
10/16/2013  18:24:00     -136.944      232.407      -34.417       80.645      103.070       50.537     6503.571    10623.454     2554.005        4.681        0.984      269.753       47.222        0.031      342.278       17.572      863.270
10/16/2013  18:25:00      -93.963      235.446      -24.422       69.211      105.015       48.663     4790.134    11028.229     2368.068        4.152        0.909      253.504       43.459        0.029      342.259       17.539      863.272
10/16/2013  18:26:00     -140.456      242.725      -37.980       70.616      120.995       51.680     4986.566    14639.865     2670.856        5.119        1.115      280.434       50.195        0.032      342.238       17.504      863.268
10/16/2013  18:27:00     -180.057      325.746      -54.086       97.685      118.486       54.700     9542.338    14038.815     2992.074        8.401        1.329      372.197       51.072        0.019      342.228       17.488      863.258
10/16/2013  18:28:00     -181.921      221.418      -42.968      106.512      103.528       68.246    11344.708    10718.048     4657.515        5.534        1.336      286.568       60.065        0.044      342.203       17.445      863.270
10/16/2013  18:29:00     -182.855      344.133      -40.284      103.114      120.251       67.885    10632.544    14460.358     4608.414        9.159        1.485      389.697       68.575        0.031      342.188       17.419      863.281
10/16/2013  18:30:00     -200.030      293.512      -42.174       94.204      115.557       61.857     8874.442    13353.529     3826.315        7.699        1.303      355.191       63.881        0.032      342.183       17.411      863.278
10/16/2013  18:31:00     -189.430      216.774      -39.970       66.428       80.027       51.899     4412.694     6404.336     2693.511        4.899        0.676      287.880       23.971        0.007      342.164       17.378      863.267
10/16/2013  18:32:00     -192.922      256.358      -50.096       83.738       92.962       51.143     7011.988     8641.935     2615.657        6.185        0.913      320.840       45.256        0.020      342.154       17.362      863.247
10/16/2013  18:33:00     -150.329      198.602      -36.517      113.372       94.819       59.709    12853.108     8990.590     3565.199        4.439        1.270      249.082       60.334        0.059      342.127       17.317      863.237
10/16/2013  18:34:00     -116.498      165.035      -15.483       75.839      105.163       54.068     5751.573    11059.220     2923.317        3.039        0.987      202.011       40.239        0.040      342.102       17.274      863.211
10/16/2013  18:35:00     -120.910      251.936      -28.715       99.582      115.449       51.440     9916.530    13328.401     2646.062        5.240        1.295      279.448       60.858        0.047      342.107       17.281      863.212
10/16/2013  18:36:00     -131.030      203.553      -18.247       70.189      108.278       52.213     4926.527    11724.120     2726.215        3.915        0.969      242.080       52.175        0.046      342.088       17.251      863.214
10/16/2013  18:37:00     -123.035      234.004      -31.508       79.029       72.245       44.417     6245.584     5219.396     1972.867        4.216        0.672      264.377       47.045        0.032      342.079       17.235      863.223
10/16/2013  18:38:00      -99.781      203.558      -26.393       59.250       88.520       43.086     3510.584     7835.716     1856.443        3.264        0.660      226.699       37.203        0.027      342.051       17.188      863.233
10/16/2013  18:39:00     -117.800      278.686      -31.598       92.309       99.207       42.049     8520.918     9842.060     1768.094        5.633        1.007      302.561       48.396        0.026      342.028       17.148      863.256
10/16/2013  18:40:00     -116.323      213.780      -32.361       84.332       67.539       44.985     7111.834     4561.470     2023.617        3.699        0.685      243.379       47.399        0.038      342.007       17.111      863.279
10/16/2013  18:41:00      -92.636      219.067      -30.977       71.367       81.663       35.023     5093.282     6668.801     1226.623        3.526        0.649      237.848       37.837        0.025      341.983       17.071      863.283
10/16/2013  18:42:00      -49.880      285.773      -32.121       39.678      103.907       31.121     1574.352    10796.585      968.509        4.926        0.667      290.094       33.499        0.013      341.902       16.933      863.288
10/16/2013  18:43:00      -50.249      321.579      -46.889       59.947       76.968       31.981     3593.670     5924.117     1022.812        5.934        0.527      325.481       19.548        0.004      341.885       16.903      863.285
10/16/2013  18:44:00      -85.974      268.746      -34.875       58.346       64.018       36.195     3404.238     4098.275     1310.071        4.482        0.441      282.163       25.779        0.008      341.862       16.864      863.292
10/16/2013  18:45:00      -85.441      311.399      -34.249       68.756       91.027       35.669     4727.405     8285.888     1272.266        5.986        0.714      322.908       37.217        0.013      341.866       16.870      863.292
10/16/2013  18:46:00     -107.507      188.592      -20.643       79.235       60.130       36.432     6278.181     3615.557     1327.278        2.938        0.561      217.083       33.266        0.023      341.828       16.809      863.288
10/16/2013  18:47:00     -123.446      215.628      -29.114       66.177       78.000       38.695     4379.342     6084.014     1497.339        3.727        0.598      248.464       28.274        0.013      341.832       16.814      863.290
10/16/2013  18:48:00      -75.945      143.963      -20.957       47.715       64.917       33.020     2276.675     4214.278     1090.330        1.726        0.379      162.767       32.866        0.041      341.810       16.780      863.296
10/16/2013  18:49:00      -63.136      104.095       -7.003       46.560       47.050       32.561     2167.790     2213.675     1060.202        1.016        0.272      121.746       25.914        0.045      341.825       16.806      863.304
10/16/2013  18:50:00      -85.007      135.952      -24.559       66.735       94.846       39.664     4453.560     8995.710     1573.256        2.066        0.751      160.340       43.216        0.073      341.823       16.803      863.311
10/16/2013  18:51:00      -90.651      165.688      -22.112       68.833       70.546       36.125     4737.921     4976.777     1305.003        2.359        0.551      188.865       38.205        0.041      341.801       16.763      863.316
10/16/2013  18:52:00      -82.475      153.160      -21.636       64.597       88.332       36.800     4172.830     7802.477     1354.254        2.203        0.666      173.955       41.720        0.058      341.814       16.785      863.332
10/16/2013  18:53:00     -108.229      167.614      -26.586       86.597       72.680       43.643     7498.978     5282.441     1904.733        2.760        0.734      199.520       44.794        0.050      341.816       16.790      863.353
10/16/2013  18:54:00     -173.998      230.671      -47.496       95.258       87.521       55.578     9074.182     7659.988     3088.895        5.278        0.991      288.937       54.929        0.036      341.821       16.795      863.372
10/16/2013  18:55:00     -135.581      314.671      -37.461       76.929      143.986       56.601     5918.042    20731.876     3203.720        7.432        1.493      342.637       50.694        0.022      341.799       16.759      863.384
10/16/2013  18:56:00     -209.502      269.738      -50.965       91.918      103.464       52.333     8448.888    10704.795     2738.790        7.057        1.095      341.540       40.164        0.014      341.835       16.820      863.402
10/16/2013  18:57:00     -109.047      168.315      -17.426       79.716       92.798       51.734     6354.655     8611.514     2676.420        2.908        0.882      200.552       46.105        0.053      341.779       16.725      863.424
10/16/2013  18:58:00     -167.464      213.527      -25.219       95.164       95.175       49.713     9056.129     9058.314     2471.426        4.743        1.029      271.364       50.524        0.035      341.767       16.704      863.437
10/16/2013  18:59:00     -183.929      195.364      -30.460       97.301      104.209       64.321     9467.438    10859.418     4137.222        4.869        1.223      268.323       65.134        0.059      341.790       16.745      863.453
10/16/2013  19:00:00     -207.347      251.518      -58.476       84.891       71.045       49.119     7206.466     5047.417     2412.697        6.217        0.733      325.966       53.037        0.026      341.806       16.771      863.457
10/16/2013  19:01:00     -190.146      156.790      -35.512       87.961       80.827       50.060     7737.137     6533.030     2505.957        3.938        0.839      246.452       52.766        0.046      341.762       16.697      863.440
10/16/2013  19:02:00      -76.220      115.300      -19.710       54.703       57.793       32.637     2992.430     3340.045     1065.151        1.344        0.370      138.216       31.571        0.052      341.749       16.676      863.448
10/16/2013  19:03:00      -89.586      220.790      -27.210       69.693       61.713       36.099     4857.104     3808.444     1303.131        3.374        0.498      238.273       29.184        0.015      341.744       16.664      863.448
10/16/2013  19:04:00     -104.888      168.344      -31.560       49.085       52.881       31.567     2409.372     2796.352      996.464        2.327        0.310      198.346       25.632        0.017      341.739       16.658      863.458
10/16/2013  19:05:00     -125.925      223.925      -34.992       52.878       65.552       41.566     2796.069     4297.124     1727.716        3.802        0.441      256.904       31.965        0.015      341.708       16.603      863.476
10/16/2013  19:06:00     -101.278      173.836      -16.317       60.159       84.176       42.725     3619.099     7085.578     1825.456        2.663        0.627      201.187       37.174        0.034      341.686       16.567      863.481
10/16/2013  19:07:00     -176.543      110.695      -18.532       70.465       92.384       58.886     4965.373     8534.859     3467.599        3.036        0.848      208.377       49.408        0.056      341.714       16.616      863.469
10/16/2013  19:08:00      -74.111      136.826      -25.835       76.022       72.039       44.538     5779.367     5189.647     1983.650        1.891        0.648      155.608       42.399        0.074      341.708       16.608      863.456
10/16/2013  19:09:00     -155.841      163.141      -34.656       69.576       82.316       37.655     4840.859     6775.892     1417.914        3.257        0.652      225.614       30.785        0.019      341.735       16.650      863.452
10/16/2013  19:10:00     -183.697      173.303      -40.813      100.249       85.977       56.031    10049.875     7391.993     3139.515        4.301        1.029      252.544       68.782        0.074      341.730       16.642      863.462
10/16/2013  19:11:00     -130.030      141.887      -23.926       76.378       69.923       48.037     5833.589     4889.206     2307.572        2.532        0.652      192.457       44.974        0.055      341.691       16.578      863.467
10/16/2013  19:12:00     -148.485       81.732      -30.946       58.997       89.964       39.770     3480.662     8093.512     1581.685        2.142        0.658      169.493       34.033        0.040      341.702       16.597      863.478
10/16/2013  19:13:00     -168.959      129.133      -31.187       89.325       80.044       40.138     7978.913     6406.975     1611.026        3.109        0.800      212.656       44.957        0.045      341.739       16.659      863.497
10/16/2013  19:14:00      -51.256       41.665        2.583       58.146       48.253       31.031     3380.977     2328.358      962.922        0.552        0.334       66.054       33.952        0.264      341.652       16.513      863.496
10/16/2013  19:15:00     -134.230      107.991      -38.494       46.102       68.535       34.713     2125.377     4696.981     1204.968        1.959        0.401      172.278       24.535        0.020      341.673       16.547      863.505
10/16/2013  19:16:00      -44.301       24.793       -9.747       35.497       37.070       22.337     1260.027     1374.154      498.931        0.290        0.157       50.767       10.559        0.043      341.664       16.534      863.523
10/16/2013  19:17:00      -63.318        1.033       -2.981       39.249       26.131       31.798     1540.470      682.838     1011.138        0.363        0.162       63.327       25.456        0.162      341.614       16.449      863.515
10/16/2013  19:18:00      -97.921       82.280      -19.992       42.686       51.705       28.122     1822.115     2673.389      790.823        1.102        0.264      127.900       15.254        0.014      341.631       16.479      863.528
10/16/2013  19:19:00     -120.797       64.780      -21.282       38.376       43.092       25.219     1472.748     1856.897      636.000        1.160        0.198      137.071       17.239        0.016      341.643       16.499      863.548
10/16/2013  19:20:00     -110.564       80.427      -20.530       41.927       61.362       25.692     1757.866     3765.243      660.078        1.265        0.309      136.722       22.865        0.028      341.597       16.420      863.555
10/16/2013  19:21:00      -50.436       44.789       -4.787       37.487       36.453       20.602     1405.299     1328.796      424.455        0.387        0.158       67.452       19.526        0.084      341.529       16.305      863.558
10/16/2013  19:22:00      -43.335       28.046       -5.628       22.487       21.595       15.142      505.655      466.333      229.270        0.195        0.060       51.618        6.682        0.017      341.550       16.339      863.567
10/16/2013  19:23:00      -62.319      -23.593       -7.280       35.207       38.301       28.472     1239.546     1466.953      810.657        0.400        0.176       66.635       24.984        0.141      341.544       16.330      863.562
10/16/2013  19:24:00      -62.970       15.066       -6.019       35.488       39.762       22.281     1259.411     1581.051      496.427        0.378        0.167       64.748       18.504        0.082      341.512       16.276      863.556
10/16/2013  19:25:00     -130.356       36.160       -7.396       60.378       60.230       38.541     3645.512     3627.648     1485.441        1.356        0.438      135.278       38.908        0.083      341.501       16.256      863.559
10/16/2013  19:26:00     -100.136      -11.667      -16.218       38.555       38.667       24.186     1486.465     1495.105      584.952        0.700        0.178      100.813       21.334        0.045      341.423       16.125      863.567
10/16/2013  19:27:00     -113.982      -35.177       -6.684       38.787       22.101       17.231     1504.458      488.435      296.916        0.828        0.114      119.287        8.096        0.005      341.408       16.099      863.577
10/16/2013  19:28:00     -130.009       11.708      -15.663       52.360       55.506       25.014     2741.610     3080.917      625.699        1.187        0.322      130.535       26.601        0.042      341.447       16.166      863.581
10/16/2013  19:29:00     -106.653      -26.142       -3.962       42.512       30.607       21.900     1807.304      936.783      479.626        0.765        0.161      109.810       15.875        0.021      341.359       16.017      863.567
10/16/2013  19:30:00     -125.363      -45.846       -9.921       56.636       28.606       24.774     3207.620      818.277      613.740        1.128        0.232      133.483       24.156        0.033      341.364       16.025      863.570
10/16/2013  19:31:00      -92.035      -22.715      -10.882       54.875       52.027       32.262     3011.228     2706.855     1040.861        0.793        0.338       94.797       27.256        0.083      341.358       16.013      863.572
10/16/2013  19:32:00     -100.815       16.154      -20.693       69.046       42.492       33.062     4767.320     1805.607     1093.122        0.926        0.383      102.101       32.690        0.103      341.396       16.078      863.574
10/16/2013  19:33:00      -56.591       26.450        4.976       57.555       44.167       28.582     3312.634     1950.701      816.944        0.500        0.304       62.467       25.070        0.161      341.375       16.044      863.564
10/16/2013  19:34:00      -44.704       17.176       -8.665       31.500       39.751       17.741      992.230     1580.155      314.734        0.263        0.144       47.890       13.259        0.077      341.280       15.884      863.572
10/16/2013  19:35:00      -64.594       10.214        4.744       61.282       42.118       25.219     3755.544     1773.892      636.008        0.523        0.308       65.396       18.269        0.078      341.296       15.910      863.581
10/16/2013  19:36:00     -135.516      141.078      -30.425       74.086       88.142       40.163     5488.806     7768.975     1613.080        2.703        0.744      195.622       38.937        0.040      341.370       16.033      863.613
10/16/2013  19:37:00     -136.704        9.786       -2.169       87.706      111.572       42.136     7692.298    12448.351     1775.468        2.035        1.096      137.054       34.710        0.064      341.233       15.803      863.617
10/16/2013  19:38:00     -132.373       47.753      -26.692       65.492       41.716       25.924     4289.170     1740.190      672.034        1.361        0.335      140.723       18.302        0.017      341.272       15.869      863.630
10/16/2013  19:39:00     -122.895       68.252      -17.021       48.762       66.949       32.426     2377.715     4482.200     1051.433        1.398        0.396      140.575       31.766        0.051      341.196       15.742      863.636
10/16/2013  19:40:00      -91.663       58.907       -8.486       55.116       47.950       28.458     3037.827     2299.222      809.879        0.904        0.307      108.959       29.253        0.072      341.177       15.708      863.647
10/16/2013  19:41:00     -114.034      181.792      -20.257       60.253       64.775       40.346     3630.453     4195.824     1627.773        2.796        0.473      214.598       39.535        0.034      341.181       15.713      863.664
10/16/2013  19:42:00     -176.212      159.904      -27.434       72.365      116.166       47.215     5236.650    13494.521     2229.282        3.916        1.048      237.950       53.703        0.051      341.270       15.862      863.685
10/16/2013  19:43:00     -101.711      -15.531       -7.493       66.281       75.532       29.632     4393.223     5705.042      878.055        1.081        0.549      102.890       26.064        0.064      341.266       15.859      863.700
10/16/2013  19:44:00     -213.499      -66.907      -16.121       85.924       73.076       42.471     7382.904     5340.170     1803.821        3.242        0.726      223.737       35.737        0.026      341.257       15.841      863.696
10/16/2013  19:45:00     -379.096     -107.957      -27.053      101.853       64.890       49.319    10374.130     4210.716     2432.405        8.656        0.851      394.168       39.022        0.010      341.292       15.901      863.713
10/16/2013  19:46:00     -270.860      -21.994      -28.651       70.067       72.239       33.957     4909.382     5218.450     1153.050        4.297        0.564      271.751       33.725        0.015      341.260       15.846      863.723
10/16/2013  19:47:00     -121.887      -31.383        1.971       93.247       58.827       32.980     8695.040     3460.623     1087.673        1.454        0.662      125.862       27.152        0.047      341.235       15.807      863.720
10/16/2013  19:48:00     -252.898      -44.674       -5.801       89.781       92.416       38.886     8060.557     8540.716     1512.085        4.205        0.906      256.814       37.085        0.021      341.242       15.815      863.722
10/16/2013  19:49:00     -204.877        6.697      -20.820       74.452       57.183       34.703     5543.103     3269.911     1204.317        2.623        0.501      204.986       36.840        0.032      341.215       15.769      863.740
10/16/2013  19:50:00     -160.303      -19.030      -13.260       64.925       41.964       31.295     4215.258     1760.943      979.385        1.659        0.348      161.429       33.543        0.043      341.162       15.683      863.739
10/16/2013  19:51:00     -146.931       34.664      -17.249       61.438       54.451       22.513     3774.573     2964.868      506.819        1.517        0.362      150.965       21.727        0.021      341.120       15.611      863.755
10/16/2013  19:52:00     -199.019      -18.624      -13.052       66.403       54.243       33.413     4409.365     2942.269     1116.439        2.430        0.423      199.889       30.822        0.024      341.046       15.483      863.766
10/16/2013  19:53:00     -128.656      -19.280       -4.611       84.001       64.583       31.208     7056.101     4170.985      973.914        1.457        0.610      130.093       42.808        0.108      341.012       15.430      863.766
10/16/2013  19:54:00      -66.861       -1.491        5.073       61.118       52.536       37.078     3735.374     2760.078     1374.772        0.618        0.394       66.878       27.271        0.166      340.917       15.269      863.767
10/16/2013  19:55:00     -123.715       57.605      -16.407       63.799       60.576       26.815     4070.286     3669.421      719.070        1.367        0.423      136.469       22.849        0.028      340.963       15.347      863.779
10/16/2013  19:56:00     -120.407       26.996      -17.980       31.991       38.768       26.165     1023.445     1502.962      684.630        0.938        0.161      123.396       21.008        0.029      340.952       15.327      863.803
10/16/2013  19:57:00     -109.895      -15.567        3.386       83.320       52.949       34.620     6942.245     2803.585     1198.572        1.164        0.547      110.992       11.434        0.011      340.922       15.276      863.781
10/16/2013  19:58:00     -107.466      100.193      -13.063       79.799      134.422       60.006     6367.921    18069.347     3600.774        2.489        1.402      146.927       59.010        0.161      340.996       15.400      863.788
10/16/2013  19:59:00     -166.543      161.479      -22.085       96.514      124.748       61.372     9315.031    15561.984     3766.556        4.147        1.432      231.974       66.460        0.082      341.128       15.622      863.792
10/16/2013  20:00:00      -61.778        6.883       -6.624       67.862       91.238       41.215     4605.306     8324.371     1698.703        0.927        0.731       62.161       31.497        0.257      341.064       15.517      863.792
10/16/2013  20:01:00     -210.640      170.751      -30.879      126.052      129.179       46.169    15889.155    16687.173     2131.554        5.459        1.735      271.155       48.792        0.032      341.075       15.533      863.793
10/16/2013  20:02:00     -171.682       90.524      -38.560       95.412       74.128       49.147     9103.471     5495.020     2415.387        2.808        0.851      194.086       47.268        0.059      341.032       15.460      863.787
10/16/2013  20:03:00      -90.767       48.092       -5.837       78.618      112.941       53.856     6180.716    12755.628     2900.441        1.621        1.092      102.720       42.348        0.170      340.988       15.389      863.802
10/16/2013  20:04:00     -154.213       88.208      -26.568       89.814      108.168       46.183     8066.498    11700.336     2132.904        2.708        1.095      177.658       35.903        0.041      340.967       15.350      863.791
10/16/2013  20:05:00     -230.819       86.841      -30.479       78.700       93.215       53.309     6193.730     8689.060     2841.869        3.973        0.886      246.615       45.307        0.034      340.993       15.393      863.799
10/16/2013  20:06:00     -161.516      130.642      -38.907       65.995       58.032       41.565     4355.376     3367.689     1727.617        2.706        0.473      207.737       37.926        0.033      341.010       15.422      863.817
10/16/2013  20:07:00     -111.528       97.249      -18.182       59.884       75.317       39.950     3586.144     5672.594     1596.041        1.654        0.543      147.972       41.575        0.079      340.957       15.337      863.812
10/16/2013  20:08:00      -79.340       80.594      -11.795       49.506       58.142       38.183     2450.866     3380.452     1457.934        1.011        0.364      113.094       32.652        0.083      340.939       15.306      863.815
10/16/2013  20:09:00     -107.629      103.196      -22.612       56.216       49.536       37.291     3160.248     2453.861     1390.613        1.487        0.350      149.109       25.814        0.030      340.993       15.397      863.808
10/16/2013  20:10:00     -149.942       -6.141      -10.174       86.873       86.685       50.735     7546.864     7514.246     2574.005        2.013        0.882      150.068       40.199        0.072      340.955       15.331      863.801
10/16/2013  20:11:00      -88.612       82.871       -2.693       62.099       82.294       46.744     3856.230     6772.306     2185.032        1.377        0.641      121.325       45.905        0.143      340.921       15.274      863.800
10/16/2013  20:12:00     -120.787      132.322      -17.825       62.210       78.858       51.181     3870.046     6218.597     2619.519        2.256        0.635      179.161       41.827        0.055      341.001       15.408      863.797
10/16/2013  20:13:00     -104.963       72.971      -14.338       74.778       55.201       42.586     5591.782     3047.133     1813.541        1.350        0.523      127.836       37.915        0.088      340.959       15.339      863.793
10/16/2013  20:14:00     -194.320      198.961      -44.711       92.440      106.889       62.548     8545.223    11425.307     3912.265        5.161        1.194      278.111       68.512        0.061      340.989       15.387      863.806
10/16/2013  20:15:00     -161.421      150.577      -20.233       92.603       78.609       50.063     8575.294     6179.364     2506.337        3.320        0.863      220.749       37.662        0.029      340.968       15.351      863.800
10/16/2013  20:16:00     -145.560      211.909      -36.062       99.888       97.492       48.595     9977.551     9504.757     2361.485        4.461        1.092      257.085       56.545        0.048      340.987       15.386      863.809
10/16/2013  20:17:00     -192.968      189.312      -38.298      112.089       89.356       60.986    12563.998     7984.540     3719.298        4.940        1.213      270.325       65.202        0.058      340.997       15.401      863.829
10/16/2013  20:18:00     -149.623      165.951      -14.545       89.107       85.341       51.882     7940.018     7283.150     2691.699        3.402        0.896      223.443       48.199        0.047      340.936       15.298      863.846
10/16/2013  20:19:00     -179.800       92.110      -25.282       98.437       54.241       41.216     9689.877     2942.078     1698.792        2.789        0.717      202.021       31.245        0.024      340.941       15.309      863.866
10/16/2013  20:20:00     -182.065       97.651      -27.336      105.025       57.091       39.326    11030.291     3259.411     1546.546        2.963        0.792      206.600       31.431        0.023      340.980       15.373      863.871
10/16/2013  20:21:00     -163.140      141.832      -33.048       90.999       65.114       44.654     8280.837     4239.867     1994.008        3.117        0.726      216.174       37.403        0.030      340.935       15.297      863.877
10/16/2013  20:22:00     -112.477      124.962      -13.649       41.427       68.474       34.198     1716.192     4688.642     1169.521        1.801        0.379      168.126       21.370        0.016      340.832       15.125      863.895
10/16/2013  20:23:00     -159.874       72.891      -23.294       75.099       63.074       36.552     5639.826     3978.369     1336.083        2.118        0.548      175.707       23.595        0.018      340.822       15.106      863.902
10/16/2013  20:24:00     -155.065       81.389      -19.623       50.559       74.691       39.993     2556.166     5578.754     1599.457        2.039        0.487      175.127       39.035        0.050      340.768       15.014      863.918
10/16/2013  20:25:00      -79.926        3.656       -5.671       51.307       75.329       39.749     2632.378     5674.497     1579.973        0.816        0.494       80.009       35.470        0.197      340.687       14.879      863.921
10/16/2013  20:26:00      -99.679       83.722      -16.005       49.548       77.511       35.121     2455.010     6007.986     1233.519        1.345        0.485      130.174       20.437        0.025      340.764       15.009      863.919
10/16/2013  20:27:00     -195.757       39.753      -39.638       61.281      121.224       43.793     3755.399    14695.195     1917.812        3.092        1.018      199.753       42.057        0.044      340.741       14.968      863.935
10/16/2013  20:28:00     -231.771      -63.242      -33.556       87.917      107.305       54.985     7729.412    11514.287     3023.335        4.055        1.113      240.245       37.467        0.024      340.714       14.923      863.928
10/16/2013  20:29:00     -211.499        1.368      -36.324       76.487      133.415       45.966     5850.330    17799.511     2112.827        3.590        1.288      211.504       35.191        0.028      340.705       14.907      863.928
10/16/2013  20:30:00     -201.630      110.946      -37.680      110.873      109.490       60.376    12292.832    11988.093     3645.280        4.115        1.396      230.138       66.452        0.083      340.754       14.992      863.947
10/16/2013  20:31:00     -215.877      208.097      -39.316      108.009      135.704       67.478    11665.985    18415.634     4553.215        6.304        1.732      299.845       66.537        0.049      340.746       14.976      863.941
10/16/2013  20:32:00     -193.792      219.821      -37.896       96.041       84.424       57.444     9223.821     7127.390     3299.817        5.348        0.983      293.047       50.805        0.030      340.761       15.002      863.961
10/16/2013  20:33:00     -190.865      147.484      -41.161       97.325       89.071       53.495     9472.114     7933.555     2861.762        4.007        1.013      241.207       62.792        0.068      340.762       15.004      863.961
10/16/2013  20:34:00     -181.872      120.775      -44.200      105.126       99.900       48.448    11051.377     9980.076     2347.236        3.649        1.169      218.321       42.193        0.037      340.718       14.929      863.954
10/16/2013  20:35:00      -68.608        4.251       -2.150       65.569       47.004       38.713     4299.229     2209.384     1498.726        0.637        0.400       68.740       32.369        0.222      340.616       14.760      863.965
10/16/2013  20:36:00     -191.793       35.737      -15.046      110.260       85.513       54.483    12157.202     7312.502     2968.427        3.036        1.122      195.094       68.930        0.125      340.647       14.810      863.958
10/16/2013  20:37:00     -132.811      -16.938      -18.532       50.821       66.948       27.911     2582.759     4482.084      779.036        1.305        0.392      133.886       25.230        0.036      340.597       14.726      863.966
10/16/2013  20:38:00     -105.476       72.113      -22.828       38.123       71.651       34.550     1453.345     5133.913     1193.717        1.231        0.389      127.771       36.100        0.080      340.609       14.746      863.967
10/16/2013  20:39:00     -120.887       61.015      -26.623       67.926       53.354       32.049     4613.893     2846.624     1027.142        1.376        0.424      135.412       33.066        0.060      340.663       14.839      863.982
10/16/2013  20:40:00     -167.919      102.934      -21.047       82.392       57.181       39.115     6788.453     3269.624     1529.957        2.541        0.579      196.958       29.064        0.022      340.658       14.829      864.007
10/16/2013  20:41:00     -131.260       67.286      -19.212       79.084       49.118       46.384     6254.215     2412.623     2151.436        1.647        0.541      147.501       44.961        0.093      340.700       14.899      864.014
10/16/2013  20:42:00     -134.317       62.263       -6.125      112.633      128.614       67.035    12686.286    16541.545     4493.701        2.783        1.686      148.046       58.896        0.158      340.739       14.965      864.021
10/16/2013  20:43:00     -237.155      -28.698      -30.157       74.064      119.751       46.496     5485.456    14340.314     2161.880        3.998        1.099      238.886       38.142        0.025      340.641       14.797      864.057
10/16/2013  20:44:00     -183.739       38.700      -28.705      118.449       99.899       51.626    14030.220     9979.752     2665.227        3.137        1.334      187.771       43.607        0.054      340.571       14.681      864.081
10/16/2013  20:45:00      -78.347      167.778      -18.285       75.131       78.973       45.397     5644.649     6236.799     2060.929        2.428        0.697      185.170       45.142        0.059      340.584       14.704      864.081
10/16/2013  20:46:00     -190.114      300.641      -60.768       92.782       99.089       51.583     8608.590     9818.616     2660.787        7.565        1.054      355.708       59.491        0.028      340.781       15.035      864.086
10/16/2013  20:47:00      -99.641      167.889      -21.998       68.296       56.703       29.249     4664.292     3215.268      855.512        2.367        0.437      195.231       21.985        0.013      340.734       14.956      864.095
10/16/2013  20:48:00     -144.893       37.674       -8.971       70.187       57.185       42.812     4926.259     3270.171     1832.910        1.626        0.501      149.711       39.455        0.069      340.679       14.866      864.148
10/16/2013  20:49:00     -199.017       83.610      -24.667       64.892       63.017       39.381     4210.913     3971.145     1550.854        2.847        0.487      215.867       30.155        0.020      340.714       14.923      864.177
10/16/2013  20:50:00     -208.865      211.820      -38.778       95.828       86.220       46.359     9182.919     7433.921     2149.197        5.438        0.938      297.477       45.254        0.023      340.714       14.923      864.173
10/16/2013  20:51:00     -149.271      267.944      -35.615       59.414       78.519       40.985     3530.026     6165.201     1679.734        5.336        0.569      306.718       39.184        0.016      340.683       14.869      864.176
10/16/2013  20:52:00     -149.385      242.134      -42.673       84.783       87.273       51.314     7188.168     7616.547     2633.103        5.010        0.872      284.508       47.942        0.028      340.684       14.870      864.179
10/16/2013  20:53:00     -142.649      137.459      -31.321       49.206       87.960       39.510     2421.279     7736.959     1561.017        2.597        0.586      198.100       27.324        0.019      340.615       14.756      864.185
10/16/2013  20:54:00      -70.614      -19.897       -3.897       92.947       56.069       52.377     8639.052     3143.702     2743.345        0.996        0.726       73.364       43.890        0.358      340.591       14.716      864.204
10/16/2013  20:55:00      -76.003      -48.811        4.801       70.340       39.808       24.774     4947.729     1584.649      613.769        0.766        0.357       90.327       28.249        0.098      340.454       14.486      864.196
10/16/2013  20:56:00      -83.184      -16.451       -5.827       51.903       34.963       23.839     2693.963     1222.437      568.287        0.585        0.224       84.795       17.335        0.042      340.509       14.579      864.194
10/16/2013  20:57:00      -76.182      -48.583        1.798       66.721       35.952       25.527     4451.689     1292.571      651.619        0.728        0.320       90.355       25.507        0.080      340.508       14.577      864.185
10/16/2013  20:58:00     -137.381       -4.815      -14.939       51.203       54.527       28.194     2621.746     2973.211      794.910        1.275        0.319      137.465       26.001        0.036      340.438       14.459      864.212
10/16/2013  20:59:00     -103.290       12.975      -16.934       31.936       40.363       22.015     1019.928     1629.192      484.642        0.713        0.157      104.102       19.335        0.034      340.359       14.325      864.213
10/16/2013  21:00:00     -117.927      -19.562      -16.859       31.590       42.673       31.219      997.930     1821.024      974.621        0.918        0.190      119.538       27.433        0.053      340.455       14.486      864.214
10/16/2013  21:01:00     -139.322      -12.121      -17.627       54.766       31.665       23.921     2999.367     1002.653      572.192        1.222        0.229      139.848       25.761        0.034      340.407       14.405      864.244
10/16/2013  21:02:00      -77.334      -62.294        0.284       56.436       32.749       27.581     3185.025     1072.495      760.729        0.744        0.251       99.303       21.990        0.049      340.333       14.282      864.258
10/16/2013  21:03:00      -85.532      -57.962       -2.195       33.228       27.315       18.763     1104.067      746.087      352.053        0.644        0.110      103.321       19.080        0.034      340.361       14.328      864.257
10/16/2013  21:04:00      -52.523      -57.476       -1.976       33.453       24.622       14.154     1119.101      606.255      200.328        0.400        0.096       77.860        9.384        0.015      340.361       14.329      864.256
10/16/2013  21:05:00     -152.878      -71.647      -16.277       57.392       48.789       22.081     3293.846     2380.374      487.588        1.746        0.308      168.835       21.104        0.016      340.349       14.306      864.277
10/16/2013  21:06:00     -185.061      -21.318      -11.314       75.302       51.469       38.396     5670.447     2649.107     1474.264        2.231        0.490      186.284       34.340        0.034      340.408       14.405      864.277
10/16/2013  21:07:00     -126.548      -67.704       -6.784       43.536       49.692       24.393     1895.387     2469.328      595.032        1.280        0.248      143.521       20.369        0.020      340.467       14.506      864.283
10/16/2013  21:08:00      -78.370      -77.052        6.794       77.761       58.491       34.001     6046.849     3421.236     1156.099        1.137        0.531      109.904       38.738        0.124      340.596       14.725      864.283
10/16/2013  21:09:00     -185.753      -23.274      -22.836       47.069       44.287       30.955     2215.472     1961.332      958.222        2.035        0.257      187.205       14.898        0.006      340.623       14.770      864.293
10/16/2013  21:10:00     -135.646      -46.136        0.612       67.937       36.925       29.637     4615.417     1363.428      878.381        1.369        0.343      143.277       33.449        0.055      340.680       14.868      864.305
10/16/2013  21:11:00      -96.392      -22.046       -0.529       45.040       31.294       19.952     2028.571      979.293      398.062        0.659        0.170       98.881       18.159        0.034      340.592       14.719      864.321
10/16/2013  21:12:00      -90.872      -52.388       -8.485       26.369       27.272       14.957      695.309      743.766      223.710        0.637        0.083      104.892        9.724        0.009      340.689       14.884      864.316
10/16/2013  21:13:00     -117.458      -50.741       -7.814       27.842       25.769       17.742      775.195      664.045      314.777        0.909        0.088      127.949       12.362        0.009      340.636       14.795      864.331
10/16/2013  21:14:00      -92.913      -54.608       -3.839       28.978       30.671       18.908      839.724      940.730      357.521        0.688        0.107      107.773       17.447        0.026      340.687       14.879      864.345
10/16/2013  21:15:00      -35.573      -24.834       -0.373       29.502       14.036       12.604      870.352      197.001      158.851        0.155        0.061       43.384        9.990        0.053      340.610       14.750      864.343
10/16/2013  21:16:00      -48.778      -48.683        6.450       21.275       21.219       20.024      452.609      450.248      400.946        0.305        0.065       68.915       13.242        0.037      340.589       14.714      864.340
10/16/2013  21:17:00       21.625       -8.466        4.419       23.929       23.536       14.894      572.602      553.927      221.822        0.095        0.067       23.223        6.495        0.078      340.459       14.495      864.323
10/16/2013  21:18:00        5.961       21.016      -11.156       17.098       16.295       11.085      292.347      265.528      122.878        0.064        0.034       21.845       11.817        0.293      340.450       14.478      864.315
10/16/2013  21:19:00      -30.743       -9.457       21.292       52.347       37.675       16.785     2740.175     1419.375      281.727        0.296        0.222       32.165       11.084        0.119      340.434       14.451      864.324
10/16/2013  21:20:00      -81.801      -57.229        9.548       35.017       28.129       19.289     1226.177      791.215      372.058        0.622        0.119       99.833       14.523        0.021      340.115       13.912      864.331
10/16/2013  21:21:00      -53.753      -83.878       -2.795       42.617       52.414       22.278     1816.243     2747.272      496.301        0.750        0.253       99.623       23.322        0.055      340.207       14.069      864.332
10/16/2013  21:22:00      -62.036      -94.866        5.665       39.593       51.585       24.519     1567.577     2661.002      601.159        0.885        0.241      113.349       27.164        0.057      340.230       14.108      864.327
10/16/2013  21:23:00      -82.122     -118.141        3.040       49.363       63.220       25.203     2436.742     3996.749      635.197        1.389        0.353      143.880       29.587        0.042      340.193       14.043      864.329
10/16/2013  21:24:00      -93.255      -82.003        0.453       51.087       49.131       30.500     2609.930     2413.874      930.263        1.069        0.298      124.182       28.952        0.054      340.072       13.841      864.335
10/16/2013  21:25:00      -79.283      -75.620       -3.815       52.150       51.027       33.847     2719.668     2603.724     1145.604        0.924        0.323      109.563       33.860        0.096      340.028       13.767      864.337
10/16/2013  21:26:00     -116.296     -108.971       -6.033       27.485       28.744       18.935      755.435      826.201      358.545        1.369        0.097      159.372       10.949        0.005      340.032       13.771      864.342
10/16/2013  21:27:00      -85.828      -95.345       -4.510       46.991       35.205       16.560     2208.172     1239.370      274.236        1.010        0.186      128.285       20.049        0.024      340.062       13.824      864.333
10/16/2013  21:28:00      -41.631      -77.641        2.751       34.158       35.743       19.553     1166.783     1277.578      382.315        0.530        0.141       88.099       17.526        0.040      340.103       13.893      864.318
10/16/2013  21:29:00      -51.279      -47.758        2.266       54.628       26.963       27.996     2984.245      726.990      783.772        0.470        0.225       70.074       27.202        0.151      339.965       13.661      864.305
10/16/2013  21:30:00      -60.904      -54.934       -0.308       45.844       47.963       22.525     2101.682     2300.421      507.387        0.582        0.245       82.019       19.537        0.057      339.873       13.505      864.295
10/16/2013  21:31:00      -85.216      -72.217        2.052       48.251       34.313       24.066     2328.197     1177.392      579.195        0.828        0.204      111.701       23.600        0.045      339.815       13.407      864.281
10/16/2013  21:32:00      -34.675      -35.146        6.289       38.348       33.447       18.258     1470.583     1118.724      333.337        0.270        0.146       49.373       21.063        0.182      339.762       13.317      864.259
10/16/2013  21:33:00      -97.342      -52.592       -0.284       33.322       43.394       23.087     1110.345     1883.021      533.008        0.788        0.176      110.641       20.402        0.034      339.793       13.370      864.248
10/16/2013  21:34:00      -12.004      -58.932        4.098       29.185       24.199       19.481      851.784      585.589      379.515        0.273        0.091       60.142       15.811        0.069      339.769       13.330      864.255
10/16/2013  21:35:00      -29.907      -84.418       -4.388       31.078       17.851       13.520      965.835      318.672      182.801        0.475        0.073       89.559        9.619        0.012      339.819       13.413      864.263
10/16/2013  21:36:00      -54.013      -68.437      -12.731       24.716       26.265       15.781      610.861      689.856      249.044        0.466        0.077       87.184        6.922        0.006      339.775       13.340      864.270
10/16/2013  21:37:00      -78.843      -77.393       -7.874       41.207       30.109       16.257     1698.056      906.535      264.276        0.757        0.143      110.480       19.717        0.032      339.774       13.338      864.271
10/16/2013  21:38:00      -82.843      -65.716       -2.159       29.490       31.301       20.101      869.648      979.771      404.063        0.672        0.113      105.742       14.181        0.018      339.710       13.230      864.281
10/16/2013  21:39:00      -87.533      -78.955        2.624       31.072       35.489       21.772      965.465     1259.451      474.028        0.830        0.135      117.881       20.544        0.030      339.609       13.059      864.301
10/16/2013  21:40:00      -81.082      -24.227       11.688       49.076       24.393       17.163     2408.465      595.026      294.569        0.530        0.165       84.624       17.633        0.043      339.501       12.877      864.316
10/16/2013  21:41:00      -47.595      -36.590       -2.836       36.947       24.475       15.633     1365.066      599.025      244.389        0.291        0.110       60.034       14.338        0.057      339.496       12.870      864.328
10/16/2013  21:42:00      -79.299      -11.599       -6.359       27.547       21.910       13.221      758.864      480.028      174.793        0.394        0.071       80.143       11.893        0.022      339.482       12.845      864.330
10/16/2013  21:43:00      -92.118        0.499       -4.094       21.191       17.953       15.149      449.071      322.293      229.490        0.475        0.050       92.119       12.365        0.018      339.433       12.763      864.348
10/16/2013  21:44:00     -112.883        4.792       -9.574       32.174       27.605       15.408     1035.166      762.020      237.410        0.745        0.102      112.985       11.234        0.010      339.447       12.787      864.355
10/16/2013  21:45:00      -87.847       -2.814       -7.017       36.104       22.690       18.552     1303.526      514.848      344.175        0.497        0.108       87.892       19.312        0.048      339.400       12.707      864.365
10/16/2013  21:46:00      -61.963      -16.915       -4.163       19.907       21.021       12.836      396.299      441.879      164.773        0.257        0.050       64.231       14.046        0.048      339.429       12.755      864.377
10/16/2013  21:47:00      -64.659      -28.703        0.415       22.160       11.948       13.269      491.066      142.743      176.074        0.291        0.040       70.743       11.815        0.028      339.428       12.755      864.384
10/16/2013  21:48:00      -78.489      -22.883      -13.036       10.834       13.401        9.068      117.365      179.583       82.223        0.362        0.019       81.757        5.946        0.005      339.259       12.470      864.386
10/16/2013  21:49:00      -72.927       -2.546       -4.666        9.578        9.708        7.316       91.747       94.239       53.519        0.279        0.012       72.971        3.675        0.003      339.367       12.652      864.382
10/16/2013  21:50:00      -40.360       18.667       -9.002       14.409        7.413        7.692      207.616       54.951       59.162        0.119        0.016       44.468        7.367        0.027      339.649       13.124      864.383
10/16/2013  21:51:00      -56.882       19.849       -7.093       22.930       10.611        8.494      525.766      112.588       72.142        0.220        0.036       60.245        5.862        0.009      339.717       13.243      864.380
10/16/2013  21:52:00      -76.943      -17.817      -15.782       27.124       19.676        7.731      735.702      387.151       59.764        0.383        0.059       78.979        6.740        0.007      339.363       12.645      864.397
10/16/2013  21:53:00      -30.796      -13.970       -8.332        7.823       10.168        6.045       61.200      103.379       36.546        0.071        0.010       33.817        4.454        0.017      339.296       12.533      864.408
10/16/2013  21:54:00      -31.201      -25.504       -5.397       22.136        7.176        6.663      489.996       51.501       44.394        0.112        0.029       40.298        6.696        0.028      339.597       13.040      864.430
10/16/2013  21:55:00        4.785       -4.735       -3.213       11.035       14.288        6.727      121.764      204.154       45.256        0.021        0.019        6.732        4.669        0.481      339.725       13.256      864.430
10/16/2013  21:56:00      -19.643      -13.505       -0.480       33.771       11.534        7.921     1140.479      133.029       62.738        0.095        0.067       23.838       11.066        0.215      339.622       13.082      864.414
10/16/2013  21:57:00      -93.590      -27.780      -13.053       24.130       21.622       13.020      582.276      467.517      169.522        0.546        0.061       97.626        9.999        0.010      338.937       11.928      864.429
10/16/2013  21:58:00      -53.473      -30.475       -4.901       17.944       17.556        6.902      321.978      308.219       47.631        0.224        0.034       61.548        3.976        0.004      338.978       11.997      864.423
10/16/2013  21:59:00      -15.943        9.117       -5.120       16.850       19.558        6.244      283.918      382.528       38.984        0.053        0.035       18.365        7.865        0.183      339.415       12.734      864.409
10/16/2013  22:00:00       39.487       36.957        2.921       11.039       13.979       12.423      121.865      195.425      154.320        0.170        0.024       54.084       10.428        0.037      339.573       12.999      864.410
10/16/2013  22:01:00       74.026       39.538        9.899       13.548       10.206       11.409      183.554      104.172      130.175        0.378        0.021       83.924        8.399        0.010      339.436       12.769      864.410
10/16/2013  22:02:00       52.193       19.181        1.149       15.336       21.026       13.427      235.186      442.102      180.294        0.198        0.043       55.606        5.844        0.011      339.058       12.131      864.403
10/16/2013  22:03:00       16.410      -16.965       -5.092       18.947       10.479        7.119      359.000      109.809       50.687        0.055        0.026       23.603        7.206        0.093      339.112       12.221      864.425
10/16/2013  22:04:00      -34.306      -23.480       -7.923       13.559        7.251        7.469      183.845       52.580       55.786        0.104        0.015       41.572        4.765        0.013      338.976       11.992      864.463
10/16/2013  22:05:00        4.804        1.502       15.529        9.843       13.431       15.192       96.884      180.384      230.791        0.039        0.025        5.033       12.071        5.752      338.859       11.798      864.474
10/16/2013  22:06:00       -2.635       19.396       35.577       11.102       18.942       10.940      123.254      358.790      119.693        0.113        0.030       19.575        9.067        0.215      338.783       11.669      864.495
10/16/2013  22:07:00      -30.078      -14.832        0.367       11.561       12.129        9.042      133.668      147.123       81.762        0.074        0.018       33.536        8.414        0.063      338.675       11.487      864.558
10/16/2013  22:08:00      -48.711      -27.098       -3.886       11.971       15.366       12.809      143.313      236.111      164.061        0.183        0.027       55.741        4.981        0.008      338.574       11.318      864.594
10/16/2013  22:09:00        3.729       21.086       45.421       19.193       38.200       35.411      368.388     1459.260     1253.924        0.280        0.154       21.414       32.352        2.283      338.738       11.593      864.585
10/16/2013  22:10:00        9.388       47.837       75.537       28.146       40.237       21.958      792.190     1619.033      482.152        0.549        0.145       48.750       24.793        0.259      338.707       11.542      864.588
10/16/2013  22:11:00        3.495      -58.849        6.734       28.626       29.999       25.708      819.458      899.965      660.886        0.295        0.119       58.953       12.364        0.044      338.810       11.715      864.606
10/16/2013  22:12:00       -4.251      -62.672       11.662       40.699       38.480       27.287     1656.390     1480.736      744.559        0.398        0.194       62.816        7.463        0.014      339.241       12.440      864.616
10/16/2013  22:13:00       32.483        0.494       21.576       37.223       47.269       24.258     1385.567     2234.378      588.453        0.286        0.210       32.487       23.691        0.532      339.244       12.443      864.609
10/16/2013  22:14:00       53.170       80.440       98.335       43.617       77.910       56.969     1902.475     6069.996     3245.427        1.509        0.561       96.424       63.601        0.435      339.256       12.465      864.594
10/16/2013  22:15:00       38.256      142.803      137.643       51.624       56.995       37.848     2665.084     3248.419     1432.507        2.407        0.367      147.839       32.521        0.048      339.800       13.380      864.579
10/16/2013  22:16:00       -0.929       -5.321       34.124       83.260       65.447       53.461     6932.230     4283.245     2858.025        0.763        0.704        5.402       50.966       89.021      339.668       13.159      864.589
10/16/2013  22:17:00     -123.152       -5.048       -8.702       54.016       45.811       28.219     2917.725     2098.649      796.316        1.054        0.291      123.255       25.448        0.043      338.535       11.252      864.642
10/16/2013  22:18:00     -165.928      -51.438       -7.768       85.087       43.488       35.740     7239.725     1891.237     1277.357        2.032        0.520      173.718       37.122        0.046      338.678       11.491      864.664
10/16/2013  22:19:00      -83.666      -99.624        7.734       42.111       35.648       27.866     1773.303     1270.760      776.528        1.040        0.191      130.096       27.546        0.045      338.799       11.696      864.682
10/16/2013  22:20:00        3.452      -25.757       11.638       19.201       39.609       16.745      368.694     1568.837      280.396        0.151        0.111       25.987       17.644        0.461      338.884       11.838      864.686
10/16/2013  22:21:00       -5.418        2.358        0.472       11.465       13.764       10.931      131.456      189.456      119.486        0.024        0.022        5.909        6.616        1.254      339.049       12.117      864.672
10/16/2013  22:22:00       53.829       22.919       34.598       35.514       52.561       41.844     1261.257     2762.613     1750.907        0.520        0.289       58.506       42.334        0.524      339.240       12.437      864.664
10/16/2013  22:23:00       55.512        6.875       44.459       42.693       55.135       32.259     1822.668     3039.832     1040.626        0.550        0.295       55.937       36.004        0.414      339.273       12.493      864.674
10/16/2013  22:24:00       -5.003      -27.971        9.298       46.017       51.290       22.523     2117.559     2630.644      507.287        0.307        0.263       28.415       15.767        0.308      339.622       13.081      864.687
10/16/2013  22:25:00     -113.374      -61.959       -3.006       45.261       40.946       20.800     2048.574     1676.546      432.620        1.043        0.208      129.200       17.765        0.019      339.006       12.044      864.703
10/16/2013  22:26:00      -19.276      -99.824        0.587       52.882       78.355       30.289     2796.509     6139.523      917.396        1.009        0.493      101.668       21.036        0.043      339.903       13.556      864.689
10/16/2013  22:27:00      -33.264      -20.018       -7.049       47.350       23.440       24.077     2242.049      549.425      579.685        0.246        0.169       38.823       17.966        0.214      339.291       12.523      864.685
10/16/2013  22:28:00       12.150      -15.867        4.319       29.895       36.663       14.727      893.716     1344.206      216.880        0.144        0.123       19.985       18.542        0.861      339.423       12.748      864.676
10/16/2013  22:29:00       -2.236       -3.122        8.690       39.195       22.609       14.034     1536.246      511.168      196.965        0.117        0.112        3.841        5.465        2.025      339.330       12.591      864.651
10/16/2013  22:30:00      -72.989       18.942        2.862       38.786       25.872       15.604     1504.340      669.352      243.469        0.406        0.121       75.407       17.547        0.054      339.071       12.153      864.640
10/16/2013  22:31:00      -97.159       23.757      -10.834       45.074       22.653       18.714     2031.646      513.144      350.206        0.651        0.145      100.021       11.727        0.014      338.856       11.792      864.638
10/16/2013  22:32:00      -52.194        1.586       -0.586       21.731       18.780       11.819      472.247      352.692      139.681        0.185        0.048       52.218        5.460        0.011      338.765       11.638      864.624
10/16/2013  22:33:00      -78.232      -17.147       -3.165       28.111       17.732       15.778      790.226      314.436      248.940        0.389        0.068       80.089       15.830        0.039      338.770       11.647      864.629
10/16/2013  22:34:00     -122.359      -52.897      -11.136       34.644       35.387       20.007     1200.200     1252.240      400.276        1.037        0.143      133.304       16.624        0.016      338.906       11.876      864.654
10/16/2013  22:35:00     -150.397      -42.158      -13.529       21.827       33.914       15.393      476.420     1150.151      236.939        1.322        0.093      156.194        8.508        0.003      338.894       11.856      864.677
10/16/2013  22:36:00     -141.444      -63.524       -4.452       46.562       19.863       23.852     2168.023      394.543      568.922        1.360        0.157      155.054       24.061        0.024      338.783       11.668      864.682
10/16/2013  22:37:00     -112.506      -20.342      -13.613       31.771       26.612       19.202     1009.410      708.219      368.701        0.767        0.104      114.330       16.506        0.021      338.732       11.583      864.684
10/16/2013  22:38:00      -99.173       -7.753      -13.961       33.791       30.159       17.511     1141.808      909.577      306.640        0.622        0.118       99.476       17.170        0.030      338.839       11.763      864.680
10/16/2013  22:39:00      -77.405       -1.906       -3.322       23.056       15.766       12.310      531.569      248.581      151.537        0.347        0.047       77.428       10.673        0.019      338.657       11.458      864.670
10/16/2013  22:40:00     -101.337      -27.615       -2.860       25.627       18.159       15.483      656.740      329.741      239.718        0.613        0.061      105.032       15.280        0.021      338.713       11.551      864.662
10/16/2013  22:41:00     -101.339      -39.340       -3.248       14.981       13.272        8.196      224.445      176.152       67.171        0.615        0.023      108.707        2.991        0.001      338.764       11.637      864.665
10/16/2013  22:42:00      -52.020      -59.811       -4.575       52.089       42.935       20.336     2713.214     1843.446      413.553        0.564        0.249       79.268       23.091        0.085      338.846       11.774      864.666
10/16/2013  22:43:00     -101.504       -0.626       -7.527       47.969       30.208       19.716     2301.013      912.505      388.730        0.698        0.180      101.506       18.153        0.032      338.653       11.450      864.661
10/16/2013  22:44:00     -126.467      -32.878       -0.155       41.543       33.703       22.759     1725.796     1135.922      517.974        1.023        0.169      130.671       18.433        0.020      338.708       11.543      864.675
10/16/2013  22:45:00     -134.173      -58.202       -5.158       19.172       21.442       11.523      367.581      459.744      132.771        1.119        0.048      146.253        8.991        0.004      339.046       12.110      864.691
10/16/2013  22:46:00     -102.180      -21.021      -12.060       32.757       33.581       21.602     1073.023     1127.654      466.627        0.685        0.133      104.320       20.399        0.038      338.646       11.439      864.707
10/16/2013  22:47:00      -86.574      -51.201        3.706       40.980       23.621       21.249     1679.327      557.966      451.508        0.641        0.134      100.581       20.914        0.043      338.741       11.598      864.720
10/16/2013  22:48:00     -112.035      -51.585       -1.486       52.068       42.226       18.691     2711.080     1783.044      349.368        1.003        0.242      123.340       19.905        0.026      338.741       11.599      864.737
10/16/2013  22:49:00     -142.930      -50.544       -0.066       26.620       25.034       17.368      708.606      626.689      301.647        1.231        0.082      151.603       13.124        0.007      338.573       11.318      864.773
10/16/2013  22:50:00     -111.311      -50.802        2.503       46.406       28.685       24.782     2153.474      822.816      614.165        0.928        0.180      122.356       24.666        0.041      338.524       11.234      864.792
10/16/2013  22:51:00     -114.205       -9.553      -12.873       36.378       24.298       17.931     1323.349      590.397      321.515        0.777        0.112      114.604       19.784        0.030      338.182       10.659      864.803
10/16/2013  22:52:00      -92.835      -19.655       -0.799       37.636       25.751       18.920     1416.493      663.090      357.984        0.572        0.122       94.893       19.582        0.043      338.291       10.843      864.808
10/16/2013  22:53:00      -73.714      -32.755       -3.974       25.976       25.016       14.162      674.770      625.788      200.558        0.401        0.075       80.664       13.712        0.029      338.245       10.763      864.814
10/16/2013  22:54:00     -116.429      -30.666       -4.719       28.736       18.966       14.014      825.743      359.709      196.385        0.795        0.069      120.400       12.477        0.011      338.342       10.928      864.807
10/16/2013  22:55:00     -122.920      -44.371       -5.894       22.188       18.004       11.752      492.298      324.148      138.103        0.903        0.048      130.683        9.604        0.005      338.201       10.693      864.804
10/16/2013  22:56:00     -121.754      -58.708       -4.342       20.302       21.036       12.882      412.152      442.495      165.952        0.965        0.051      135.170       10.053        0.006      338.196       10.683      864.816
10/16/2013  22:57:00     -124.084      -48.623       -0.017       24.419       17.492       12.565      596.310      305.958      157.881        0.941        0.053      133.271       11.980        0.008      338.279       10.822      864.820
10/16/2013  22:58:00     -122.351      -33.745       -7.324       31.255       19.041       18.253      976.887      362.549      333.161        0.892        0.084      126.919       15.236        0.014      338.161       10.624      864.832
10/16/2013  22:59:00      -93.518      -24.448       -3.212       28.941       19.106       14.047      837.602      365.024      197.322        0.538        0.070       96.661       10.409        0.012      338.179       10.654      864.838
10/16/2013  23:00:00      -74.975      -11.353       -4.685       35.772       24.370       15.446     1279.662      593.909      238.585        0.394        0.106       75.830       16.663        0.048      338.124       10.563      864.853
10/16/2013  23:01:00     -113.045       14.965       -9.533       44.920       33.743       20.447     2017.829     1138.561      418.074        0.833        0.179      114.031       14.474        0.016      338.163       10.628      864.857
10/16/2013  23:02:00     -142.140       11.468       -8.426       29.074       25.721       12.836      845.284      661.562      164.776        1.104        0.084      142.602        4.507        0.001      338.687       11.508      864.867
10/16/2013  23:03:00      -80.452       -7.520       -2.919       20.856       15.859       13.003      434.954      251.510      169.091        0.370        0.043       80.803       11.450        0.020      338.604       11.368      864.886
10/16/2013  23:04:00      -88.870        8.004       -5.281       18.681       20.446       12.927      348.987      418.023      167.112        0.446        0.047       89.229       10.891        0.015      338.634       11.418      864.887
10/16/2013  23:05:00      -84.559       -4.804       -9.397       23.196       14.076        7.963      538.068      198.143       63.408        0.403        0.040       84.695        9.993        0.014      338.294       10.846      864.887
10/16/2013  23:06:00      -46.808       11.993       -8.248       16.191       26.653        9.244      262.144      710.360       85.446        0.173        0.053       48.320       12.439        0.066      338.445       11.100      864.890
10/16/2013  23:07:00       28.917       22.444        3.054       24.772        9.124       10.197      613.659       83.253      103.979        0.107        0.040       36.605       13.227        0.131      338.723       11.568      864.880
10/16/2013  23:08:00       24.207       25.166       28.750       33.212       26.243       28.499     1103.035      688.684      812.212        0.232        0.130       34.919       12.573        0.130      338.089       10.503      864.869
10/16/2013  23:09:00       65.371       31.517       24.013       22.036       25.232       23.252      485.585      636.638      540.667        0.375        0.083       72.572       16.544        0.052      338.008       10.368      864.873
10/16/2013  23:10:00      102.536       39.630       11.323       25.812       19.993       15.782      666.274      399.702      249.081        0.676        0.066      109.928       12.484        0.013      338.283       10.830      864.889
10/16/2013  23:11:00       66.977       41.079       12.296       21.689       16.939       15.732      470.410      286.934      247.487        0.366        0.050       78.571        8.183        0.011      338.343       10.931      864.890
10/16/2013  23:12:00       51.162       31.524        7.721       12.291       11.306        8.634      151.071      127.828       74.539        0.201        0.018       60.095        5.561        0.009      338.350       10.944      864.893
10/16/2013  23:13:00       22.754       19.527        1.238       17.758       16.485       16.752      315.345      271.767      280.626        0.088        0.043       29.984        8.149        0.074      338.390       11.009      864.896
10/16/2013  23:14:00        3.982       -4.494       -1.909       14.948       17.975        8.142      223.428      323.093       66.293        0.033        0.031        6.004        7.467        1.547      338.461       11.127      864.911
10/16/2013  23:15:00       11.922      -14.261       -4.650        6.416        7.530        4.021       41.161       56.700       16.172        0.024        0.006       18.588        3.538        0.036      338.516       11.222      864.921
10/16/2013  23:16:00      -14.223      -18.808       -7.964       15.638        7.465        6.294      244.535       55.727       39.610        0.048        0.017       23.580        5.198        0.049      338.501       11.195      864.941
10/16/2013  23:17:00      -66.084      -19.672      -11.749       15.557        8.764        4.239      242.016       76.816       17.970        0.261        0.017       68.950        2.206        0.001      338.192       10.677      864.951
10/16/2013  23:18:00      -77.935      -25.422      -13.486       10.657       15.408        7.347      113.580      237.407       53.971        0.365        0.020       81.977        5.367        0.004      338.050       10.438      864.941
10/16/2013  23:19:00      -84.892      -32.371       -9.280       16.372       15.643       11.813      268.031      244.703      139.555        0.450        0.033       90.854        7.963        0.008      337.957       10.280      864.920
10/16/2013  23:20:00      -88.379      -38.669       -7.471        8.265        9.641       10.118       68.311       92.940      102.367        0.481        0.013       96.469        5.719        0.004      338.066       10.466      864.912
10/16/2013  23:21:00     -103.904      -38.237      -14.634        9.530       10.705        6.705       90.820      114.586       44.956        0.636        0.013      110.717        5.182        0.002      338.121       10.557      864.904
10/16/2013  23:22:00      -97.153       -7.388      -13.351        8.314        9.460        7.052       69.128       89.493       49.735        0.494        0.010       97.433        4.103        0.002      338.154       10.614      864.901
10/16/2013  23:23:00     -100.403      -14.579      -17.758       11.650       15.562        7.808      135.714      242.185       60.957        0.552        0.022      101.456        2.541        0.001      338.152       10.610      864.898
10/16/2013  23:24:00     -115.007       -6.227      -19.926        7.983       10.689        7.296       63.727      114.253       53.232        0.695        0.012      115.176        4.305        0.001      338.373       10.979      864.906
10/16/2013  23:25:00     -101.219      -21.053      -12.395       28.675       16.915       15.199      822.261      286.106      231.010        0.609        0.067      103.385       15.908        0.024      338.291       10.841      864.912
10/16/2013  23:26:00     -124.800      -48.810      -10.772       32.504       17.952       10.582     1056.528      322.279      111.979        0.978        0.075      134.006       14.725        0.012      338.094       10.512      864.916
10/16/2013  23:27:00     -110.141      -17.525      -11.574       19.664       14.309       15.756      386.668      204.751      248.260        0.671        0.042      111.527       14.534        0.017      337.846       10.095      864.928
10/16/2013  23:28:00     -117.967       -2.063      -10.808       26.185       17.047       11.457      685.637      290.594      131.274        0.757        0.055      117.985       11.868        0.010      337.875       10.144      864.940
10/16/2013  23:29:00      -98.643      -22.614       -7.198       18.984       13.884       11.559      360.388      192.753      133.610        0.549        0.034      101.202        9.894        0.010      338.010       10.371      864.941
10/16/2013  23:30:00     -105.425      -40.978      -10.945       10.641       10.182        6.063      113.227      103.666       36.763        0.658        0.013      113.109        4.291        0.001      338.158       10.618      864.935
10/16/2013  23:31:00     -109.857      -32.144      -10.466       12.199       11.737       13.186      148.820      137.746      173.863        0.684        0.023      114.463       10.069        0.008      337.969       10.303      864.932
10/16/2013  23:32:00      -87.920      -48.666       -5.738       16.480       12.752       10.650      271.596      162.623      113.424        0.534        0.027      100.491        7.622        0.006      338.014       10.379      864.913
10/16/2013  23:33:00      -84.415      -49.056        4.269       31.334       20.724       20.011      981.828      429.481      400.447        0.568        0.091       97.634       16.438        0.028      337.870       10.136      864.892
10/16/2013  23:34:00      -90.876      -75.220       -0.855       48.042       38.121       23.625     2308.072     1453.186      558.139        0.912        0.216      117.968       22.143        0.035      337.765        9.961      864.879
10/16/2013  23:35:00     -112.015     -137.341       -6.018       57.881       61.352       30.410     3350.163     3764.095      924.792        1.974        0.402      177.228       29.382        0.027      338.315       10.882      864.874
10/16/2013  23:36:00     -115.405     -128.231       -8.711       41.971       34.606       25.089     1761.592     1197.544      629.455        1.671        0.179      172.515       24.247        0.020      338.413       11.046      864.860
10/16/2013  23:37:00      -83.358      -91.939        0.155       31.366       47.588       16.539      983.833     2264.613      273.553        0.946        0.176      124.102       21.821        0.031      338.509       11.209      864.845
10/16/2013  23:38:00      -17.919      -66.242        8.167       26.042       28.706       16.978      678.161      824.063      288.260        0.328        0.090       68.622       11.934        0.030      338.683       11.501      864.833
10/16/2013  23:39:00        5.850      -53.942        2.475       40.933       31.652       23.358     1675.516     1001.874      545.601        0.309        0.161       54.258       23.043        0.180      338.540       11.261      864.827
10/16/2013  23:40:00      -14.065      -19.327        4.494       25.373       22.463       18.451      643.776      504.592      340.426        0.104        0.074       23.903       15.292        0.409      338.435       11.084      864.837
10/16/2013  23:41:00      -34.120      -14.700       -4.582       18.736       39.957       11.807      351.048     1596.565      139.414        0.174        0.104       37.152        9.514        0.066      338.388       11.006      864.870
10/16/2013  23:42:00      -31.066       23.932        0.429       30.155       20.129       13.927      909.336      405.174      193.951        0.152        0.075       39.215       15.115        0.149      337.960       10.288      864.904
10/16/2013  23:43:00       -1.973       22.513        5.673       10.322       10.809       12.420      106.549      116.837      154.248        0.046        0.019       22.599        7.858        0.121      338.018       10.385      864.928
10/16/2013  23:44:00        0.842       34.334       -4.444        9.244       16.706       10.427       85.454      279.082      108.726        0.084        0.024       34.344       11.633        0.115      338.097       10.517      864.950
10/16/2013  23:45:00      -41.019       17.503      -13.208       15.533       33.339        7.984      241.261     1111.489       63.739        0.179        0.071       44.597        5.623        0.016      338.065       10.464      864.970
10/16/2013  23:46:00      -67.749      -34.138      -13.937       18.766        9.951        7.884      352.163       99.016       62.160        0.323        0.026       75.864        3.840        0.003      337.550        9.599      864.970
10/16/2013  23:47:00      -90.978      -22.125      -20.444       14.069       20.241        9.923      197.933      409.693       98.473        0.495        0.035       93.630        8.848        0.009      337.431        9.401      864.962
10/16/2013  23:48:00      -88.002      -14.015      -14.096       21.173       27.075       10.920      448.309      733.054      119.256        0.472        0.065       89.111        8.126        0.008      337.536        9.576      864.972
10/16/2013  23:49:00      -92.773      -42.513      -12.146       12.641       14.742       11.196      159.798      217.325      125.341        0.553        0.025      102.050        5.143        0.003      337.400        9.348      864.987
10/16/2013  23:50:00      -40.008      -13.617       -2.873       33.962       22.873       12.559     1153.449      523.164      157.719        0.181        0.092       42.261       19.852        0.221      337.333        9.236      864.990
10/16/2013  23:51:00       57.315       45.500        2.951       37.250       34.483       23.619     1387.560     1189.082      557.836        0.425        0.157       73.180       15.809        0.047      337.278        9.144      864.995
10/16/2013  23:52:00       37.111       25.406       -2.036       26.521       17.622       20.553      703.387      310.527      422.427        0.173        0.072       44.974        9.628        0.046      337.384        9.322      864.992
10/16/2013  23:53:00       31.814       11.480        4.038       16.630       17.234       15.161      276.565      297.002      229.863        0.098        0.040       33.822        5.142        0.023      337.630        9.733      864.985
10/16/2013  23:54:00       31.286       43.845        2.102       17.195        9.193        9.273      295.669       84.506       85.992        0.169        0.023       53.863        8.897        0.027      337.651        9.769      864.972
10/16/2013  23:55:00      -21.108       33.262       -8.021       18.461       16.484        5.864      340.826      271.716       34.390        0.113        0.032       39.395        6.694        0.029      337.698        9.847      864.960
10/16/2013  23:56:00      -62.856       -5.738      -10.768       12.696        7.076        5.613      161.193       50.075       31.501        0.217        0.012       63.118        4.007        0.004      337.592        9.669      864.974
10/16/2013  23:57:00      -69.727        9.904      -12.325        7.527       10.037        6.709       56.659      100.736       45.010        0.266        0.010       70.427        4.666        0.004      337.391        9.333      864.987
10/16/2013  23:58:00      -62.457       25.235      -12.045        8.354        6.938        5.005       69.793       48.143       25.047        0.241        0.007       67.362        2.181        0.001      337.685        9.826      864.987
10/16/2013  23:59:00      -66.488       22.248       -7.155       16.001       14.529        9.363      256.025      211.105       87.662        0.276        0.028       70.112        8.325        0.014      337.738        9.916      864.996
